[[{"header":{"parameterUnit":"m.s-1","parameterCategory":1,"la1":30.6,"la2":29.2853,"lo1":-89.7004,"lo2":-87.6739,"dy":0.0162,"dx":0.0183,"nx":112,"ny":82,"refTime":"2024-04-16T12:00:00:Z","depth":0,"parameterNumber":2,"parameterNumberName":"U-component_of_WINDS"},"data":[0.0,0.0,0.0,0.0,0.0,0.0,0.0,0.0,0.0,0.0,0.0,0.0,0.0,0.0,0.0,0.0,0.0,0.0,0.0,0.0,0.0,0.0,0.0,0.0,0.0,0.0,0.0,0.0,0.0,0.0,0.0,0.0,0.0,0.0,0.0,0.0,0.0,0.0,0.0,0.0,0.0,0.0,0.0,0.0,0.0,0.0,0.0,0.0,0.0,0.0,0.0,0.0,0.0,0.0,0.0,0.0,0.0,0.0,0.0,0.0,0.0,0.0,0.0,0.0,0.0,0.0,0.0,0.0,0.0,0.0,0.0,0.0,0.0,0.0,0.0,0.0,0.0,0.0,0.0,0.0,0.0,0.0,0.0,0.0,0.0,0.0,0.0,0.0,0.0,0.0,-3.5092,-3.7933,-4.1992,-4.4525,-4.4525,-4.1857,-3.8878,-3.5796,0.0,0.0,0.0,0.0,0.0,0.0,0.0,0.0,0.0,0.0,0.0,0.0,0.0,0.0,0.0,0.0,0.0,0.0,0.0,0.0,0.0,0.0,0.0,0.0,0.0,0.0,0.0,0.0,0.0,0.0,0.0,0.0,0.0,0.0,0.0,0.0,0.0,0.0,0.0,0.0,0.0,0.0,0.0,0.0,0.0,0.0,0.0,0.0,0.0,0.0,0.0,0.0,0.0,0.0,0.0,0.0,0.0,0.0,0.0,0.0,0.0,0.0,0.0,0.0,0.0,0.0,0.0,0.0,0.0,0.0,0.0,0.0,0.0,0.0,0.0,0.0,0.0,0.0,0.0,0.0,0.0,0.0,0.0,0.0,0.0,0.0,0.0,0.0,0.0,0.0,0.0,0.0,0.0,0.0,0.0,0.0,0.0,0.0,0.0,0.0,0.0,0.0,0.0,0.0,-3.6545,-4.1075,-4.2837,-4.3681,-4.3681,-4.0059,-3.7076,-3.5306,0.0,0.0,0.0,0.0,0.0,0.0,0.0,0.0,0.0,0.0,0.0,0.0,0.0,0.0,0.0,0.0,0.0,0.0,0.0,0.0,0.0,0.0,0.0,0.0,0.0,0.0,0.0,0.0,0.0,0.0,0.0,0.0,0.0,0.0,0.0,0.0,0.0,0.0,0.0,0.0,0.0,0.0,0.0,0.0,0.0,0.0,0.0,0.0,0.0,0.0,0.0,0.0,0.0,0.0,0.0,0.0,0.0,0.0,0.0,0.0,0.0,0.0,0.0,0.0,0.0,0.0,0.0,0.0,0.0,0.0,0.0,0.0,0.0,0.0,0.0,0.0,0.0,0.0,0.0,0.0,0.0,0.0,0.0,0.0,0.0,0.0,0.0,0.0,0.0,0.0,0.0,0.0,0.0,0.0,0.0,0.0,0.0,0.0,0.0,0.0,0.0,0.0,0.0,-3.6068,-3.8527,-4.2506,-4.3681,-4.3791,-4.291,-3.9427,-3.6488,-3.4562,-3.2302,0.0,0.0,0.0,0.0,0.0,0.0,0.0,0.0,0.0,0.0,0.0,0.0,0.0,0.0,0.0,0.0,0.0,0.0,0.0,0.0,0.0,0.0,0.0,0.0,0.0,0.0,0.0,0.0,0.0,0.0,0.0,0.0,0.0,0.0,0.0,0.0,0.0,0.0,0.0,0.0,0.0,0.0,0.0,0.0,0.0,0.0,0.0,0.0,0.0,0.0,0.0,0.0,0.0,0.0,0.0,0.0,0.0,0.0,0.0,0.0,0.0,0.0,0.0,0.0,0.0,0.0,0.0,0.0,0.0,0.0,0.0,0.0,0.0,0.0,0.0,0.0,0.0,0.0,0.0,0.0,0.0,0.0,0.0,0.0,0.0,0.0,0.0,0.0,0.0,0.0,0.0,0.0,0.0,0.0,0.0,0.0,0.0,0.0,0.0,0.0,0.0,0.0,-3.8175,-3.9643,-4.2873,-4.3754,-4.3644,-4.2396,-3.8812,-3.5828,-3.4011,-3.0861,0.0,0.0,0.0,0.0,0.0,0.0,0.0,0.0,0.0,0.0,0.0,0.0,0.0,0.0,0.0,0.0,0.0,0.0,0.0,0.0,0.0,0.0,0.0,0.0,0.0,0.0,0.0,0.0,0.0,0.0,0.0,0.0,0.0,0.0,0.0,0.0,0.0,0.0,0.0,0.0,0.0,0.0,0.0,0.0,0.0,0.0,0.0,0.0,0.0,0.0,0.0,0.0,0.0,0.0,0.0,0.0,0.0,0.0,0.0,0.0,0.0,0.0,0.0,0.0,0.0,0.0,0.0,0.0,0.0,0.0,0.0,0.0,0.0,0.0,0.0,0.0,0.0,0.0,0.0,0.0,0.0,0.0,0.0,0.0,0.0,0.0,0.0,0.0,0.0,0.0,0.0,0.0,0.0,0.0,0.0,0.0,0.0,0.0,0.0,0.0,0.0,0.0,-3.6633,-3.8814,-4.2029,-4.2433,-4.2433,-4.2323,-3.758,-3.4411,-3.392,-3.0128,0.0,0.0,0.0,0.0,0.0,0.0,0.0,0.0,0.0,0.0,0.0,0.0,0.0,0.0,0.0,0.0,0.0,0.0,0.0,0.0,0.0,0.0,0.0,0.0,0.0,0.0,0.0,0.0,0.0,0.0,0.0,0.0,0.0,0.0,0.0,0.0,0.0,0.0,0.0,0.0,0.0,0.0,0.0,0.0,0.0,0.0,0.0,0.0,0.0,0.0,0.0,0.0,0.0,0.0,0.0,0.0,0.0,0.0,0.0,0.0,0.0,0.0,0.0,0.0,0.0,0.0,0.0,0.0,0.0,0.0,0.0,0.0,0.0,0.0,0.0,0.0,0.0,0.0,0.0,0.0,0.0,0.0,0.0,0.0,0.0,0.0,0.0,0.0,0.0,0.0,0.0,0.0,0.0,0.0,0.0,0.0,0.0,0.0,0.0,0.0,0.0,0.0,-3.645,-3.8557,0.0,-4.1535,-4.1148,-4.0157,-3.6383,-3.3609,-3.2465,0.0,0.0,0.0,0.0,0.0,0.0,0.0,0.0,0.0,0.0,0.0,0.0,0.0,0.0,0.0,0.0,0.0,0.0,0.0,0.0,0.0,0.0,0.0,0.0,0.0,0.0,0.0,0.0,0.0,0.0,0.0,0.0,0.0,0.0,0.0,0.0,0.0,0.0,0.0,0.0,0.0,0.0,0.0,0.0,0.0,0.0,0.0,0.0,0.0,0.0,0.0,0.0,0.0,0.0,0.0,0.0,0.0,0.0,0.0,0.0,0.0,0.0,0.0,0.0,0.0,0.0,0.0,0.0,0.0,0.0,0.0,0.0,0.0,0.0,0.0,0.0,0.0,0.0,0.0,0.0,0.0,0.0,0.0,0.0,0.0,0.0,0.0,0.0,0.0,0.0,0.0,0.0,0.0,0.0,0.0,0.0,0.0,0.0,0.0,0.0,0.0,0.0,-3.4637,-3.6009,-3.7734,0.0,-4.0744,-4.0084,-3.8469,-3.5007,-3.2414,-3.1189,0.0,0.0,0.0,0.0,0.0,0.0,0.0,0.0,0.0,0.0,0.0,0.0,0.0,0.0,0.0,0.0,0.0,0.0,0.0,0.0,0.0,0.0,0.0,0.0,0.0,0.0,0.0,0.0,0.0,0.0,0.0,0.0,0.0,0.0,0.0,0.0,0.0,0.0,0.0,0.0,0.0,0.0,0.0,0.0,0.0,0.0,0.0,0.0,0.0,0.0,0.0,0.0,0.0,0.0,0.0,0.0,0.0,0.0,0.0,0.0,0.0,0.0,0.0,0.0,0.0,0.0,0.0,0.0,0.0,0.0,0.0,0.0,0.0,0.0,0.0,0.0,0.0,0.0,0.0,0.0,0.0,0.0,0.0,0.0,0.0,0.0,0.0,0.0,0.0,0.0,0.0,0.0,0.0,0.0,0.0,0.0,0.0,0.0,0.0,0.0,0.0,0.0,-3.4477,-3.5004,-3.6252,-3.9496,-3.9863,-3.9218,-3.7603,-3.3413,-3.0714,0.0,0.0,0.0,0.0,0.0,0.0,0.0,0.0,0.0,0.0,0.0,0.0,0.0,0.0,0.0,0.0,0.0,0.0,0.0,0.0,0.0,0.0,0.0,0.0,0.0,0.0,0.0,0.0,0.0,0.0,0.0,0.0,0.0,0.0,0.0,0.0,0.0,0.0,0.0,0.0,0.0,0.0,0.0,0.0,0.0,0.0,0.0,0.0,0.0,0.0,0.0,0.0,0.0,0.0,0.0,0.0,0.0,0.0,0.0,0.0,0.0,0.0,0.0,0.0,0.0,0.0,0.0,0.0,0.0,0.0,0.0,0.0,0.0,0.0,0.0,0.0,0.0,0.0,0.0,0.0,0.0,0.0,0.0,0.0,0.0,0.0,0.0,0.0,0.0,0.0,0.0,0.0,0.0,0.0,0.0,0.0,0.0,0.0,0.0,0.0,0.0,0.0,0.0,-3.377,-3.4174,-3.4981,-3.711,-3.7367,-3.667,-3.5018,-3.1741,-2.9912,-3.0194,0.0,0.0,0.0,0.0,0.0,0.0,0.0,0.0,0.0,0.0,0.0,0.0,0.0,0.0,0.0,0.0,0.0,0.0,0.0,0.0,0.0,0.0,0.0,0.0,0.0,0.0,0.0,0.0,0.0,0.0,0.0,0.0,0.0,0.0,0.0,0.0,0.0,0.0,0.0,0.0,0.0,0.0,0.0,0.0,0.0,0.0,0.0,0.0,0.0,0.0,0.0,0.0,0.0,0.0,0.0,0.0,0.0,0.0,0.0,0.0,0.0,0.0,0.0,0.0,0.0,0.0,0.0,0.0,0.0,0.0,0.0,0.0,0.0,0.0,0.0,0.0,0.0,0.0,0.0,0.0,0.0,0.0,0.0,0.0,0.0,0.0,0.0,0.0,0.0,0.0,0.0,0.0,0.0,0.0,0.0,0.0,0.0,0.0,0.0,0.0,0.0,0.0,-3.3954,-3.344,-3.3587,-3.5569,-3.5495,-3.4559,-3.2789,-3.0296,-2.8742,-2.8609,0.0,0.0,0.0,0.0,0.0,0.0,0.0,0.0,0.0,0.0,0.0,0.0,0.0,0.0,0.0,0.0,0.0,0.0,0.0,0.0,0.0,0.0,0.0,0.0,0.0,0.0,0.0,0.0,0.0,0.0,0.0,0.0,0.0,0.0,0.0,0.0,0.0,0.0,0.0,0.0,0.0,0.0,0.0,0.0,0.0,0.0,0.0,0.0,0.0,0.0,0.0,0.0,0.0,0.0,0.0,0.0,0.0,0.0,0.0,0.0,0.0,0.0,0.0,0.0,0.0,0.0,0.0,0.0,0.0,0.0,0.0,0.0,0.0,0.0,0.0,0.0,0.0,0.0,0.0,0.0,0.0,0.0,0.0,0.0,0.0,0.0,0.0,0.0,0.0,0.0,0.0,0.0,0.0,0.0,0.0,0.0,0.0,0.0,0.0,0.0,0.0,0.0,-3.438,-3.2742,-3.2155,-3.4417,-3.394,-3.2733,-3.0853,-2.8958,-2.7374,-2.6274,0.0,0.0,0.0,0.0,0.0,0.0,0.0,0.0,0.0,0.0,0.0,0.0,0.0,0.0,0.0,0.0,0.0,0.0,0.0,0.0,0.0,0.0,0.0,0.0,0.0,0.0,0.0,0.0,0.0,0.0,0.0,0.0,0.0,0.0,0.0,0.0,0.0,0.0,0.0,0.0,0.0,0.0,0.0,0.0,0.0,0.0,0.0,0.0,0.0,0.0,0.0,0.0,0.0,0.0,0.0,0.0,0.0,0.0,0.0,0.0,-4.2329,0.0,0.0,0.0,0.0,0.0,0.0,0.0,0.0,0.0,0.0,0.0,0.0,0.0,0.0,0.0,0.0,0.0,0.0,0.0,0.0,0.0,0.0,0.0,0.0,0.0,0.0,0.0,0.0,0.0,0.0,0.0,0.0,0.0,0.0,0.0,0.0,0.0,0.0,0.0,0.0,0.0,-3.2876,-3.1568,-3.0907,-3.2045,-3.1458,-3.0429,-2.9106,-2.7248,-2.6166,-2.6204,-2.4599,0.0,0.0,0.0,0.0,0.0,0.0,0.0,0.0,0.0,0.0,0.0,0.0,0.0,0.0,0.0,0.0,0.0,0.0,0.0,0.0,0.0,0.0,0.0,0.0,0.0,0.0,0.0,0.0,0.0,0.0,0.0,0.0,0.0,0.0,0.0,0.0,0.0,0.0,0.0,0.0,0.0,0.0,0.0,0.0,0.0,0.0,0.0,0.0,0.0,0.0,0.0,0.0,0.0,0.0,0.0,0.0,0.0,0.0,0.0,0.0,-4.2943,0.0,0.0,0.0,0.0,0.0,0.0,0.0,0.0,0.0,0.0,0.0,0.0,0.0,0.0,0.0,0.0,0.0,0.0,0.0,0.0,0.0,0.0,0.0,0.0,0.0,0.0,0.0,0.0,0.0,0.0,0.0,0.0,0.0,0.0,0.0,0.0,0.0,0.0,0.0,0.0,-3.2436,-3.0858,-2.9953,-3.0723,-2.9625,-2.8506,-2.7743,-2.5919,-2.4828,-2.4854,-2.3949,0.0,0.0,0.0,0.0,0.0,0.0,0.0,0.0,0.0,0.0,0.0,0.0,0.0,0.0,0.0,0.0,0.0,0.0,0.0,0.0,0.0,0.0,0.0,0.0,0.0,0.0,0.0,0.0,0.0,0.0,0.0,0.0,0.0,0.0,0.0,0.0,0.0,0.0,0.0,0.0,0.0,0.0,0.0,0.0,0.0,0.0,0.0,0.0,0.0,0.0,0.0,0.0,0.0,-4.8159,-4.8857,-4.8746,-4.9481,-4.9114,-4.7883,-4.6379,-4.4214,-4.1866,0.0,0.0,0.0,0.0,0.0,0.0,0.0,0.0,0.0,0.0,0.0,0.0,0.0,0.0,0.0,0.0,0.0,0.0,0.0,0.0,0.0,0.0,0.0,0.0,0.0,-3.979,-3.9129,0.0,0.0,0.0,0.0,0.0,0.0,0.0,0.0,0.0,0.0,0.0,0.0,-3.2106,-3.0308,-2.9244,-2.9904,-2.8361,-2.716,-2.6832,-2.5189,-2.3936,-2.3439,-2.341,-2.341,0.0,0.0,0.0,0.0,0.0,0.0,0.0,0.0,0.0,0.0,0.0,0.0,0.0,0.0,0.0,0.0,0.0,0.0,0.0,0.0,0.0,0.0,0.0,0.0,0.0,0.0,0.0,0.0,0.0,0.0,0.0,0.0,-4.0047,-4.0838,0.0,0.0,0.0,0.0,0.0,0.0,0.0,0.0,0.0,0.0,0.0,0.0,0.0,0.0,-4.7498,-4.915,-4.9664,-4.904,-5.0729,-5.1132,-5.0472,-5.0582,-5.0912,-5.1279,-5.0398,0.0,-4.4195,-4.3828,0.0,0.0,0.0,0.0,0.0,0.0,0.0,0.0,0.0,0.0,0.0,0.0,0.0,0.0,0.0,0.0,0.0,0.0,0.0,0.0,0.0,0.0,-3.9717,-3.9019,-3.9386,-3.957,0.0,-3.9019,-3.9239,-3.7529,0.0,0.0,0.0,0.0,0.0,0.0,0.0,0.0,-3.0577,-2.9647,-2.9023,-2.9133,-2.7985,-2.7087,-2.6832,-2.5624,-2.4465,-2.3473,-2.341,-2.341,-2.341,-2.3477,0.0,0.0,0.0,0.0,0.0,0.0,0.0,0.0,0.0,0.0,0.0,0.0,0.0,0.0,0.0,0.0,0.0,0.0,0.0,0.0,0.0,0.0,0.0,0.0,0.0,0.0,0.0,0.0,0.0,-4.1405,-4.2727,-4.1279,-4.3314,-4.4525,0.0,0.0,0.0,0.0,0.0,0.0,0.0,0.0,0.0,-4.7241,-4.8159,-4.8746,-4.8967,-5.0618,-5.1499,-5.161,-5.3225,-5.3849,-5.3518,-5.3959,-5.4106,-5.4017,-5.3628,-5.172,-4.8673,-4.6911,-4.5406,-4.4158,0.0,0.0,0.0,0.0,0.0,-4.4121,-4.3791,-4.3864,0.0,0.0,0.0,0.0,0.0,0.0,0.0,0.0,0.0,0.0,0.0,0.0,0.0,-4.0928,-4.1332,-4.1699,-4.0891,-4.1001,-4.0487,0.0,-3.797,-3.7881,-3.6523,0.0,0.0,0.0,0.0,-3.1103,-3.0283,-2.95,-2.8987,-2.8987,-2.7936,-2.7148,-2.6832,-2.5722,-2.477,-2.4064,-2.4034,-2.4034,-2.4034,-2.4425,-2.4797,0.0,0.0,0.0,0.0,0.0,0.0,0.0,0.0,0.0,0.0,0.0,0.0,0.0,0.0,0.0,0.0,0.0,0.0,0.0,0.0,0.0,0.0,0.0,0.0,0.0,0.0,0.0,0.0,-4.3277,-4.4305,-4.1735,-4.4415,-4.5957,0.0,0.0,0.0,0.0,0.0,0.0,-4.7131,-4.8489,-4.9334,-4.9554,-5.0765,-5.1316,-5.1059,-5.2491,-5.3518,-5.4121,-5.5537,-5.6198,-5.6235,-5.6822,-5.6675,-5.5904,-5.5904,-5.4656,-5.2417,-4.9958,-4.7535,-4.5278,-4.5095,-4.4635,-4.4102,-4.3864,-4.4305,-4.5002,-4.4782,-4.4856,-4.5039,-4.5241,0.0,-4.4065,-4.3608,0.0,0.0,0.0,0.0,-4.2286,-4.2286,-4.2727,-4.3094,-4.269,-4.3057,-4.3314,-4.2727,-4.2616,-4.1662,0.0,-3.8762,-3.8872,-3.667,0.0,0.0,0.0,0.0,-3.1103,-3.0283,-2.95,-2.8987,-2.8987,-2.8155,-2.7448,-2.7102,-2.6226,-2.5404,-2.481,-2.4778,-2.4711,-2.4508,-2.5033,-2.5453,-2.5734,0.0,0.0,0.0,0.0,0.0,0.0,0.0,0.0,0.0,0.0,0.0,0.0,0.0,0.0,0.0,0.0,0.0,0.0,0.0,0.0,0.0,0.0,0.0,0.0,0.0,0.0,0.0,0.0,0.0,-4.2359,-4.5773,0.0,0.0,0.0,0.0,-4.6929,-4.915,-5.0508,-5.0545,-5.1353,-5.216,-5.291,-5.302,-5.3812,-5.5302,-5.6124,-5.6602,-5.6638,-5.7483,-5.7886,-5.7886,-5.7923,-5.7483,-5.6748,-5.6748,-5.5794,-5.4106,-5.1683,-4.9224,-4.6892,-4.614,-4.581,-4.57,-4.4929,-4.5149,-4.5736,-4.4966,-4.5223,-4.5957,-4.6709,-4.6415,-4.548,-4.3955,-4.3478,0.0,0.0,-4.2323,-4.2286,-4.2286,-4.2323,-4.2543,-4.3294,-4.3478,-4.3515,-4.3441,-4.3441,-4.247,0.0,-3.8689,-3.8248,-3.6597,0.0,-3.4747,-3.3917,-3.2412,-3.1103,-3.0283,-2.95,-2.8987,-2.8987,-2.8591,-2.8223,-2.7869,-2.7442,-2.6718,-2.5591,-2.5541,-2.5236,-2.4541,-2.4541,-2.5065,-2.613,-2.618,0.0,0.0,0.0,0.0,0.0,0.0,0.0,0.0,0.0,0.0,0.0,0.0,0.0,0.0,0.0,0.0,0.0,0.0,0.0,0.0,0.0,0.0,0.0,0.0,0.0,0.0,0.0,0.0,-4.6911,-4.9627,0.0,-4.9114,-4.9297,-4.9461,-4.9461,-5.0765,-5.1793,-5.2344,-5.3592,-5.4693,-5.55,-5.6014,-5.6565,-5.7152,-5.7446,-5.7556,-5.7593,-5.785,-5.7997,-5.7997,-5.7997,-5.785,-5.7556,-5.7042,-5.6198,-5.506,-5.3702,-5.1683,-4.9407,-4.86,-4.7939,-4.7352,-4.6526,-4.6746,-4.7352,-4.6526,-4.6415,-4.6526,-4.5792,-4.5351,-4.4929,-4.3828,-4.313,-4.2763,-4.302,-4.269,-4.2433,-4.2947,-4.3057,-4.313,-4.3441,-4.3515,-4.3515,-4.3515,-4.3515,-4.2837,-4.0655,-3.9827,-3.8946,-3.7345,-3.5936,-3.4747,-3.3917,-3.2889,-3.1898,-3.1091,-3.0283,-2.9757,-2.9757,-2.9186,-2.8615,-2.8232,-2.7876,-2.7392,-2.6736,-2.6449,-2.5981,-2.5236,-2.5928,-2.6266,-2.6209,-2.6912,-2.7288,0.0,0.0,0.0,0.0,0.0,0.0,0.0,0.0,0.0,0.0,0.0,0.0,0.0,0.0,0.0,0.0,0.0,0.0,0.0,0.0,0.0,0.0,0.0,0.0,0.0,0.0,-4.9848,-5.0655,-5.2931,-5.3995,-5.2894,-5.2821,-5.2821,-5.2821,-5.3812,-5.4656,-5.5185,-5.6235,-5.6932,-5.7189,-5.7703,-5.7997,-5.7997,-5.7997,-5.7997,-5.7997,-5.7997,-5.7997,-5.7997,-5.7997,-5.7703,-5.7189,-5.6932,-5.6051,-5.4766,-5.4509,-5.3298,-5.1536,-5.0692,-4.9884,-4.9077,-4.8544,-4.871,-4.904,-4.8233,-4.7553,-4.6929,-4.5865,-4.5131,-4.4599,-4.4085,-4.3351,-4.28,-4.3368,-4.313,-4.2837,-4.3368,-4.3515,-4.3515,-4.3515,-4.3515,-4.3515,-4.3515,-4.3515,-4.3094,-4.1772,-4.0855,-3.9717,-3.7823,-3.634,-3.5261,-3.4724,-3.3476,-3.2522,-3.2228,-3.1017,-3.021,-3.021,-2.9464,-2.8858,-2.8415,-2.8443,-2.8131,-2.735,-2.7291,-2.6974,-2.6207,-2.7178,-2.7457,-2.6951,-2.784,-2.8214,-2.8067,0.0,0.0,0.0,0.0,0.0,0.0,0.0,0.0,0.0,0.0,0.0,0.0,0.0,0.0,0.0,0.0,0.0,0.0,0.0,0.0,0.0,0.0,0.0,-4.592,-4.9517,-5.238,-5.3203,-5.5464,-5.6308,-5.473,-5.6014,-5.6932,-5.6932,-5.834,-5.9221,-5.9184,-5.9184,-5.8817,-5.8033,-5.7997,-5.7997,-5.7997,-5.7997,-5.7997,-5.7997,-5.7997,-5.7997,-5.7997,-5.796,-5.7116,-5.5706,-5.6418,-5.539,-5.3298,-5.4069,-5.3922,-5.3093,-5.2344,-5.1573,-5.0875,-5.0839,-5.0802,-5.0655,-4.9831,-4.8489,-4.7113,-4.7076,-4.6012,-4.4782,-4.4728,-4.4158,-4.3551,-4.3551,-4.3515,-4.3515,-4.3515,-4.3515,-4.3515,-4.3515,-4.3515,-4.3515,-4.3515,-4.3515,-4.324,-4.2433,-4.1609,-4.0325,-3.797,-3.6868,-3.6303,-3.6266,-3.4211,0.0,-3.3697,-3.1751,-3.0283,-3.032,-2.9574,-2.8931,-2.8523,-2.9196,-2.8969,-2.7434,-2.8047,-2.8116,-2.7288,-2.8028,-2.8433,-2.8435,-2.8799,-2.8825,-2.8467,0.0,0.0,0.0,0.0,0.0,0.0,0.0,0.0,0.0,0.0,0.0,0.0,0.0,0.0,0.0,0.0,0.0,0.0,0.0,0.0,0.0,-4.7021,-4.8269,-4.8545,-5.1573,-5.4252,-5.5647,-5.796,-5.9245,-5.8804,-5.9171,-5.9428,-5.9428,-5.9832,-5.9808,-5.9221,-5.9184,-5.8817,-5.8033,-5.7997,-5.7997,-5.7997,-5.7997,-5.7997,-5.7997,-5.7997,-5.7997,-5.796,-5.7409,-5.6895,-5.6418,-5.5464,-5.4693,-5.4032,-5.3702,-5.3387,-5.3167,-5.2968,-5.2747,-5.2491,-5.1903,-5.0912,-4.9811,-4.893,-4.8379,-4.7792,-4.6617,-4.6324,-4.6232,-4.5058,-4.4562,-4.4378,-4.4378,-4.3938,-4.3515,-4.3515,-4.3515,-4.3515,-4.3515,-4.3515,-4.3515,-4.3515,-4.3515,-4.3094,-4.1699,-4.1242,-4.0508,-3.8689,-3.7221,-3.6083,-3.5445,-3.427,0.0,-3.377,-3.2706,-3.2142,-3.2742,-3.1568,-3.0806,-3.0978,-3.042,-2.9465,-2.8169,-2.8031,-2.7419,-2.6125,-2.7059,-2.8002,-2.8827,-2.8953,-2.9351,0.0,0.0,0.0,0.0,0.0,0.0,0.0,0.0,0.0,0.0,0.0,0.0,0.0,0.0,0.0,0.0,0.0,0.0,0.0,0.0,0.0,0.0,-4.915,-5.0912,-5.1961,-5.3702,-5.5757,-5.8033,-5.9538,-6.0676,-6.1337,-6.141,-6.141,-6.141,-6.141,-6.0933,-5.9735,-5.9698,-5.9171,-5.8033,-5.7997,-5.7997,-5.7997,-5.7997,-5.7997,-5.7997,-5.7997,-5.7997,-5.796,-5.7189,-5.6638,0.0,-5.495,-5.4216,-5.3849,-5.3408,-5.3203,0.0,0.0,0.0,0.0,0.0,-5.1169,-4.9958,-4.915,-4.86,-4.8159,-4.7205,-4.6985,-4.6929,-4.5975,-4.5461,-4.5149,-4.4764,-4.4378,-4.3938,-4.3571,-4.3515,-4.3515,-4.3515,-4.3515,-4.3515,-4.3515,-4.3515,-4.313,-4.1846,0.0,0.0,-3.9423,-3.7881,-3.6633,-3.6119,-3.5041,-3.4307,-3.4307,-3.3316,-3.2766,-3.3256,-3.2155,-3.1428,-3.147,-3.118,0.0,0.0,0.0,-2.8015,-2.6868,-2.7593,0.0,0.0,0.0,-2.9899,-3.0395,0.0,0.0,0.0,-3.0224,-3.0224,0.0,0.0,0.0,0.0,0.0,0.0,0.0,0.0,0.0,0.0,0.0,0.0,0.0,0.0,0.0,0.0,-5.1316,-5.3225,-5.5559,-5.5941,-5.7079,-6.0052,-6.0566,-6.1227,-6.2633,-6.278,-6.278,-6.278,-6.278,-6.2144,-6.0639,0.0,0.0,0.0,0.0,-5.7997,-5.7997,-5.7997,-5.7997,-5.7997,-5.7997,-5.7997,-5.796,-5.7189,-5.6345,-5.5537,-5.473,-5.3959,-5.3203,-5.3203,-5.3203,-5.3203,-5.3203,-5.3203,-5.3093,-5.2307,-5.1499,0.0,0.0,0.0,0.0,-4.8196,-4.7736,-4.7223,-4.7113,-4.6599,-4.5883,-4.5076,-4.4782,-4.4525,-4.3718,-4.3515,-4.3515,-4.3515,-4.3515,-4.3515,-4.3515,-4.3515,-4.324,-4.247,-4.1662,-4.0838,-4.0047,-3.8557,-3.7456,-3.7382,-3.6009,-3.4968,-3.4894,-3.361,-3.2766,-3.2876,0.0,0.0,-3.1146,-3.1708,-3.1326,-2.9661,-2.9557,-2.9245,-2.8587,-2.8837,-2.9218,-2.971,-3.0266,-3.0466,-3.0285,-3.0925,-3.119,-3.119,-3.119,-3.119,0.0,0.0,0.0,0.0,0.0,0.0,0.0,0.0,0.0,0.0,0.0,0.0,0.0,0.0,0.0,-5.205,-5.3849,-5.55,-5.7299,-5.8107,-5.8988,-6.0272,-6.1557,-6.2475,-6.2743,-6.278,-6.278,-6.278,-6.278,-6.2401,-6.141,-6.075,0.0,-5.9024,-5.8327,-5.7997,-5.7997,-5.7997,-5.7997,-5.7997,0.0,0.0,-5.796,-5.7189,-5.6345,-5.5537,-5.473,-5.3959,-5.3203,-5.3203,-5.3203,-5.3203,-5.3203,-5.3203,-5.3093,-5.2307,-5.1499,-5.0692,-4.9904,-4.9003,-4.8196,-4.7553,-4.7663,-4.7976,-4.7296,-4.7003,0.0,-4.5883,-4.5223,-4.4525,-4.3718,-4.3515,-4.3515,-4.3515,-4.3515,-4.3515,-4.3515,-4.3515,-4.324,-4.247,-4.1662,-4.0838,-4.0047,-3.8557,-3.7272,-3.6633,-3.5679,-3.4784,-3.4137,-3.377,-3.3844,-3.4491,-3.3844,-3.3276,-3.3174,-3.2685,-3.1703,-3.0091,-2.9442,-2.9052,-2.8916,-2.8953,-2.9454,-3.0491,-3.029,-3.0627,-3.1471,-3.1302,-3.119,-3.119,-3.119,-3.119,0.0,0.0,0.0,0.0,0.0,0.0,0.0,0.0,0.0,0.0,0.0,-4.8122,-4.9334,0.0,-5.2747,-5.5207,-5.6602,-5.7813,-5.9024,-5.9538,-5.9795,-5.9795,-6.1227,-6.2218,-6.2218,-6.2952,-6.3466,-6.3466,-6.3466,-6.3099,-6.2254,-6.108,-6.0052,-5.9221,-5.8437,-5.7997,-5.7997,-5.7997,-5.7997,-5.7997,-5.7997,-5.7997,-5.796,-5.6748,-5.5978,-5.5537,-5.4326,-5.3592,-5.3203,-5.3203,-5.3203,-5.3203,-5.3203,-5.3203,-5.3093,-5.2307,-5.1756,-5.1279,-5.0472,-4.9627,-4.8893,-4.8489,-4.8343,-4.8233,-4.781,-4.77,-4.7443,-4.625,-4.5626,-4.5039,-4.3791,-4.3515,-4.3515,-4.3515,-4.3515,-4.3515,-4.3515,-4.3515,-4.3404,-4.2983,-4.1919,-4.0948,-4.0561,-3.9166,-3.7698,-3.6486,-3.5936,-3.5202,-3.3954,-3.3807,-3.3954,-3.4344,-3.4027,-3.3611,-3.315,-3.2336,-3.1347,-3.0161,-3.0108,-2.9958,-2.9567,-3.0509,-3.1315,-3.1896,-3.2054,-3.2261,-3.2433,-3.1974,-3.1562,-3.119,-3.119,-3.119,0.0,0.0,0.0,0.0,0.0,0.0,0.0,0.0,-4.869,-4.937,-5.0178,-5.1373,-5.3298,-5.4436,-5.5794,-5.7886,-5.8914,-5.9685,-6.0309,-6.0419,-6.0126,-5.9294,-6.0493,-6.141,-6.1557,-6.2805,-6.3686,-6.3833,-6.3833,-6.3539,-6.2842,-6.141,-6.0346,-5.9685,-5.8731,-5.8217,-5.8217,-5.807,-5.7997,-5.7997,-5.7997,-5.7997,-5.796,-5.6492,-5.5757,-5.55,-5.3922,-5.3203,-5.3203,-5.3203,-5.3203,-5.3203,-5.3203,-5.3203,-5.3093,-5.2454,-5.2123,-5.1903,-5.1242,-5.0398,-4.961,-4.961,-4.9003,-4.8306,-4.8306,-4.8306,-4.8012,-4.6544,-4.614,-4.5773,-4.4158,-4.3718,-4.3681,-4.3551,-4.3515,-4.3515,-4.3515,-4.3515,-4.3515,-4.3515,-4.2213,-4.1095,-4.1095,-3.9774,-3.8212,-3.6743,-3.6523,-3.5973,-3.4468,-3.4284,-3.4284,-3.4284,-3.4284,-3.3902,-3.3027,-3.2161,-3.136,-3.0784,-3.1292,-3.1419,-3.0904,-3.2455,-3.3396,-3.3563,-3.4082,-3.3956,-3.3208,-3.2696,-3.2021,-3.119,-3.119,-3.119,-4.7859,-4.7627,-4.6924,-4.7717,-4.86,-4.9848,0.0,0.0,-5.3628,-5.3702,-5.4363,-5.4987,-5.528,-5.6565,-5.7923,-5.8891,-5.9758,-6.0309,-6.0382,-6.0419,-6.0126,-5.9294,-6.0015,-6.0823,-6.152,-6.1777,-6.2181,-6.2915,-6.2952,-6.2915,-6.278,-6.1961,-6.141,-6.1337,-5.9869,-5.9074,-5.9074,-5.8364,-5.7997,-5.7997,-5.7997,-5.7997,-5.796,-5.7079,-5.6271,-5.55,-5.3922,-5.3203,-5.3203,-5.3203,-5.3203,-5.3203,-5.3203,-5.3203,-5.3167,-5.3093,-5.2601,-5.1977,-5.1903,-5.0896,-4.961,-4.961,-4.9003,-4.8306,-4.8306,-4.8306,-4.8122,-4.7223,-4.6966,-4.6599,-4.4984,-4.4562,-4.4378,-4.3644,-4.3515,-4.3515,-4.3515,-4.3515,-4.3515,-4.3515,-4.2213,-4.1095,-4.1095,-3.9774,-3.8395,-3.7492,-3.7382,-3.7052,-3.6119,-3.6009,-3.6009,-3.6009,-3.6009,-3.5627,-3.464,-3.3677,-3.3119,-3.3051,-3.3119,-3.3312,-3.3725,-3.3975,-3.446,-3.5307,-3.4975,-3.4411,-3.3634,-3.3226,-3.2395,-3.119,-3.119,-3.119,-4.6298,-4.7875,-4.9224,-4.9077,-5.1116,-5.3503,-5.495,-5.6271,-5.7189,-5.7189,-5.785,-5.8547,-5.8988,-5.9648,-6.0529,0.0,-6.2328,-6.2365,-6.1887,-6.141,-6.0456,-5.8731,-5.8804,-5.9501,-6.0786,-6.1741,-6.2658,-6.3503,-6.3576,-6.3576,-6.3576,-6.2291,-6.1594,-6.1594,-6.0493,-5.9905,-5.9905,-5.9098,-5.8694,-5.8694,-5.8217,-5.7997,-5.796,-5.7189,-5.6124,-5.484,-5.3702,-5.3203,-5.3203,-5.3203,-5.3203,-5.3203,-5.3203,-5.3203,-5.3203,-5.3203,-5.3004,-5.2711,-5.2711,-5.1646,-5.0288,-5.0288,-4.9407,-4.8306,-4.8306,-4.8306,-4.8122,-4.7333,-4.7113,-4.6746,-4.5131,-4.4691,-4.4525,-4.3681,-4.3515,-4.3515,-4.3515,-4.3515,-4.3515,-4.3515,-4.258,-4.1662,-4.1168,-4.0157,-3.9129,-3.8322,-3.7786,-3.7199,-3.6376,-3.6303,-3.6303,-3.6303,-3.5789,-3.5266,-3.4854,-3.3953,-3.3423,-3.3423,-3.3795,-3.4273,-3.4842,-3.5537,-3.6272,-3.6936,-3.6731,-3.613,-3.5049,-3.4609,-3.3741,-3.2476,-3.2036,-3.1853,-4.6591,-4.8652,-5.0875,-5.1189,-5.3797,-5.6528,-5.7556,-5.9245,-6.0493,-6.0248,-6.0676,-6.119,-6.152,-6.1594,-6.2071,-6.3503,-6.3943,-6.387,-6.3246,-6.2071,-6.0529,-5.8584,-5.774,-5.796,-5.9575,-6.1006,-6.2254,-6.3319,-6.3613,-6.3723,-6.3723,-6.2805,-6.2181,-6.1924,-6.1153,-6.075,-6.075,-5.9942,-5.9404,-5.9184,-5.8621,-5.8217,-5.796,-5.6932,-5.5721,-5.4363,-5.3555,-5.3203,-5.3203,-5.3203,-5.3203,-5.3203,-5.3203,-5.3203,-5.3203,-5.3203,-5.3203,-5.3203,-5.3203,-5.2307,-5.1096,-5.0875,-4.9848,-4.86,-4.8379,-4.8306,-4.8196,-4.759,-4.7443,-4.7039,-4.5443,-4.5039,-4.4782,-4.3718,-4.3515,-4.3515,-4.3515,-4.3515,-4.3515,-4.3515,-4.2837,-4.2103,-4.1552,-4.0781,-3.9974,-3.9166,-3.8557,-3.786,-3.7074,-3.6964,-3.6964,-3.6964,-3.6082,-3.5456,-3.5456,-3.4573,-3.4032,-3.4032,-3.4657,-3.5256,-3.5804,-3.6816,-3.7614,-3.8099,-3.8115,-3.7411,-3.6006,-3.5668,-3.4792,-3.3389,-3.2848,-3.2496,-5.0395,-5.0708,-5.1536,-5.462,-5.6675,-5.8327,-5.9942,-6.2181,-6.3686,-6.2879,-6.2707,-6.2511,-6.1741,-6.1594,-6.1851,-6.267,-6.3539,-6.409,-6.4053,-6.1961,-6.0126,-5.9258,-5.7116,-5.6308,0.0,-5.8841,-5.9979,-6.1557,-6.2401,-6.2842,-6.2842,-6.3576,-6.3649,-6.2805,-6.1998,-6.1557,-6.1557,-6.0786,-5.9979,-5.9184,-5.9184,-5.8767,-5.796,-5.6345,-5.517,-5.4363,-5.3555,-5.3203,-5.3203,-5.3203,-5.3203,-5.3203,-5.3203,-5.3203,-5.3203,-5.3203,-5.3203,-5.3203,-5.3203,-5.2674,-5.183,-5.1059,-5.0251,-4.939,-4.8563,-4.8306,-4.8306,-4.8269,-4.8269,-4.7902,-4.6287,-4.5847,-4.5443,-4.3882,-4.3515,-4.3515,-4.3515,-4.3515,-4.3515,-4.3515,-4.2837,-4.2286,-4.2286,-4.1589,-4.0781,-3.9974,-3.9827,-3.9533,-3.8726,-3.8615,-3.8615,-3.8615,-3.7736,-3.7121,-3.7121,-3.6159,-3.5532,-3.5532,-3.6024,-3.6586,-3.7118,-3.7632,-3.8115,-3.8658,-3.8673,-3.7802,-3.6006,-3.5987,-3.5076,-3.3423,-3.3389,-3.2983,-5.0729,-5.2747,-5.5317,-5.7446,-6.0015,-6.2475,-6.409,-6.5081,-6.5301,-6.3943,-6.2365,-6.0823,-5.9465,-5.9208,-5.9832,-6.1704,-6.3172,-6.409,-6.409,-6.3833,-6.2144,-5.8084,-5.829,0.0,0.0,0.0,0.0,-6.1447,-6.2365,-6.278,-6.278,-6.3613,-6.3686,-6.2817,-6.2548,-6.2401,-6.2401,-6.1594,-6.0786,-5.9979,-5.8914,-5.8253,-5.796,-5.6308,-5.5427,-5.5097,-5.3775,-5.3203,-5.3203,-5.3203,-5.3203,-5.3203,-5.3203,-5.3203,-5.3203,-5.3203,-5.3203,-5.3203,-5.3203,-5.2674,-5.194,-5.1683,-5.0692,-4.9537,-4.9243,-4.8746,-4.8306,-4.8306,-4.8306,-4.8049,-4.6966,-4.6324,-4.5626,-4.4562,-4.3901,-4.3515,-4.3515,-4.3515,-4.3515,-4.3515,-4.3277,-4.291,-4.2396,-4.2103,-4.1442,-4.0084,-3.946,-3.9019,-3.8726,-3.8689,-3.8689,-3.8689,-3.7808,-3.7192,-3.7192,-3.6228,-3.56,-3.56,-3.6079,-3.6661,-3.7173,-3.7649,-3.8132,-3.8673,-3.8689,-3.8239,-3.7237,-3.6968,-3.6299,-3.5366,-3.4508,-3.3998,-5.2968,-5.5684,-5.8621,-6.0835,-6.3172,-6.5228,-6.6256,-6.6292,-6.5375,-6.2842,-6.0639,-5.8437,-5.6271,-5.5611,-5.6418,-5.9391,-6.0786,-6.2108,-6.3833,-6.3539,-6.1998,-5.8877,-5.9134,-5.8841,0.0,0.0,0.0,-6.1043,-6.2475,-6.3135,-6.2817,-6.4163,-6.442,-6.3319,-6.3282,-6.3282,-6.3282,-6.2438,-6.1484,-6.0382,-5.8767,-5.7997,-5.796,-5.6638,-5.6014,-5.5941,-5.4326,-5.3628,-5.3628,-5.3314,-5.3203,-5.3203,-5.3203,-5.3203,-5.3203,-5.3203,-5.3203,-5.3203,-5.3203,-5.2858,-5.238,-5.2087,-5.1116,-4.9978,-4.9684,-4.8967,-4.8306,-4.8306,-4.8306,-4.8122,-4.7296,-4.6709,-4.6067,-4.4966,-4.4305,-4.3864,-4.3534,-4.3515,-4.3515,-4.3515,-4.3515,-4.3314,-4.28,-4.2506,-4.1956,-4.0891,-4.0084,-3.935,-3.8762,-3.8689,-3.8689,-3.8689,-3.7808,-3.7373,-3.7844,-3.6492,-3.5915,-3.6671,-3.697,-3.7246,-3.7578,-3.8527,-3.9077,-3.9129,-3.9129,-3.885,-3.8344,-3.7739,-3.7097,-3.6395,-3.5557,-3.4959,-5.7116,-5.9428,-6.1484,-6.4604,-6.5925,-6.6476,-6.6439,-6.5705,-6.387,-5.9881,-5.7666,-5.55,0.0,0.0,-5.2123,-5.6088,-5.6932,-5.8731,-6.3539,-6.1594,-6.0162,0.0,0.0,0.0,0.0,0.0,0.0,-6.0529,0.0,-6.3723,-6.2964,-6.5191,-6.5778,-6.42,-6.4163,-6.4127,-6.409,-6.3172,-6.1924,-6.0382,-5.8767,-5.7997,-5.796,-5.7189,-5.6822,-5.6712,-5.5133,-5.4436,-5.4326,-5.3592,-5.3261,-5.3203,-5.3203,-5.3203,-5.3203,-5.3203,-5.3203,-5.3203,-5.3203,-5.3203,-5.3057,-5.2307,-5.1499,-5.0655,-4.9904,-4.9003,-4.8306,-4.8306,-4.8306,-4.8122,-4.7369,-4.7113,-4.6709,-4.5168,-4.4764,-4.4488,-4.3718,-4.3551,-4.3515,-4.3515,-4.3515,-4.3515,-4.3515,-4.2837,-4.2286,-4.2286,-4.1625,-4.0545,-3.9019,-3.8799,-3.8762,-3.8762,-3.7863,-3.7734,-3.8977,-3.6991,-3.657,-3.8542,-3.852,-3.8431,-3.8353,-4.011,-4.0744,-3.9974,-3.9974,-3.9707,-3.9191,-3.8326,-3.7432,-3.6506,-3.6409,-3.5723,-5.9905,-6.2768,-6.5154,-6.5999,-6.6366,-6.6329,-6.5742,-6.3099,-6.0102,-5.7863,-5.4216,-5.0986,0.0,0.0,0.0,-5.5354,-5.84,0.0,-6.5375,-6.5668,0.0,-6.4457,0.0,-6.3025,-6.1973,-6.2475,0.0,0.0,-6.3135,-6.3576,-6.4604,-6.5815,-6.6035,-6.5044,-6.5007,-6.4714,-6.409,-6.2034,-6.0823,-6.0382,-5.8767,-5.7997,-5.796,-5.7189,-5.6822,-5.6748,-5.5721,-5.495,-5.4363,-5.4179,-5.3739,-5.3203,-5.3203,-5.3203,-5.3203,-5.3203,-5.3203,-5.3203,-5.3203,-5.3203,-5.3167,-5.2968,-5.194,-5.0765,-5.0545,-4.9481,-4.8306,-4.8306,-4.8306,-4.8269,-4.803,-4.7553,-4.7003,-4.6599,-4.5572,-4.4618,-4.4452,-4.3901,-4.3515,-4.3515,-4.3515,-4.3515,-4.3515,-4.2837,-4.2286,-4.2286,-4.1625,-4.0948,-4.0545,-3.9974,-3.957,-3.957,-3.8636,-3.8148,-3.846,-3.7754,-3.7553,-3.8057,-3.8818,-3.9191,-3.9191,-4.04,-4.0985,-4.0818,-4.0781,-4.0716,-4.058,-3.9031,-3.8154,-3.7862,-3.6461,-3.5839,-6.3503,-6.5888,-6.754,-6.754,-6.7026,-6.5925,-6.3649,-6.0566,-5.7121,-5.3478,-5.0476,-4.7955,-4.6151,-4.6816,0.0,0.0,0.0,0.0,-6.4237,-6.5264,-6.5742,0.0,-6.6035,0.0,-6.5007,-6.5081,-6.5301,0.0,-6.4897,-6.4677,-6.5264,-6.6402,-6.6659,-6.5852,-6.5485,-6.4751,-6.3539,-6.1814,-6.075,-6.0382,-5.9134,-5.8327,-5.796,-5.7519,-5.7336,-5.7299,0.0,-5.5868,-5.539,-5.4693,-5.4142,-5.3702,-5.3314,-5.3203,-5.3203,-5.3203,-5.3203,-5.3203,-5.3203,-5.3203,-5.3203,-5.3203,-5.2344,-5.1242,-5.0912,-4.9884,-4.8783,-4.8416,-4.8306,-4.8306,-4.8306,-4.7957,-4.7553,-4.7186,-4.6415,-4.5572,-4.4838,-4.4342,-4.3901,-4.3588,-4.3515,-4.3515,-4.3515,-4.313,-4.2837,-4.2837,-4.2433,-4.2139,-4.2139,-4.1148,-4.0333,-4.0061,-3.9333,-3.8938,-3.9272,-3.8424,-3.8397,-3.9537,-3.9884,-4.0126,-4.0308,-4.1504,-4.1992,-4.1609,-4.1609,-4.1609,-4.1609,-3.9892,-3.9139,-3.9204,-3.7231,-3.6527,-6.732,-6.8752,-6.9302,-6.8972,-6.743,-6.5007,-6.1117,-5.796,-5.4254,-4.8623,-4.7027,-4.5828,-4.3282,-4.3378,-4.5369,-5.0178,0.0,-5.5794,-6.223,-6.322,-6.453,-6.7797,-6.7467,-6.7283,-6.8091,-6.743,-6.721,-6.7797,-6.721,-6.6476,-6.5668,-6.6953,-6.7357,-6.6659,-6.5778,-6.4604,-6.3172,-6.2108,-6.119,-6.0382,-5.9588,-5.8804,-5.7997,-5.7997,-5.7997,-5.796,0.0,0.0,-5.6675,-5.517,-5.4509,-5.4326,-5.3518,-5.3203,-5.3203,-5.3203,-5.3203,-5.3203,-5.3203,-5.3203,-5.3203,-5.3203,-5.2674,-5.183,-5.1059,-5.0251,-4.9427,-4.8563,-4.8306,-4.8306,-4.8306,-4.8306,-4.8122,-4.7443,-4.7186,-4.6709,-4.5315,-4.4838,-4.4452,-4.3644,-4.3515,-4.3515,-4.3515,-4.3515,-4.3515,-4.3515,-4.3515,-4.348,-4.3391,-4.2075,-4.0917,-4.042,-3.9854,-3.9791,-4.044,-3.9089,-3.9191,-4.1511,-4.1152,-4.1049,-4.1537,-4.2813,-4.3167,-4.247,-4.247,-4.2396,-4.2286,-4.074,-4.0086,-4.0166,-3.8225,-3.7416,-7.0,-7.1284,-7.1394,-6.9412,-6.6145,-6.2732,-6.0028,-5.4987,0.0,-4.7677,-4.5572,-4.3957,-4.3466,-4.4509,-4.6874,-5.1096,-5.3702,-5.7446,-6.3943,-6.5448,-6.7063,0.0,-6.9963,-6.9779,-7.0624,-6.9963,0.0,0.0,0.0,-6.8128,-6.732,-6.754,-6.7614,-6.7504,-6.6072,-6.5154,-6.4897,-6.2695,-6.119,-6.0382,-5.9588,-5.8804,-5.7997,-5.7997,-5.7997,-5.7997,0.0,0.0,-5.6748,-5.5794,-5.4987,-5.4326,-5.3518,-5.3203,-5.3203,-5.3203,-5.3203,-5.3203,-5.3203,-5.3203,-5.3203,-5.3203,-5.2674,-5.183,-5.1059,-5.0251,-4.9427,-4.8563,-4.8306,-4.8306,-4.8306,-4.8306,-4.8269,-4.8122,-4.759,-4.7003,-4.6746,-4.5645,-4.4452,-4.3644,-4.3515,-4.3515,-4.3515,-4.3515,-4.3515,-4.3515,-4.3515,-4.3321,-4.292,-4.1976,-4.1324,-4.1195,-4.0305,-3.9706,-3.9844,-3.9792,-4.0095,-4.1001,-4.1411,-4.1884,-4.2457,-4.3141,-4.3441,-4.3277,-4.3277,-4.2947,-4.2286,-4.1121,-4.023,-3.9593,-3.8338,-3.7682,-7.1908,-7.3156,-7.3083,-7.022,-6.6145,-6.1667,-5.7229,0.0,0.0,-4.4468,-4.3451,-4.2977,-4.2676,-4.3845,-4.5859,-4.8964,-5.1132,-5.4583,-6.0639,-6.2915,-6.5485,-6.9559,-7.0477,-7.1064,0.0,-7.1211,0.0,0.0,0.0,-6.8568,-6.7724,-6.7687,-6.7504,-6.71,-6.5925,-6.5118,-6.4677,-6.3062,-6.163,-6.0419,-6.0015,-5.9171,-5.7997,-5.7997,-5.7997,-5.7997,-5.7997,0.0,-5.7373,-5.6565,-5.5757,-5.495,-5.4142,-5.3592,-5.3203,-5.3203,-5.3203,-5.3203,-5.3203,-5.3203,-5.3203,-5.3203,-5.2931,-5.2417,-5.1169,-5.0545,-4.9958,-4.8673,-4.8306,-4.8306,-4.8306,-4.8306,-4.8306,-4.8306,-4.77,-4.7113,-4.7113,-4.6159,-4.5076,-4.4268,-4.4121,-4.3975,-4.3588,-4.3515,-4.3515,-4.3515,-4.3515,-4.3428,-4.316,-4.2219,-4.1477,-4.1188,-4.0647,-4.0215,-3.9942,-4.0025,-4.0319,-4.0874,-4.1161,-4.1617,-4.2221,-4.2789,-4.3087,-4.3087,-4.3339,-4.3314,-4.291,-4.1996,-4.1427,-4.1137,-3.9505,-3.8517,-7.3017,-7.4404,-7.4331,-7.0954,-6.6145,-6.0738,-5.4833,-4.9819,-4.5408,-4.185,-4.1853,-4.2382,-4.2041,-4.2905,-4.4406,0.0,-4.8196,-5.1096,-5.6932,-5.9979,-6.3356,0.0,-7.0367,0.0,-7.2459,0.0,0.0,0.0,0.0,0.0,-6.7724,-6.7687,-6.7393,-6.6769,-6.5815,-6.5007,-6.4347,-6.3319,-6.1998,-6.0419,-6.0419,-5.9575,-5.7997,-5.7997,-5.7997,-5.7997,-5.7997,0.0,0.0,-5.7152,-5.6345,-5.5522,-5.4693,-5.3922,-5.3203,-5.3203,-5.3203,-5.3203,-5.3203,-5.3203,-5.3203,-5.3203,-5.3203,-5.2873,-5.1279,-5.0802,-5.0435,-4.8783,-4.8306,-4.8306,-4.8306,-4.8453,-4.86,-4.86,-4.7976,-4.7296,-4.7149,-4.6599,-4.592,-4.5112,-4.4819,-4.4525,-4.3864,-4.3608,-4.3515,-4.3515,-4.3515,-4.3463,-4.3339,-4.256,-4.1725,-4.0955,-4.0803,-4.0552,-4.0163,-4.0113,-4.0319,-4.0874,-4.092,-4.1161,-4.1789,-4.2382,-4.2693,-4.2693,-4.3232,-4.3441,-4.324,-4.2537,-4.2213,-4.221,-4.0459,-3.9312,-7.2864,-7.4808,-7.5028,-7.1101,-6.5338,-5.9382,-5.4615,0.0,-4.3732,-4.2051,-4.181,-4.2021,-4.2537,-4.2727,-4.3734,-4.6634,-4.7223,-4.9571,-5.6014,-5.9612,-6.3135,-6.732,0.0,0.0,-7.2496,0.0,0.0,0.0,0.0,0.0,-6.7687,-6.7687,-6.765,-6.7577,-6.6109,-6.5264,-6.5191,-6.3587,-6.1998,-6.0419,-6.0419,-5.9575,-5.7997,-5.7997,-5.7997,-5.7997,0.0,0.0,0.0,-5.7152,-5.6345,-5.5522,-5.4693,-5.3922,-5.3203,-5.3203,-5.3203,-5.3203,-5.3203,-5.3203,-5.3203,-5.3203,-5.3203,-5.2873,-5.1279,-5.0802,-5.0435,-4.8783,-4.8306,-4.8306,-4.8306,-4.8893,-4.95,-4.95,-4.882,-4.7993,-4.7259,-4.7039,-4.6746,-4.5957,-4.5223,-4.4654,-4.4599,-4.3975,-4.3515,-4.3515,-4.3515,-4.3321,-4.2863,-4.2674,-4.22,-4.1001,-4.0456,-4.0129,-4.0113,-4.0113,-4.0319,-4.0874,-4.092,-4.1161,-4.1789,-4.2382,-4.2693,-4.2693,-4.3232,-4.313,-4.2396,-4.205,-4.149,-4.0784,-4.0272,-3.9661,-6.9986,-7.3081,-7.4404,-7.0367,-6.4494,-5.8372,-5.3411,0.0,-4.2736,-4.1105,-4.1036,-4.1429,-4.2041,-4.218,-4.2749,-4.462,-4.4525,0.0,-5.0986,-5.3665,-5.7483,-6.398,-6.721,0.0,0.0,0.0,0.0,0.0,0.0,0.0,-6.7687,-6.7687,-6.7687,-6.7687,-6.6145,-6.5301,-6.5301,-6.3172,-6.152,-6.0382,-5.9905,-5.9098,-5.7997,-5.7997,-5.7997,-5.7997,0.0,0.0,0.0,-5.7666,-5.6748,-5.5596,-5.5244,-5.4326,-5.3203,-5.3203,-5.3203,-5.3203,-5.3203,-5.3203,-5.3203,-5.3203,-5.3203,-5.2873,-5.1279,-5.1132,-5.1169,-4.9481,-4.904,-4.9187,-4.9664,-4.9701,-4.9463,-4.893,-4.8563,-4.8233,-4.7902,-4.781,-4.759,-4.6782,-4.6342,-4.5975,-4.5516,-4.4745,-4.4232,-4.4232,-4.3791,-4.3409,-4.3214,-4.292,-4.2537,-4.2021,-4.115,-4.0466,-4.0138,-4.0113,-4.0179,-4.0417,-4.0417,-4.0538,-4.0767,-4.166,-4.218,-4.218,-4.3032,-4.3314,-4.302,-4.2551,-4.2199,-4.1837,-4.1345,-4.0744,-6.5803,-6.9612,-7.1881,-6.8337,-6.2615,-5.6683,0.0,0.0,-4.1768,-4.0402,-4.0417,-4.0897,-4.166,-4.181,-4.2185,-4.3321,-4.302,-4.3975,-4.7792,-4.9958,-5.3628,0.0,0.0,0.0,0.0,0.0,0.0,0.0,0.0,0.0,0.0,-6.7467,-6.7357,-6.7357,-6.6035,-6.5081,-6.4567,-6.2585,-6.108,-6.0052,-5.9478,-5.8804,-5.7997,-5.7997,-5.7997,-5.7997,0.0,0.0,0.0,-5.7997,-5.7189,-5.5941,-5.5684,-5.4766,-5.3555,-5.3277,-5.3203,-5.3203,-5.3203,-5.3203,-5.3203,-5.3203,-5.3203,-5.2968,-5.1573,-5.1389,-5.1389,-5.0215,-4.9921,-5.0141,-5.0949,-5.0362,-4.95,-4.915,-4.8673,-4.8306,-4.8306,-4.8306,-4.8122,-4.7553,-4.7259,-4.6929,-4.6361,-4.5406,-4.4691,-4.4691,-4.4011,-4.3515,-4.3515,-4.3178,-4.2901,-4.2713,-4.1937,-4.1218,-4.0625,-4.0611,-4.0611,-4.0611,-4.0441,-4.0417,-4.0611,-4.1375,-4.1895,-4.2062,-4.3014,-4.3515,-4.3515,-4.2976,-4.2616,-4.2402,-4.181,-4.1257,-6.022,-6.4238,-6.7174,-6.4657,-5.935,-5.3993,-5.1002,-4.5422,-4.0756,-4.0204,-4.0113,-4.0441,-4.1595,-4.181,-4.2185,-4.3321,-4.3515,0.0,-4.7865,-5.0435,-5.3188,0.0,0.0,0.0,0.0,0.0,0.0,0.0,0.0,0.0,0.0,-6.6953,-6.6512,-6.6512,-6.5742,-6.4494,-6.2817,-6.1998,-6.0786,-5.9184,-5.9184,-5.8804,-5.7997,-5.7997,-5.7997,0.0,0.0,0.0,0.0,-5.7997,-5.7519,-5.6712,-5.5904,-5.5097,-5.4289,-5.3482,-5.3203,-5.3203,-5.3203,-5.3203,-5.3203,-5.3203,-5.3203,-5.3078,-5.2234,-5.1426,-5.0802,-5.0802,-5.0802,-5.0986,-5.1756,-5.0822,-4.9794,-5.0582,-4.9517,-4.8306,-4.8306,-4.8306,-4.8306,-4.8306,-4.7626,-4.7113,-4.7076,-4.5755,-4.4691,-4.4691,-4.4011,-4.3515,-4.3515,-4.3497,-4.3286,-4.2751,-4.2674,-4.2422,-4.1832,-4.1789,-4.1789,-4.1789,-4.1206,-4.1138,-4.1768,-4.181,-4.2062,-4.2674,-4.3214,-4.3515,-4.3515,-4.2976,-4.2382,-4.181,-4.1183,-4.092,-5.3943,-5.7121,-5.947,-5.755,-5.3937,-5.0246,-4.7769,-4.394,-4.0733,-4.0204,-4.0392,-4.0756,-4.1093,-4.1357,-4.1998,-4.3519,-4.409,0.0,0.0,0.0,0.0,0.0,0.0,0.0,0.0,0.0,0.0,0.0,0.0,0.0,0.0,-6.6623,-6.6512,-6.6512,-6.5191,-6.3943,-6.278,-6.1484,-6.0272,-5.9184,-5.8657,-5.8253,-5.7997,-5.7997,0.0,0.0,0.0,0.0,0.0,-5.7997,-5.7519,-5.6785,-5.6528,-5.5574,-5.4363,-5.4106,-5.3665,-5.3203,-5.3203,-5.3203,-5.3203,-5.3203,-5.3203,-5.313,-5.2894,-5.2637,-5.2234,-5.1132,-5.0802,-5.0582,-4.9701,-4.9517,-4.95,-4.9187,-4.871,-4.8306,-4.8306,-4.8306,-4.8306,-4.8306,-4.8086,-4.7939,-4.7939,-4.6581,-4.5516,-4.5516,-4.4378,-4.3515,-4.3515,-4.3515,-4.3409,-4.3268,-4.325,-4.2829,-4.1895,-4.181,-4.181,-4.181,-4.1639,-4.1617,-4.1789,-4.22,-4.2482,-4.2693,-4.3232,-4.3515,-4.3515,-4.2976,-4.2596,-4.2402,-4.2619,-4.2679,-4.8335,-5.1164,-5.3316,-5.2298,-4.9705,-4.7044,-4.566,-4.2881,-4.0552,-4.0441,-4.0431,-4.0584,-4.0994,-4.1002,-4.1359,-4.2649,-4.3377,0.0,0.0,0.0,0.0,0.0,0.0,0.0,0.0,0.0,0.0,0.0,0.0,0.0,0.0,-6.6219,-6.5925,-6.5595,-6.431,-6.3062,-6.1924,-6.0603,-5.9538,-5.8767,-5.8253,-5.7997,-5.7997,-5.7997,0.0,0.0,0.0,0.0,0.0,-5.7997,-5.7703,-5.7189,-5.6565,-5.5721,-5.4766,-5.4179,-5.3628,-5.3203,-5.3203,-5.3203,-5.3203,-5.3203,-5.3203,-5.3203,-5.3203,-5.3004,-5.2527,-5.1536,-5.1022,-5.0618,-4.9884,-4.9884,-4.9921,-4.937,-4.9003,-4.8783,-4.8783,-4.8526,-4.8306,-4.8306,-4.8306,-4.8306,-4.8306,-4.7241,-4.625,-4.5957,-4.4782,-4.3828,-4.3551,-4.3515,-4.3608,-4.3901,-4.3681,-4.3342,-4.2917,-4.2606,-4.2426,-4.2426,-4.2246,-4.2206,-4.2426,-4.2635,-4.2789,-4.3013,-4.3321,-4.3515,-4.3515,-4.2976,-4.2693,-4.2693,-4.305,-4.3196,0.0,-4.6227,-4.8355,-4.8355,-4.6323,-4.4293,-4.4212,-4.2018,0.0,-4.0595,-4.0124,-3.9953,-4.103,-4.0669,-4.0438,-4.1112,-4.1979,0.0,0.0,-4.926,0.0,0.0,0.0,0.0,0.0,0.0,0.0,0.0,0.0,0.0,0.0,0.0,-6.4861,-6.4016,-6.3099,-6.1924,-6.0419,-5.9588,-5.8804,-5.7997,-5.7997,-5.7997,-5.7997,-5.7997,0.0,0.0,0.0,0.0,0.0,-5.7997,-5.7997,-5.785,-5.6271,-5.5669,-5.539,-5.3849,-5.324,-5.3203,-5.3203,-5.3203,-5.3203,-5.3203,-5.3203,-5.3203,-5.3203,-5.2601,-5.1903,-5.1903,-5.1353,-5.0875,-5.1646,-5.1316,-5.0802,-5.0729,-5.0178,-4.9684,-4.961,-4.9003,-4.8453,-4.8416,-4.8379,-4.8379,-4.8306,-4.7626,-4.6856,-4.6104,-4.5296,-4.4525,-4.3772,-4.3662,-4.3938,-4.4709,-4.4085,-4.3901,-4.4745,-4.4011,-4.3515,-4.3515,-4.305,-4.2995,-4.3497,-4.3032,-4.3013,-4.3497,-4.3515,-4.3515,-4.3515,-4.3013,-4.2751,-4.2751,-4.2751,-4.2751,-4.0121,0.0,-4.2185,-4.2185,-4.169,-4.101,0.0,-3.9787,-3.9122,-3.869,-3.8769,-3.9039,-3.9514,-3.9964,-4.0778,-4.2302,0.0,0.0,0.0,0.0,0.0,0.0,0.0,0.0,0.0,0.0,0.0,0.0,0.0,0.0,0.0,0.0,-6.398,-6.3135,-6.1704,-6.0786,-6.0419,-5.9588,-5.8804,-5.7997,-5.7997,-5.7997,-5.7997,-5.7997,0.0,0.0,0.0,0.0,-5.7997,-5.7997,-5.7997,-5.7886,-5.6895,-5.6124,-5.5464,-5.4473,-5.3739,-5.3203,-5.3203,-5.3203,-5.3203,-5.3203,-5.3203,-5.3203,-5.3203,-5.2234,-5.1096,-5.1096,-5.0508,-4.9941,-5.0124,-5.0472,-5.0655,-5.0031,-5.0215,-5.0362,-4.9721,-4.9921,-5.0031,-4.9407,-4.9297,-4.9077,-4.8416,-4.7626,-4.7039,-4.6856,-4.614,-4.5553,-4.5369,-4.5333,-4.5406,-4.559,-4.4892,-4.4745,-4.5553,-4.4305,-4.3515,-4.3515,-4.3374,-4.3356,-4.3497,-4.3356,-4.3356,-4.3497,-4.3515,-4.3515,-4.3515,-4.3356,-4.3303,-4.3303,-4.3303,-4.3303,-3.8599,-3.9039,-3.9605,-3.9605,-3.9842,-3.991,-3.9174,-3.9005,-3.8865,-3.839,-3.8193,-3.8252,-3.8637,-3.9286,-4.0184,0.0,-4.3757,0.0,0.0,0.0,0.0,0.0,0.0,0.0,0.0,0.0,0.0,0.0,0.0,0.0,0.0,-6.3135,-6.2548,-6.1741,-6.0493,-6.0052,-6.0419,-5.9245,-5.8437,-5.7997,-5.7997,-5.7997,-5.7997,-5.7997,-5.7997,0.0,0.0,0.0,-5.796,-5.7593,-5.7666,-5.785,-5.6308,-5.5647,-5.5486,-5.4289,-5.3592,-5.3203,-5.3203,-5.3203,-5.3203,-5.3203,-5.3203,-5.3203,-5.3203,-5.2344,-5.1426,-5.1793,-5.1059,-5.0215,-5.0602,-5.1022,-5.1132,-5.0325,-5.0472,-5.0582,-4.9757,-4.9941,-5.0105,-4.9684,-4.961,-4.9463,-4.8967,-4.8196,-4.7516,-4.7149,-4.6709,-4.6324,-4.5957,-4.5883,-4.603,-4.6434,-4.5736,-4.559,-4.6397,-4.5296,-4.4452,-4.4085,-4.3681,-4.3515,-4.3515,-4.3515,-4.3515,-4.3515,-4.3864,-4.3864,-4.3515,-4.3864,-4.3864,-4.3515,-4.3515,-4.3515,-3.8058,-3.843,-3.8996,-3.8957,-3.9593,-4.0025,-3.9151,-3.9016,-3.899,-3.8491,-3.7867,-3.7559,-3.8219,-3.8878,0.0,0.0,0.0,0.0,0.0,0.0,0.0,0.0,0.0,0.0,0.0,0.0,0.0,0.0,0.0,0.0,0.0,-6.1777,0.0,-6.0419,-5.9625,-5.9515,-6.0236,-5.8731,-5.7997,-5.7997,-5.7997,-5.7997,-5.7997,-5.7997,-5.7997,0.0,0.0,0.0,-5.774,-5.6969,-5.7005,-5.7409,-5.5244,-5.4803,-5.5244,-5.3739,-5.3203,-5.3203,-5.3203,-5.3203,-5.3203,-5.3203,-5.3203,-5.3203,-5.3203,-5.2711,-5.2344,-5.3004,-5.2123,-5.1132,-5.183,-5.1977,-5.183,-5.1169,-5.0986,-5.0802,-5.0124,-5.0051,-5.0124,-4.9978,-4.9867,-4.9757,-4.961,-4.8893,-4.8086,-4.7369,-4.7259,-4.7039,-4.6361,-4.6287,-4.6544,-4.7223,-4.6581,-4.6434,-4.7223,-4.6434,-4.5627,-4.4949,-4.416,-4.3625,-4.3515,-4.3515,-4.3515,-4.3515,-4.4158,-4.4195,-4.3515,-4.4088,-4.4052,-4.3356,-4.3356,-4.3356,-3.7922,-3.843,-3.8957,-3.8723,-3.9721,-4.0435,-3.8974,-3.9169,-3.9181,-3.7433,-3.7001,-3.7126,-3.7842,-3.9384,-4.1207,0.0,0.0,0.0,0.0,0.0,0.0,0.0,0.0,0.0,0.0,0.0,0.0,0.0,0.0,0.0,0.0,0.0,-6.0529,-6.0419,-5.9625,-5.9258,-5.9368,-5.8474,-5.7997,-5.7997,-5.7997,-5.7997,-5.7997,-5.7997,-5.7997,0.0,0.0,-5.6969,-5.6932,-5.6124,-5.5868,-5.5868,-5.4803,-5.4473,-5.4473,-5.3555,-5.3203,-5.3203,-5.3203,-5.3203,-5.3203,-5.3203,-5.3203,-5.3203,-5.3203,-5.3115,-5.3041,-5.3167,-5.2527,-5.183,-5.1977,-5.1977,-5.1977,-5.183,-5.183,-5.1756,-5.1667,-5.216,-5.2454,-5.1756,-5.1059,-5.0398,-4.9721,-4.8893,-4.8269,-4.8122,-4.8122,-4.8086,-4.7939,-4.7939,-4.7976,-4.8122,-4.7406,-4.7223,-4.8049,-4.6764,-4.5918,-4.5956,-4.5039,-4.4195,-4.3551,-4.3515,-4.3515,-4.3515,-4.3608,-4.3608,-4.3515,-4.3159,-4.2953,-4.2808,-4.2808,-4.2808,-3.6884,-3.7516,-3.8438,-3.8594,-4.01,-4.1233,-4.0022,-4.0003,-3.9904,-3.8585,-3.8299,-3.8542,-3.9329,0.0,-4.4592,-4.8996,0.0,0.0,0.0,0.0,0.0,0.0,0.0,0.0,0.0,0.0,0.0,0.0,0.0,0.0,0.0,0.0,-5.9098,-5.9098,-5.8731,-5.8547,-5.8547,-5.818,-5.7997,-5.7997,-5.7997,-5.7997,-5.7997,-5.7997,-5.7776,-5.7336,0.0,-5.6565,-5.6088,-5.528,-5.5207,-5.5464,-5.4252,-5.4032,-5.4289,-5.3518,-5.3203,-5.3203,-5.3203,-5.3203,-5.3203,-5.3203,-5.3203,-5.3203,-5.3203,-5.3203,-5.3203,-5.3203,-5.2931,-5.2637,-5.2637,-5.2637,-5.2527,-5.2087,-5.1977,-5.1867,-5.1463,-5.1977,-5.2454,-5.205,-5.1683,-5.1169,-5.0398,-4.9554,-4.882,-4.8379,-4.8306,-4.8306,-4.8306,-4.8306,-4.8306,-4.8306,-4.7957,-4.7883,-4.8269,-4.7609,-4.6872,-4.6093,-4.5307,-4.4819,-4.4819,-4.4378,-4.4342,-4.4782,-4.4782,-4.4656,-4.4305,-4.4816,-4.4447,-4.3323,-4.3612,-4.3543,-3.6265,-3.6932,-3.8218,-3.872,-4.0378,-4.1777,-4.1556,-4.1676,-4.1711,-4.1372,-4.1138,-4.1202,-4.178,-4.4169,0.0,-5.3506,0.0,0.0,0.0,0.0,0.0,0.0,0.0,0.0,0.0,0.0,0.0,0.0,0.0,0.0,0.0,0.0,-5.7997,-5.7997,-5.7997,-5.7997,-5.7997,-5.7997,-5.7997,-5.7997,-5.7997,-5.7997,-5.7997,-5.7813,-5.7373,-5.6785,-5.6418,-5.5904,-5.5244,-5.4436,-5.4473,-5.4913,-5.3702,-5.3592,-5.4032,-5.3424,-5.3203,-5.3203,-5.3203,-5.3203,-5.3203,-5.3203,-5.3203,-5.3203,-5.3203,-5.3203,-5.3203,-5.3203,-5.3203,-5.3203,-5.3203,-5.3078,-5.2821,-5.238,-5.2123,-5.1867,-5.1463,-5.1867,-5.227,-5.227,-5.2123,-5.172,-5.0949,-5.0105,-4.9317,-4.8416,-4.8306,-4.8306,-4.8306,-4.8306,-4.8306,-4.8306,-4.8306,-4.8379,-4.86,-4.83,-4.7694,-4.6838,-4.5665,-4.526,-4.5865,-4.5296,-4.5259,-4.5883,-4.5883,-4.5662,-4.522,-4.6168,-4.5763,-4.4117,-4.458,-4.4474,-3.6931,-3.7627,-3.8753,-3.9512,-4.0366,-4.152,-4.3489,-4.4541,-4.5292,-4.6095,-4.5749,-4.525,-4.5181,-4.7003,-4.9853,-5.3749,0.0,0.0,0.0,0.0,0.0,0.0,0.0,0.0,0.0,0.0,0.0,0.0,0.0,0.0,0.0,0.0,0.0,-5.7997,-5.7997,-5.7997,-5.7997,-5.7997,-5.7997,-5.7997,-5.7997,-5.7997,-5.796,-5.7226,-5.6859,-5.6712,-5.5207,-5.4546,-5.4436,-5.3628,-5.3314,-5.3371,-5.324,-5.3261,-5.3277,-5.3203,-5.3203,-5.3203,-5.3203,-5.3203,-5.3203,-5.3203,-5.3203,-5.3203,-5.3203,-5.3203,-5.3203,-5.3203,-5.3203,-5.3203,-5.3203,-5.2637,-5.227,-5.2968,-5.2527,-5.2197,-5.2894,-5.3057,-5.3115,-5.3115,-5.2527,-5.172,-5.0949,-5.0105,-4.9317,-4.8416,-4.8306,-4.8306,-4.8306,-4.8306,-4.8306,-4.8306,-4.8306,-4.8636,-4.9463,-4.8234,-4.8006,-4.9241,-4.661,-4.526,-4.5865,-4.5847,-4.5847,-4.5883,-4.5883,-4.5865,-4.5828,-4.543,-4.5176,-4.5028,-4.5068,-4.5052,-3.64,-3.7409,-3.8901,-3.9232,-4.0476,-4.2181,-4.4268,-4.5749,-4.69,-4.763,-4.8366,-4.8877,-4.8826,0.0,-5.3072,0.0,0.0,0.0,0.0,0.0,0.0,0.0,0.0,0.0,0.0,0.0,0.0,0.0,0.0,0.0,0.0,0.0,0.0,-5.7997,-5.7997,-5.7997,-5.7997,-5.7483,-5.7262,-5.7262,-5.7776,-5.7997,-5.796,-5.7189,-5.6528,-5.5978,-5.4876,-5.4106,-5.3628,-5.3335,-5.3203,-5.3203,-5.3203,-5.3203,-5.3203,-5.3203,-5.3203,-5.3203,-5.3203,-5.3203,-5.3203,-5.3203,-5.3203,-5.3203,-5.3203,-5.3203,-5.3203,-5.3203,-5.3203,-5.3203,-5.3203,-5.2968,-5.2821,-5.3151,-5.2968,-5.2821,-5.3151,-5.3203,-5.3203,-5.3203,-5.2968,-5.2344,-5.1022,-5.0545,-5.0031,-4.9187,-4.9077,-4.9114,-4.9114,-4.9114,-4.8893,-4.8379,-4.8783,-4.9243,-4.9574,-4.9195,-4.9328,-5.0305,-4.7918,-4.6767,-4.7369,-4.6911,-4.6874,-4.7388,-4.6892,-4.6705,-4.6828,-4.7024,-4.6633,-4.5781,-4.6161,-4.6097,-3.5915,-3.6786,-3.8197,-3.8831,-4.0377,-4.2479,-4.5326,-4.7169,-4.8792,-5.0689,-5.1323,-5.149,-5.1261,0.0,0.0,0.0,0.0,0.0,0.0,0.0,0.0,0.0,0.0,0.0,0.0,0.0,0.0,0.0,0.0,0.0,0.0,0.0,0.0,0.0,-5.7226,-5.7226,-5.7226,-5.6712,-5.6418,-5.6418,-5.6969,-5.7373,-5.7593,-5.6528,-5.5868,-5.5559,-5.4473,-5.3702,-5.3203,-5.3203,-5.3203,-5.3203,-5.3203,-5.3203,-5.3203,-5.3203,-5.3203,-5.3203,-5.3203,-5.3203,-5.3203,-5.3203,-5.3203,-5.3203,-5.3203,-5.3203,-5.3203,-5.3203,-5.3203,-5.3203,-5.3203,-5.3203,-5.3203,-5.3203,-5.3203,-5.3203,-5.3203,-5.3203,-5.3203,-5.3203,-5.3203,-5.2763,-5.1426,-5.0986,-5.0618,-4.9994,-4.9738,-4.9684,-4.9941,-4.9978,-4.9738,-4.915,-4.9627,-5.0088,-5.0345,-5.0216,-5.0429,-5.1149,-4.9487,-4.8514,-4.869,-4.7939,-4.7736,-4.8306,-4.7736,-4.7526,-4.7695,-4.8094,-4.7782,-4.6876,-4.729,-4.7205,-3.5756,-3.5745,-3.6424,-3.8512,-3.9977,-4.2177,-4.6864,-4.8942,-5.1202,-5.5836,-5.4875,-5.299,-5.2269,-5.2042,0.0,0.0,0.0,0.0,0.0,0.0,0.0,0.0,0.0,0.0,0.0,0.0,0.0,0.0,0.0,0.0,0.0,0.0,0.0,0.0,-5.5596,-5.5596,-5.5596,-5.5574,-5.5574,-5.5574,-5.5596,-5.5978,-5.6748,-5.5133,-5.484,-5.55,-5.3922,-5.3203,-5.3203,-5.3203,-5.3203,-5.3203,-5.3203,-5.3203,-5.3203,-5.3203,-5.3203,-5.3203,-5.3203,-5.3203,-5.3203,-5.3203,-5.3203,-5.3203,-5.3203,-5.3203,-5.3203,-5.3203,-5.3203,-5.3203,-5.3203,-5.3203,-5.3203,-5.3203,-5.3203,-5.3203,-5.3203,-5.3203,-5.3203,-5.3203,-5.3203,-5.2931,-5.2123,-5.1353,-5.0802,-5.0802,-5.0105,-4.9904,-5.0729,-5.0802,-5.0802,-5.0802,-5.0802,-5.1132,-5.194,-5.1279,-5.1169,-5.194,-5.1242,-5.0435,-4.9647,-4.8783,-4.8343,-4.8343,-4.8343,-4.8306,-4.8306,-4.8306,-4.8306,-4.8306,-4.8306,-4.8306,-3.6251,-3.6963,-3.8314,-4.0491,-4.2426,-4.4914,-4.9231,-5.059,-5.1861,-5.5319,-5.4535,-5.3156,-5.296,-5.2927,0.0,0.0,0.0,0.0,0.0,0.0,0.0,0.0,0.0,0.0,0.0,0.0,0.0,0.0,0.0,0.0,0.0,0.0,0.0,0.0,-5.5596,-5.5596,-5.5596,-5.5023,-5.4766,-5.473,-5.4179,-5.462,-5.5904,-5.4876,-5.4509,-5.4693,-5.3665,-5.3203,-5.3203,-5.3203,-5.3203,-5.3203,-5.3203,-5.3203,-5.3203,-5.3203,-5.3203,-5.3203,-5.3203,-5.3203,-5.3203,-5.3203,-5.3203,-5.3203,-5.3203,-5.3203,-5.3203,-5.3203,-5.3203,-5.3203,-5.3203,-5.3203,-5.3203,-5.3203,-5.3203,-5.3203,-5.3203,-5.3203,-5.3203,-5.3203,-5.3203,-5.2931,-5.2123,-5.1793,-5.1646,-5.1646,-5.1426,-5.1353,-5.161,-5.0655,-5.0178,-5.0729,-5.1316,-5.172,-5.1977,-5.2307,-5.2601,-5.2821,-5.2087,-5.1279,-5.0472,-5.0215,-5.0068,-5.0068,-4.9481,-4.9206,-4.9206,-4.86,-4.8306,-4.8306,-4.893,-4.8893,-3.6707,-3.7408,-3.874,-4.2038,-4.4319,-4.6825,-5.1095,-5.2588,-5.3542,-5.5313,-5.4398,-5.3478,-5.4127,-5.3708,0.0,0.0,0.0,0.0,0.0,0.0,0.0,0.0,0.0,0.0,0.0,0.0,0.0,0.0,0.0,0.0,0.0,0.0,0.0,0.0,-5.4656,-5.4656,-5.4656,-5.4179,-5.3922,-5.3922,-5.3424,-5.3702,-5.462,-5.4142,-5.4106,-5.4363,-5.3555,-5.3203,-5.3203,-5.3203,-5.3203,-5.3203,-5.3203,-5.3203,-5.3203,-5.3203,-5.3203,-5.3203,-5.3203,-5.3203,-5.3203,-5.3203,-5.3203,-5.3203,-5.3203,-5.3203,-5.3203,-5.3203,-5.3203,-5.3203,-5.3203,-5.3203,-5.3203,-5.3203,-5.3203,-5.3203,-5.3203,-5.3203,-5.3203,-5.3203,-5.3203,-5.3078,-5.2564,-5.2197,-5.2087,-5.2417,-5.2491,-5.2491,-5.2491,-5.161,-5.1206,-5.172,-5.2197,-5.2491,-5.2491,-5.2931,-5.3203,-5.3203,-5.2747,-5.227,-5.1793,-5.1132,-5.0802,-5.0802,-5.0325,-4.9941,-4.961,-4.937,-4.915,-4.882,-4.9353,-4.9317,-3.7047,-3.7426,-3.84,-4.3284,-4.5996,-4.8566,-5.2486,-5.4545,-5.5591,-5.5536,0.0,-5.3868,-5.5355,0.0,0.0,0.0,0.0,0.0,0.0,0.0,0.0,0.0,0.0,0.0,0.0,0.0,0.0,0.0,0.0,0.0,0.0,0.0,0.0,0.0,-5.3151,-5.3151,-5.3203,-5.3203,-5.3203,0.0,-5.3203,-5.3203,-5.3203,-5.3203,-5.3592,-5.4252,-5.3518,-5.3203,-5.3203,-5.3203,-5.3203,-5.3203,-5.3203,-5.3203,-5.3203,-5.3203,-5.3203,-5.3203,-5.3203,-5.3203,-5.3203,-5.3203,-5.3203,-5.3203,-5.3203,-5.3203,-5.3203,-5.3203,-5.3203,-5.3203,-5.3203,-5.3203,-5.3203,-5.3203,-5.3203,-5.3203,-5.3203,-5.3203,-5.3203,-5.3203,-5.3203,-5.3203,-5.3203,-5.2601,-5.2344,-5.3115,-5.3151,-5.3093,-5.3167,-5.3151,-5.313,-5.3277,-5.3261,-5.3203,-5.3298,-5.3261,-5.3203,-5.3203,-5.3203,-5.3203,-5.3203,-5.1793,-5.1022,-5.1022,-5.0949,-5.0545,-4.9831,-5.0472,-5.0398,-4.9721,-4.9794,-4.9794,-3.699,-3.8298,-4.0243,-4.48,-4.9414,-5.2958,-5.3378,-5.4193,-5.4637,-5.4027,-5.4113,-5.4422,0.0,0.0,0.0,0.0,0.0,0.0,0.0,0.0,0.0,0.0,0.0,0.0,0.0,0.0,0.0,0.0,0.0,0.0,0.0,0.0,0.0,-5.3167,-5.2601,-5.2564,-5.3167,-5.3203,-5.3203,0.0,-5.3203,-5.3203,-5.3203,-5.3203,-5.3277,-5.3445,-5.3277,-5.3203,-5.3203,-5.3203,-5.3203,-5.3203,-5.3203,-5.3203,-5.3203,-5.3203,-5.3203,-5.3203,-5.3203,-5.3203,-5.3203,-5.3203,-5.3203,-5.3203,-5.3203,-5.3203,-5.3203,-5.3203,-5.3203,-5.3203,-5.3203,-5.3203,-5.3203,-5.3203,-5.3203,-5.3203,-5.3203,-5.3203,-5.3203,-5.3203,-5.3203,-5.3203,-5.3203,-5.3078,-5.3004,-5.3167,-5.2674,-5.2491,-5.3093,-5.2637,-5.2747,-5.3995,-5.3592,-5.3482,-5.4106,-5.3555,-5.3203,-5.3203,-5.3203,-5.3203,-5.3203,-5.2873,-5.2653,-5.2653,-5.205,-5.1646,-5.1463,-5.1022,-5.0729,-5.0545,-5.1169,-5.1132,-3.7495,-3.8837,-4.1012,-4.6745,-5.0834,-5.3503,-5.3481,-5.3775,-5.3806,-5.3043,-5.3504,0.0,0.0,0.0,0.0,0.0,0.0,0.0,0.0,0.0,0.0,0.0,0.0,0.0,0.0,0.0,0.0,0.0,0.0,0.0,0.0,-5.2454,-5.2197,-5.2601,-5.2197,-5.2197,-5.2637,-5.2637,-5.2821,-5.3203,-5.2821,-5.2821,-5.3203,-5.3203,-5.3203,-5.3203,-5.3203,-5.3203,-5.3203,-5.3203,-5.3203,-5.3203,-5.3203,-5.2968,-5.2674,-5.3078,-5.2968,-5.2674,-5.3078,-5.3203,-5.3203,-5.3203,-5.3203,-5.3203,-5.3203,-5.3203,-5.3203,-5.3203,-5.3203,-5.3203,-5.3203,-5.3203,-5.3203,-5.3203,-5.3203,-5.3203,-5.3203,-5.3203,-5.3203,-5.3203,-5.3203,-5.3203,-5.3203,-5.3203,-5.3203,-5.3203,-5.3188,-5.3298,-5.3739,-5.3739,-5.4032,-5.4876,-5.4583,-5.4509,-5.495,-5.4252,-5.3775,-5.3775,-5.3408,-5.3203,-5.3203,-5.3203,-5.3203,-5.3203,-5.2784,-5.238,-5.1977,-5.1977,-5.1756,-5.1389,-5.1793,-5.1756,-3.7763,-3.9273,-4.1822,-4.829,-5.1157,-5.2526,-5.3177,-5.3436,-5.3395,-5.2637,0.0,0.0,0.0,0.0,0.0,0.0,0.0,0.0,0.0,0.0,0.0,0.0,0.0,0.0,0.0,0.0,0.0,0.0,0.0,0.0,-5.3004,-5.2234,-5.1793,-5.1793,-5.1667,-5.1646,-5.1793,-5.1793,-5.2123,-5.2784,-5.2234,-5.2344,-5.3004,-5.3004,-5.3004,-5.3004,-5.3004,-5.2931,-5.2784,-5.2784,-5.2894,-5.3004,-5.3004,-5.2674,-5.227,-5.2968,-5.2784,-5.2307,-5.2968,-5.3203,-5.3203,-5.3203,-5.3203,-5.3203,-5.3203,-5.3203,-5.3203,-5.3203,-5.3203,-5.3203,-5.3203,-5.3203,-5.3203,-5.3203,-5.3203,-5.3203,-5.3203,-5.3203,-5.3203,-5.3203,-5.3203,-5.3203,-5.3203,-5.3314,-5.3408,-5.3408,-5.4106,-5.462,-5.462,-5.517,-5.5669,-5.5794,-5.5706,-5.5669,-5.5794,-5.506,-5.462,-5.462,-5.3995,-5.3628,-5.3628,-5.3628,-5.3628,-5.3628,-5.3314,-5.2858,-5.2197,-5.2894,-5.2858,-5.2197,-5.2197,-5.2197,-3.6605,-3.9908,-4.3868,-4.8035,-5.069,-5.2345,0.0,0.0,-5.4143,0.0,0.0,0.0,0.0,0.0,0.0,0.0,0.0,0.0,0.0,0.0,0.0,0.0,0.0,0.0,0.0,0.0,0.0,0.0,0.0,0.0,-5.2197,-5.1389,-5.0949,-5.0949,-5.0288,-5.0271,-5.0949,-5.0949,-5.1022,-5.1132,-5.172,-5.205,-5.216,-5.216,-5.216,-5.216,-5.216,-5.1756,-5.1132,-5.1132,-5.1536,-5.216,-5.216,-5.2527,-5.3078,-5.3188,-5.3151,-5.3078,-5.3188,-5.3203,-5.3203,-5.3203,-5.3203,-5.3203,-5.3203,-5.3203,-5.3203,-5.3203,-5.3203,-5.3203,-5.3203,-5.3203,-5.3203,-5.3203,-5.3203,-5.3203,-5.3203,-5.3203,-5.3203,-5.3203,-5.3203,-5.3203,-5.3203,-5.3775,-5.4252,-5.4252,-5.4913,-5.5427,-5.5427,-5.5537,-5.5868,-5.6565,-5.6014,-5.5868,-5.6602,-5.5904,-5.5427,-5.5427,-5.5317,-5.528,-5.528,-5.528,-5.528,-5.528,-5.3922,-5.313,-5.3041,-5.313,-5.313,-5.3041,-5.3041,-5.3041,-3.7483,-3.9749,-4.237,-4.5657,-4.75,-4.8625,-4.909,-5.0309,-5.1119,0.0,0.0,0.0,0.0,0.0,0.0,0.0,0.0,0.0,0.0,0.0,0.0,0.0,0.0,0.0,0.0,0.0,0.0,0.0,0.0,-5.172,-5.1353,-5.0222,-4.958,-4.958,-4.9216,-4.9216,-4.9543,-4.9927,-5.0105,-5.0068,-5.0912,-5.1316,-5.1316,-5.1316,-5.1573,-5.1977,-5.1499,-5.1132,-5.0802,-5.0802,-5.1022,-5.1353,-5.183,-5.194,-5.1977,-5.2873,-5.2931,-5.2601,-5.3041,-5.3203,-5.3203,-5.3203,-5.3203,-5.3203,-5.3203,-5.3203,-5.3203,-5.3203,-5.3203,-5.3203,-5.3203,-5.3203,-5.3203,-5.3203,-5.3203,-5.3203,-5.3203,-5.3203,-5.3203,-5.3203,-5.3203,-5.3314,-5.3812,-5.4179,-5.4546,-5.4987,-5.5757,-5.6271,-5.6271,-5.6675,-5.7079,-5.7446,-5.7152,-5.7079,-5.7446,-5.6748,-5.6271,-5.6271,-5.5831,-5.5596,-5.5596,-5.5596,-5.5596,-5.5596,-5.4913,-5.4546,-5.4546,-5.4106,-5.3885,-5.3849,-5.3408,-5.3203,-3.7686,-3.8802,-4.0163,-4.2788,-4.4191,-4.5209,0.0,0.0,0.0,0.0,0.0,0.0,0.0,0.0,0.0,0.0,0.0,0.0,0.0,0.0,0.0,0.0,0.0,0.0,0.0,0.0,0.0,0.0,0.0,-5.0451,-5.0232,-4.9176,-4.8438,-4.803,-4.7873,-4.7765,-4.7765,-4.8416,-4.8826,-4.8989,-5.0008,-5.0508,-5.0508,-5.0508,-5.0802,-5.1373,-5.0765,-5.0508,-5.0508,-5.0508,-5.0729,-5.1132,-5.1536,-5.1463,-5.1242,-5.2454,-5.2527,-5.2123,-5.2931,-5.3203,-5.3203,-5.3203,-5.3203,-5.3203,-5.3203,-5.3203,-5.3203,-5.3203,-5.3203,-5.3203,-5.3203,-5.3203,-5.3203,-5.3203,-5.3203,-5.3203,-5.3203,-5.3203,-5.3203,-5.3203,-5.3203,-5.3482,-5.4252,-5.4583,-5.4987,-5.5757,-5.6602,-5.7116,-5.7116,-5.7629,-5.7997,-5.7997,-5.7997,-5.7997,-5.7997,-5.7446,-5.7116,-5.7116,-5.6528,-5.6198,-5.6198,-5.6198,-5.6198,-5.6198,-5.6198,-5.6037,-5.5596,-5.4987,-5.4693,-5.4693,-5.4106,-5.3702,-3.5735,-3.685,-3.836,-3.9858,-4.1893,-4.3847,0.0,0.0,0.0,0.0,0.0,0.0,0.0,0.0,0.0,0.0,0.0,0.0,0.0,0.0,0.0,0.0,0.0,0.0,0.0,0.0,0.0,0.0,0.0,-4.9531,-4.875,-4.8634,-4.7972,-4.6566,-4.5845,-4.5478,-4.5478,-4.6148,-4.6819,-4.7521,-4.8969,-4.9647,-4.9647,-4.9647,-4.9684,-4.9721,-4.9684,-4.9647,-4.9647,-4.9647,-5.0565,-5.1867,-5.1132,-5.1316,-5.194,-5.2013,-5.2013,-5.2123,-5.2931,-5.3203,-5.3203,-5.3203,-5.3203,-5.3203,-5.3203,-5.3203,-5.3203,-5.3203,-5.3203,-5.3203,-5.3203,-5.3203,-5.3203,-5.3203,-5.3203,-5.3203,-5.3203,-5.3203,-5.3203,-5.3203,-5.3203,-5.3482,-5.4252,-5.5023,-5.5794,-5.6638,-5.7409,-5.7923,-5.7923,-5.796,-5.7997,-5.7997,-5.7997,-5.7997,-5.7997,-5.796,-5.7923,-5.7923,-5.7886,-5.7886,-5.7886,-5.7886,-5.7886,-5.7886,-5.7886,-5.7116,-5.5596,-5.5537,-5.5559,-5.5559,-5.5486,-5.506,-3.6231,-3.64,-3.6785,-3.8276,-3.9549,-4.0596,-4.1125,0.0,0.0,0.0,0.0,0.0,0.0,0.0,0.0,0.0,0.0,0.0,0.0,0.0,0.0,0.0,0.0,0.0,0.0,0.0,0.0,0.0,0.0,0.0,-4.7166,-4.5917,-4.5187,-4.5131,-4.4397,-4.4191,-4.4604,-4.5731,-4.6437,-4.6705,-4.8108,-4.8783,-4.8783,-4.8783,-4.8783,-4.8783,-4.8783,-4.8783,-4.8783,-4.8783,-4.9114,-4.9664,-4.9921,-5.0235,-5.0602,-5.161,-5.1977,-5.2123,-5.2931,-5.3203,-5.3203,-5.3203,-5.3203,-5.3203,-5.3203,-5.3203,-5.3203,-5.3203,-5.3203,-5.3203,-5.3203,-5.3203,-5.3203,-5.3203,-5.3592,-5.3959,-5.3959,-5.3959,-5.3959,-5.3959,-5.4399,-5.4987,-5.5794,-5.6198,-5.6638,-5.7446,-5.7813,-5.7997,-5.7997,-5.7997,-5.7997,-5.7997,-5.7997,-5.7997,-5.7997,-5.7997,-5.7997,-5.7997,-5.7997,-5.7997,-5.7997,-5.7997,-5.7997,-5.7997,-5.7997,-5.7703,-5.7152,-5.6602,-5.6381,-5.6345,-5.5831,-5.5427,-3.6265,-3.6028,-3.5904,0.0,-3.7615,-3.7873,-3.8424,0.0,0.0,0.0,0.0,0.0,0.0,0.0,0.0,0.0,0.0,0.0,0.0,0.0,0.0,0.0,0.0,0.0,0.0,0.0,0.0,0.0,0.0,0.0,-4.5328,-4.4056,-4.3296,-4.3347,-4.284,-4.2787,-4.3208,-4.4604,-4.5537,-4.5982,-4.7336,-4.8094,-4.8306,-4.8306,-4.8306,-4.8306,-4.8306,-4.8636,-4.9114,-4.8857,-4.904,-4.9554,-4.9574,-4.961,-4.9757,-5.1096,-5.161,-5.1756,-5.2821,-5.3203,-5.3203,-5.3203,-5.3203,-5.3203,-5.3203,-5.3203,-5.3203,-5.3203,-5.3203,-5.3203,-5.3203,-5.3203,-5.3203,-5.3203,-5.3812,-5.4399,-5.4399,-5.462,-5.4803,-5.4803,-5.5207,-5.5868,-5.6675,-5.6822,-5.7079,-5.7886,-5.7997,-5.7997,-5.7997,-5.7997,-5.7997,-5.7997,-5.7997,-5.7997,-5.7997,-5.7997,-5.7997,-5.7997,-5.7997,-5.7997,-5.7997,-5.7997,-5.7997,-5.7997,-5.7997,-5.7997,-5.7997,-5.7446,-5.7189,-5.7189,-5.6638,-5.6235,0.0,0.0,0.0,-3.6592,0.0,0.0,-3.7232,0.0,0.0,0.0,0.0,0.0,0.0,0.0,0.0,0.0,0.0,0.0,0.0,0.0,0.0,0.0,0.0,0.0,0.0,0.0,0.0,0.0,0.0,-4.3232,-4.3266,-4.3232,-4.2624,-4.123,-4.117,-4.117,-4.117,-4.2565,-4.3978,-4.5255,-4.6715,-4.7715,-4.8306,-4.8306,-4.8306,-4.8306,-4.8306,-4.926,-5.0692,-4.9884,-5.0492,-5.172,-5.0161,-4.9574,-4.9647,-5.0472,-5.0802,-5.1022,-5.2637,-5.3203,-5.3203,-5.3203,-5.3203,-5.3203,-5.3203,-5.3203,-5.3203,-5.3203,-5.3203,-5.3203,-5.3203,-5.3203,-5.3203,-5.3203,-5.3849,-5.4436,-5.4473,-5.5097,-5.5669,-5.5647,-5.5669,-5.5904,-5.6712,-5.6859,-5.7116,-5.7886,-5.7997,-5.7997,-5.7997,-5.7997,-5.7997,-5.7997,-5.7997,-5.7997,-5.7997,-5.7997,-5.7997,-5.7997,-5.7997,-5.7997,-5.7997,-5.7997,-5.7997,-5.7997,-5.7997,-5.7997,-5.7997,-5.7997,-5.7997,-5.7997,-5.7997,-5.7593,-3.5769,0.0,0.0,0.0,0.0,0.0,-3.6082,-3.6791,0.0,0.0,0.0,0.0,0.0,0.0,0.0,0.0,0.0,0.0,0.0,0.0,0.0,0.0,0.0,0.0,0.0,0.0,0.0,0.0,-4.1784,-4.2023,-4.2534,-4.2091,-4.1342,-4.0451,-4.0417,-4.0417,-4.0417,-4.2349,-4.3698,-4.4533,-4.6464,-4.7715,-4.8306,-4.8306,-4.8306,-4.8306,-4.8306,-4.893,-4.9867,-4.9003,-4.893,-4.9297,-4.882,-4.8673,-4.882,-5.0288,-5.0802,-5.1022,-5.2637,-5.3203,-5.3203,-5.3203,-5.3203,-5.3203,-5.3203,-5.3203,-5.3203,-5.3203,-5.3203,-5.3203,-5.3203,-5.3203,-5.3371,-5.3922,-5.4693,-5.5427,-5.6014,-5.6785,-5.7152,-5.6565,-5.6932,-5.7409,-5.7629,-5.7666,-5.774,-5.796,-5.7997,-5.7997,-5.7997,-5.7997,-5.7997,-5.7997,-5.7997,-5.7997,-5.7997,-5.7997,-5.7997,-5.7997,-5.7997,-5.7997,-5.7997,-5.7997,-5.7997,-5.7997,-5.7997,-5.7997,-5.7997,-5.7997,-5.7997,-5.7997,-5.7997,-5.7886,-3.6681,-3.6907,-3.7144,-3.6705,0.0,0.0,-3.5216,-3.5284,-3.5179,0.0,0.0,0.0,0.0,0.0,0.0,0.0,0.0,0.0,0.0,0.0,0.0,0.0,0.0,0.0,0.0,0.0,0.0,-4.0764,-4.073,-4.0933,-4.1339,-4.0967,-4.0527,-4.0113,-4.0113,-4.0113,-4.0113,-4.1638,-4.2732,-4.3393,-4.5503,-4.6678,-4.699,-4.788,-4.8122,-4.781,-4.8159,-4.86,-4.9003,-4.8526,-4.8526,-4.882,-4.8453,-4.8306,-4.8489,-5.0178,-5.0802,-5.1022,-5.2637,-5.3203,-5.3203,-5.3203,-5.3203,-5.3203,-5.3203,-5.3203,-5.3203,-5.3203,-5.3203,-5.3277,-5.3628,-5.3702,-5.3922,-5.4693,-5.55,-5.6235,-5.6712,-5.7446,-5.785,-5.7409,-5.7666,-5.7997,-5.7997,-5.7997,-5.7997,-5.7997,-5.7997,-5.7997,-5.7997,-5.7997,-5.7997,-5.7997,-5.7997,-5.7997,-5.7997,-5.7997,-5.7997,-5.7997,-5.7997,-5.7997,-5.7997,-5.7997,-5.7997,-5.7997,-5.7997,-5.7997,-5.7997,-5.7997,-5.7997,-5.7997,-5.7997,-5.7997,-3.7922,-3.7956,-3.8024,0.0,0.0,0.0,-3.4912,-3.3681,-3.2632,0.0,0.0,0.0,0.0,0.0,0.0,0.0,0.0,0.0,0.0,0.0,0.0,0.0,0.0,0.0,0.0,-4.0113,-4.0113,-4.0113,-4.0113,-4.0113,-4.0113,-4.0113,-4.0113,-4.0113,-4.0113,-4.0113,-4.0113,-4.0832,-4.1528,-4.2204,-4.4237,-4.5161,-4.5199,-4.7282,-4.7806,-4.7184,-4.7937,-4.8306,-4.8306,-4.8306,-4.8746,-4.939,-4.86,-4.8306,-4.8489,-5.0178,-5.0802,-5.1022,-5.2637,-5.3203,-5.3203,-5.3203,-5.3203,-5.3203,-5.3203,-5.3203,-5.3203,-5.3203,-5.3203,-5.3408,-5.4179,-5.4399,-5.462,-5.55,-5.6271,-5.6822,-5.6932,-5.7483,-5.7997,-5.7997,-5.7997,-5.7997,-5.7997,-5.7997,-5.7997,-5.7997,-5.7997,-5.7997,-5.7997,-5.7997,-5.7997,-5.7997,-5.7997,-5.7997,-5.7997,-5.7997,-5.7997,-5.7997,-5.7997,-5.7997,-5.7997,-5.7997,-5.7997,-5.7997,-5.7997,-5.7997,-5.7997,-5.8107,-5.8107,-5.7997,-5.7997,-5.7997,0.0,0.0,0.0,0.0,0.0,0.0,-3.6524,-3.5622,-3.4641,0.0,0.0,0.0,0.0,0.0,0.0,0.0,0.0,0.0,0.0,0.0,0.0,0.0,0.0,0.0,0.0,-4.0113,-4.0113,-4.0113,-4.0113,-4.0113,-4.0113,-4.0113,-4.0113,-4.0113,-4.0113,-4.0113,-4.0113,-4.0832,-4.1528,-4.2239,-4.3819,-4.4834,-4.5316,-4.6888,-4.7482,-4.7358,-4.8002,-4.8306,-4.8306,-4.8306,-4.8416,-4.8526,-4.8379,-4.8306,-4.8489,-5.0178,-5.0802,-5.1022,-5.2637,-5.3203,-5.3203,-5.3203,-5.3203,-5.3203,-5.3203,-5.3203,-5.3203,-5.3203,-5.3203,-5.3408,-5.4179,-5.4399,-5.4766,-5.6235,-5.6712,-5.6969,-5.7629,-5.7886,-5.7997,-5.7997,-5.7997,-5.7997,-5.7997,-5.7997,-5.7997,-5.7997,-5.7997,-5.7997,-5.7997,-5.7997,-5.7997,-5.7997,-5.7997,-5.7997,-5.7997,-5.7997,-5.7997,-5.7997,-5.7997,-5.7997,-5.7997,-5.7997,-5.7997,-5.7997,-5.7997,-5.7997,-5.7997,-5.8657,-5.8621,-5.7997,-5.7997,-5.7997,0.0,0.0,0.0,-3.8633,0.0,0.0,0.0,-3.5893,-3.516,0.0,0.0,0.0,0.0,0.0,0.0,0.0,0.0,0.0,0.0,0.0,0.0,0.0,0.0,0.0,0.0,-3.9571,-3.9706,-4.0079,-4.0113,-4.0113,-4.0113,-4.0113,-4.0113,-4.0113,-4.0113,-4.0113,-4.0113,-4.0832,-4.118,-4.118,-4.335,-4.4157,-4.3769,-4.5924,-4.6851,-4.6865,-4.7534,-4.8035,-4.8306,-4.8306,-4.8306,-4.8306,-4.8306,-4.8306,-4.8453,-4.9738,-5.0472,-5.0986,-5.2197,-5.2858,-5.3203,-5.3203,-5.3203,-5.3203,-5.3203,-5.3203,-5.3203,-5.3203,-5.3203,-5.3482,-5.4693,-5.4987,-5.539,-5.7005,-5.7409,-5.7519,-5.7923,-5.7997,-5.7997,-5.7997,-5.7997,-5.7997,-5.7997,-5.7997,-5.7997,-5.7997,-5.7997,-5.7997,-5.7997,-5.7997,-5.7997,-5.7997,-5.7997,-5.7997,-5.7997,-5.8364,-5.8621,-5.8621,-5.8621,-5.8621,-5.8621,-5.8217,-5.818,-5.8584,-5.8988,-5.9208,-5.9208,-5.9612,-5.9391,-5.8584,-5.818,-5.8217,0.0,0.0,0.0,0.0,0.0,-3.887,0.0,0.0,0.0,0.0,0.0,0.0,0.0,0.0,0.0,0.0,0.0,0.0,0.0,0.0,0.0,0.0,0.0,0.0,0.0,-3.8768,-3.9073,-3.9842,-3.991,-3.9943,-4.0079,-4.0113,-4.0113,-4.0113,-4.0113,-4.0113,-4.0113,-4.0832,-4.0899,-4.035,-4.298,-4.3552,-4.2457,-4.5054,-4.6234,-4.6255,-4.7053,-4.7736,-4.8306,-4.8306,-4.8306,-4.8306,-4.8306,-4.8306,-4.8416,-4.9444,-5.0251,-5.0949,-5.1903,-5.2674,-5.3203,-5.3203,-5.3203,-5.3203,-5.3203,-5.3203,-5.3203,-5.3203,-5.3314,-5.3732,-5.5074,-5.5505,-5.5981,-5.7444,-5.7774,-5.7821,-5.7973,-5.7997,-5.7997,-5.7997,-5.7997,-5.7997,-5.7997,-5.7997,-5.7997,-5.7997,-5.7997,-5.7997,-5.7997,-5.7997,-5.7997,-5.7997,-5.7997,-5.807,-5.8217,-5.8841,-5.9258,-5.9404,-5.9294,-5.9184,-5.9184,-5.8584,-5.8621,-5.9404,-6.0089,-6.0419,-6.0419,-6.0419,-6.0089,-5.9404,-5.8767,-5.8804,0.0,0.0,0.0,0.0,-4.046,0.0,0.0,0.0,0.0,0.0,0.0,0.0,0.0,0.0,0.0,0.0,0.0,0.0,0.0,0.0,0.0,0.0,0.0,0.0,0.0,0.0,-3.8328,-3.9073,-3.9106,-3.9436,-4.0079,-4.0113,-4.0113,-4.0113,-4.0113,-4.0113,-4.0113,-4.0832,-4.117,-4.1102,-4.2739,-4.341,-4.3335,-4.4872,-4.5905,-4.6424,-4.7096,-4.7736,-4.8306,-4.8306,-4.8306,-4.8306,-4.8306,-4.8306,-4.8489,-5.0068,-5.0729,-5.1022,-5.2564,-5.3093,-5.3203,-5.3203,-5.3203,-5.3203,-5.3203,-5.3203,-5.3203,-5.3203,-5.3702,-5.4305,-5.4568,-5.5171,-5.5894,-5.6798,-5.7015,-5.7191,-5.7844,-5.7997,-5.7997,-5.7997,-5.7997,-5.7997,-5.7997,-5.7997,-5.7997,-5.7997,-5.7997,-5.7997,-5.7997,-5.7997,-5.7997,-5.7997,-5.7997,-5.829,-5.9001,-5.9148,-5.9478,-6.0236,-5.9588,-5.9184,-5.9184,-5.9111,-5.9465,-6.0272,-6.0346,-6.0419,-6.0419,-6.0419,-6.0346,-6.0272,-6.0162,-6.0199,0.0,0.0,0.0,0.0,0.0,0.0,-3.9343,0.0,-3.7855,0.0,0.0,0.0,0.0,0.0,0.0,0.0,0.0,0.0,0.0,0.0,0.0,0.0,0.0,0.0,0.0,0.0,0.0,0.0,0.0,-3.914,-3.9469,-3.9876,-4.0113,-4.0113,-4.0113,-4.0316,-4.073,-4.1474,-4.1847,-4.1847,-4.3369,-4.3842,-4.3436,-4.4511,-4.5494,-4.6413,-4.6705,-4.7406,-4.8306,-4.8306,-4.8094,-4.7818,-4.8153,-4.8306,-4.8453,-4.9664,-5.0398,-5.0949,-5.2123,-5.2821,-5.3203,-5.3203,-5.3203,-5.3203,-5.3203,-5.3203,-5.3203,-5.3203,-5.3441,-5.3829,-5.4374,-5.4743,-5.5214,-5.599,-5.6563,-5.6989,-5.7302,-5.7376,-5.7376,-5.7376,-5.7376,-5.7376,-5.7376,-5.7726,-5.7997,-5.7997,-5.7997,-5.7997,-5.7997,-5.7997,-5.7997,-5.7997,-5.7997,-5.8327,-5.9111,-5.9648,-6.0236,-6.1043,-6.0786,-6.0382,-5.9942,-6.0346,-6.075,-6.108,-6.108,-6.1337,-6.1814,-6.1337,-6.1337,-6.1777,-6.0823,-6.0639,-4.0113,0.0,0.0,0.0,0.0,0.0,0.0,0.0,0.0,0.0,0.0,0.0,0.0,0.0,0.0,0.0,0.0,0.0,0.0,0.0,0.0,0.0,0.0,0.0,0.0,0.0,0.0,0.0,0.0,0.0,-3.8971,-3.9706,-4.0113,-4.0113,-4.0113,-4.0383,-4.0899,-4.1813,-4.2286,-4.232,-4.387,-4.4282,-4.3741,-4.4316,-4.5241,-4.6389,-4.6389,-4.7132,-4.8287,-4.8114,-4.7879,-4.7674,-4.7955,-4.828,-4.8746,-4.9591,-5.0435,-5.1242,-5.205,-5.2711,-5.3261,-5.3482,-5.3555,-5.3555,-5.3555,-5.3555,-5.3555,-5.3555,-5.3703,-5.4001,-5.4639,-5.4988,-5.53,-5.5897,-5.6483,-5.6964,-5.7141,-5.7191,-5.7191,-5.7191,-5.7191,-5.7191,-5.7191,-5.7655,-5.7997,-5.7997,-5.818,-5.8253,-5.8033,-5.818,-5.8253,-5.8033,-5.7997,-5.8437,-5.9465,-6.0052,-6.075,-6.1557,-6.1594,-6.1337,-6.075,-6.13,-6.1704,-6.1924,-6.1924,-6.2218,-6.278,-6.2218,-6.2218,-6.2743,-6.1594,-6.1374,0.0,0.0,0.0,-4.0282,0.0,0.0,0.0,0.0,-3.8971,0.0,0.0,0.0,0.0,0.0,0.0,-3.4709,0.0,0.0,0.0,0.0,0.0,0.0,0.0,0.0,0.0,0.0,0.0,0.0,0.0,0.0,-3.8937,-3.9706,-4.0113,-4.0113,-4.0113,-4.0113,-4.0146,-4.1568,-4.2286,-4.232,-4.387,-4.4581,-4.4581,-4.4581,-4.5241,-4.6389,-4.6389,-4.7132,-4.8267,-4.7674,-4.7756,-4.8229,-4.7653,-4.8307,-4.9647,-5.0472,-5.1279,-5.2087,-5.2894,-5.3167,-5.3335,-5.4106,-5.4363,-5.4363,-5.4363,-5.4363,-5.4363,-5.4363,-5.4913,-5.5528,-5.5618,-5.6237,-5.6825,-5.6861,-5.6887,-5.7091,-5.7797,-5.7973,-5.7973,-5.7973,-5.7973,-5.7973,-5.7973,-5.7973,-5.7997,-5.7997,-5.8657,-5.8854,-5.8107,-5.8694,-5.8854,-5.807,-5.7997,-5.8621,-6.0236,-6.0382,-6.075,-6.1557,-6.1594,-6.1594,-6.1557,-6.1594,-6.1961,-6.2743,-6.2768,-6.2743,-6.278,-6.2743,-6.2743,-6.278,-6.2743,-6.2743,0.0,0.0,-4.1035,-4.0282,0.0,0.0,0.0,0.0,0.0,0.0,0.0,0.0,0.0,0.0,0.0,-3.6118,0.0,0.0,0.0,0.0,0.0,0.0,0.0,0.0,0.0,0.0,0.0,0.0,0.0,0.0,0.0,-3.8971,-3.9605,-4.0079,-4.0113,-4.035,-4.0832,-4.1305,-4.1813,-4.2286,-4.3335,-4.3809,-4.3809,-4.435,-4.5035,-4.5815,-4.6233,-4.6623,-4.7088,-4.7736,-4.7617,-4.7146,-4.8395,-4.919,-4.9813,-5.0533,-5.1316,-5.2123,-5.2931,-5.3203,-5.3261,-5.3518,-5.3628,-5.3628,-5.3628,-5.3628,-5.3628,-5.3628,-5.42,-5.4882,-5.488,-5.5506,-5.6122,-5.6122,-5.6501,-5.6964,-5.7227,-5.7277,-5.7277,-5.7277,-5.7277,-5.7277,-5.7277,-5.8117,-5.8804,-5.8804,-5.9038,-5.9294,-5.9538,-5.9832,-5.9905,-5.9612,-5.9612,-6.0015,-6.108,-6.1704,-6.2108,-6.2401,-6.2401,-6.2401,-6.2401,-6.2401,-6.2511,-6.278,-6.278,-6.278,-6.278,-6.278,-6.278,-6.278,-6.278,-6.278,-4.0113,-4.0451,0.0,-4.0527,-4.0629,0.0,-4.0527,0.0,0.0,0.0,0.0,0.0,0.0,0.0,0.0,0.0,0.0,0.0,0.0,-3.56,0.0,0.0,0.0,0.0,0.0,0.0,0.0,0.0,0.0,0.0,0.0,0.0,-3.9334,-4.0079,-4.0113,-4.035,-4.0798,-4.1068,-4.1576,-4.2286,-4.3064,-4.3572,-4.3842,-4.435,-4.5035,-4.584,-4.6257,-4.6646,-4.7132,-4.7736,-4.7617,-4.7204,-4.8686,-4.9628,-5.0213,-5.0973,-5.1756,-5.2491,-5.3041,-5.3203,-5.324,-5.3555,-5.3628,-5.3628,-5.3628,-5.3628,-5.3586,-5.3295,-5.3842,-5.4503,-5.4553,-5.5097,-5.578,-5.6059,-5.6501,-5.6964,-5.7216,-5.7302,-5.7302,-5.7302,-5.7302,-5.7302,-5.7302,-5.8336,-5.9184,-5.9184,-5.9685,-6.0162,-6.0382,-6.0639,-6.0713,-6.0419,-6.0419,-6.075,-6.152,-6.2365,-6.278,-6.278,-6.278,-6.278,-6.278,-6.278,-6.2952,-6.3282,-6.2989,-6.2952,-6.3282,-6.2952,-6.278,-6.278,-6.278,-6.278]},{"header":{"parameterUnit":"m.s-1","parameterCategory":1,"la1":30.6,"la2":29.2853,"lo1":-89.7004,"lo2":-87.6739,"dy":0.0162,"dx":0.0183,"nx":112,"ny":82,"refTime":"2024-04-16T12:00:00:Z","depth":0,"parameterNumber":3,"parameterNumberName":"V-component_of_WINDS"},"data":[0.0,0.0,0.0,0.0,0.0,0.0,0.0,0.0,0.0,0.0,0.0,0.0,0.0,0.0,0.0,0.0,0.0,0.0,0.0,0.0,0.0,0.0,0.0,0.0,0.0,0.0,0.0,0.0,0.0,0.0,0.0,0.0,0.0,0.0,0.0,0.0,0.0,0.0,0.0,0.0,0.0,0.0,0.0,0.0,0.0,0.0,0.0,0.0,0.0,0.0,0.0,0.0,0.0,0.0,0.0,0.0,0.0,0.0,0.0,0.0,0.0,0.0,0.0,0.0,0.0,0.0,0.0,0.0,0.0,0.0,0.0,0.0,0.0,0.0,0.0,0.0,0.0,0.0,0.0,0.0,0.0,0.0,0.0,0.0,0.0,0.0,0.0,0.0,0.0,0.0,1.2772,1.376,1.5284,1.6206,1.6206,1.7659,1.736,1.4736,0.0,0.0,0.0,0.0,0.0,0.0,0.0,0.0,0.0,0.0,0.0,0.0,0.0,0.0,0.0,0.0,0.0,0.0,0.0,0.0,0.0,0.0,0.0,0.0,0.0,0.0,0.0,0.0,0.0,0.0,0.0,0.0,0.0,0.0,0.0,0.0,0.0,0.0,0.0,0.0,0.0,0.0,0.0,0.0,0.0,0.0,0.0,0.0,0.0,0.0,0.0,0.0,0.0,0.0,0.0,0.0,0.0,0.0,0.0,0.0,0.0,0.0,0.0,0.0,0.0,0.0,0.0,0.0,0.0,0.0,0.0,0.0,0.0,0.0,0.0,0.0,0.0,0.0,0.0,0.0,0.0,0.0,0.0,0.0,0.0,0.0,0.0,0.0,0.0,0.0,0.0,0.0,0.0,0.0,0.0,0.0,0.0,0.0,0.0,0.0,0.0,0.0,0.0,0.0,1.3347,1.495,1.5591,1.5899,1.5899,1.6695,1.6701,1.5489,0.0,0.0,0.0,0.0,0.0,0.0,0.0,0.0,0.0,0.0,0.0,0.0,0.0,0.0,0.0,0.0,0.0,0.0,0.0,0.0,0.0,0.0,0.0,0.0,0.0,0.0,0.0,0.0,0.0,0.0,0.0,0.0,0.0,0.0,0.0,0.0,0.0,0.0,0.0,0.0,0.0,0.0,0.0,0.0,0.0,0.0,0.0,0.0,0.0,0.0,0.0,0.0,0.0,0.0,0.0,0.0,0.0,0.0,0.0,0.0,0.0,0.0,0.0,0.0,0.0,0.0,0.0,0.0,0.0,0.0,0.0,0.0,0.0,0.0,0.0,0.0,0.0,0.0,0.0,0.0,0.0,0.0,0.0,0.0,0.0,0.0,0.0,0.0,0.0,0.0,0.0,0.0,0.0,0.0,0.0,0.0,0.0,0.0,0.0,0.0,0.0,0.0,0.0,1.3172,1.407,1.5471,1.5899,1.5939,1.5618,1.6382,1.6485,1.5433,1.6017,0.0,0.0,0.0,0.0,0.0,0.0,0.0,0.0,0.0,0.0,0.0,0.0,0.0,0.0,0.0,0.0,0.0,0.0,0.0,0.0,0.0,0.0,0.0,0.0,0.0,0.0,0.0,0.0,0.0,0.0,0.0,0.0,0.0,0.0,0.0,0.0,0.0,0.0,0.0,0.0,0.0,0.0,0.0,0.0,0.0,0.0,0.0,0.0,0.0,0.0,0.0,0.0,0.0,0.0,0.0,0.0,0.0,0.0,0.0,0.0,0.0,0.0,0.0,0.0,0.0,0.0,0.0,0.0,0.0,0.0,0.0,0.0,0.0,0.0,0.0,0.0,0.0,0.0,0.0,0.0,0.0,0.0,0.0,0.0,0.0,0.0,0.0,0.0,0.0,0.0,0.0,0.0,0.0,0.0,0.0,0.0,0.0,0.0,0.0,0.0,0.0,0.0,1.3895,1.4429,1.5605,1.5925,1.5885,1.5431,1.5928,1.5952,1.5231,1.5052,0.0,0.0,0.0,0.0,0.0,0.0,0.0,0.0,0.0,0.0,0.0,0.0,0.0,0.0,0.0,0.0,0.0,0.0,0.0,0.0,0.0,0.0,0.0,0.0,0.0,0.0,0.0,0.0,0.0,0.0,0.0,0.0,0.0,0.0,0.0,0.0,0.0,0.0,0.0,0.0,0.0,0.0,0.0,0.0,0.0,0.0,0.0,0.0,0.0,0.0,0.0,0.0,0.0,0.0,0.0,0.0,0.0,0.0,0.0,0.0,0.0,0.0,0.0,0.0,0.0,0.0,0.0,0.0,0.0,0.0,0.0,0.0,0.0,0.0,0.0,0.0,0.0,0.0,0.0,0.0,0.0,0.0,0.0,0.0,0.0,0.0,0.0,0.0,0.0,0.0,0.0,0.0,0.0,0.0,0.0,0.0,0.0,0.0,0.0,0.0,0.0,0.0,1.3333,1.4079,1.5297,1.5444,1.5444,1.5404,1.4803,1.4607,1.5147,1.4049,0.0,0.0,0.0,0.0,0.0,0.0,0.0,0.0,0.0,0.0,0.0,0.0,0.0,0.0,0.0,0.0,0.0,0.0,0.0,0.0,0.0,0.0,0.0,0.0,0.0,0.0,0.0,0.0,0.0,0.0,0.0,0.0,0.0,0.0,0.0,0.0,0.0,0.0,0.0,0.0,0.0,0.0,0.0,0.0,0.0,0.0,0.0,0.0,0.0,0.0,0.0,0.0,0.0,0.0,0.0,0.0,0.0,0.0,0.0,0.0,0.0,0.0,0.0,0.0,0.0,0.0,0.0,0.0,0.0,0.0,0.0,0.0,0.0,0.0,0.0,0.0,0.0,0.0,0.0,0.0,0.0,0.0,0.0,0.0,0.0,0.0,0.0,0.0,0.0,0.0,0.0,0.0,0.0,0.0,0.0,0.0,0.0,0.0,0.0,0.0,0.0,0.0,1.3267,1.3986,0.0,1.5169,1.4977,1.4616,1.4746,1.4788,1.4667,0.0,0.0,0.0,0.0,0.0,0.0,0.0,0.0,0.0,0.0,0.0,0.0,0.0,0.0,0.0,0.0,0.0,0.0,0.0,0.0,0.0,0.0,0.0,0.0,0.0,0.0,0.0,0.0,0.0,0.0,0.0,0.0,0.0,0.0,0.0,0.0,0.0,0.0,0.0,0.0,0.0,0.0,0.0,0.0,0.0,0.0,0.0,0.0,0.0,0.0,0.0,0.0,0.0,0.0,0.0,0.0,0.0,0.0,0.0,0.0,0.0,0.0,0.0,0.0,0.0,0.0,0.0,0.0,0.0,0.0,0.0,0.0,0.0,0.0,0.0,0.0,0.0,0.0,0.0,0.0,0.0,0.0,0.0,0.0,0.0,0.0,0.0,0.0,0.0,0.0,0.0,0.0,0.0,0.0,0.0,0.0,0.0,0.0,0.0,0.0,0.0,0.0,1.265,1.3106,1.3734,0.0,1.483,1.4589,1.4001,1.4188,1.4305,1.4172,0.0,0.0,0.0,0.0,0.0,0.0,0.0,0.0,0.0,0.0,0.0,0.0,0.0,0.0,0.0,0.0,0.0,0.0,0.0,0.0,0.0,0.0,0.0,0.0,0.0,0.0,0.0,0.0,0.0,0.0,0.0,0.0,0.0,0.0,0.0,0.0,0.0,0.0,0.0,0.0,0.0,0.0,0.0,0.0,0.0,0.0,0.0,0.0,0.0,0.0,0.0,0.0,0.0,0.0,0.0,0.0,0.0,0.0,0.0,0.0,0.0,0.0,0.0,0.0,0.0,0.0,0.0,0.0,0.0,0.0,0.0,0.0,0.0,0.0,0.0,0.0,0.0,0.0,0.0,0.0,0.0,0.0,0.0,0.0,0.0,0.0,0.0,0.0,0.0,0.0,0.0,0.0,0.0,0.0,0.0,0.0,0.0,0.0,0.0,0.0,0.0,0.0,1.2634,1.2784,1.3239,1.4376,1.4509,1.4226,1.364,1.291,1.2919,0.0,0.0,0.0,0.0,0.0,0.0,0.0,0.0,0.0,0.0,0.0,0.0,0.0,0.0,0.0,0.0,0.0,0.0,0.0,0.0,0.0,0.0,0.0,0.0,0.0,0.0,0.0,0.0,0.0,0.0,0.0,0.0,0.0,0.0,0.0,0.0,0.0,0.0,0.0,0.0,0.0,0.0,0.0,0.0,0.0,0.0,0.0,0.0,0.0,0.0,0.0,0.0,0.0,0.0,0.0,0.0,0.0,0.0,0.0,0.0,0.0,0.0,0.0,0.0,0.0,0.0,0.0,0.0,0.0,0.0,0.0,0.0,0.0,0.0,0.0,0.0,0.0,0.0,0.0,0.0,0.0,0.0,0.0,0.0,0.0,0.0,0.0,0.0,0.0,0.0,0.0,0.0,0.0,0.0,0.0,0.0,0.0,0.0,0.0,0.0,0.0,0.0,0.0,1.2291,1.2438,1.2732,1.3507,1.3601,1.3347,1.2746,1.2784,1.3201,1.3999,0.0,0.0,0.0,0.0,0.0,0.0,0.0,0.0,0.0,0.0,0.0,0.0,0.0,0.0,0.0,0.0,0.0,0.0,0.0,0.0,0.0,0.0,0.0,0.0,0.0,0.0,0.0,0.0,0.0,0.0,0.0,0.0,0.0,0.0,0.0,0.0,0.0,0.0,0.0,0.0,0.0,0.0,0.0,0.0,0.0,0.0,0.0,0.0,0.0,0.0,0.0,0.0,0.0,0.0,0.0,0.0,0.0,0.0,0.0,0.0,0.0,0.0,0.0,0.0,0.0,0.0,0.0,0.0,0.0,0.0,0.0,0.0,0.0,0.0,0.0,0.0,0.0,0.0,0.0,0.0,0.0,0.0,0.0,0.0,0.0,0.0,0.0,0.0,0.0,0.0,0.0,0.0,0.0,0.0,0.0,0.0,0.0,0.0,0.0,0.0,0.0,0.0,1.2358,1.2171,1.2225,1.2946,1.2919,1.275,1.2464,1.2704,1.3136,1.3876,0.0,0.0,0.0,0.0,0.0,0.0,0.0,0.0,0.0,0.0,0.0,0.0,0.0,0.0,0.0,0.0,0.0,0.0,0.0,0.0,0.0,0.0,0.0,0.0,0.0,0.0,0.0,0.0,0.0,0.0,0.0,0.0,0.0,0.0,0.0,0.0,0.0,0.0,0.0,0.0,0.0,0.0,0.0,0.0,0.0,0.0,0.0,0.0,0.0,0.0,0.0,0.0,0.0,0.0,0.0,0.0,0.0,0.0,0.0,0.0,0.0,0.0,0.0,0.0,0.0,0.0,0.0,0.0,0.0,0.0,0.0,0.0,0.0,0.0,0.0,0.0,0.0,0.0,0.0,0.0,0.0,0.0,0.0,0.0,0.0,0.0,0.0,0.0,0.0,0.0,0.0,0.0,0.0,0.0,0.0,0.0,0.0,0.0,0.0,0.0,0.0,0.0,1.2556,1.1917,1.1703,1.2569,1.2395,1.2279,1.2583,1.2554,1.2837,1.3568,0.0,0.0,0.0,0.0,0.0,0.0,0.0,0.0,0.0,0.0,0.0,0.0,0.0,0.0,0.0,0.0,0.0,0.0,0.0,0.0,0.0,0.0,0.0,0.0,0.0,0.0,0.0,0.0,0.0,0.0,0.0,0.0,0.0,0.0,0.0,0.0,0.0,0.0,0.0,0.0,0.0,0.0,0.0,0.0,0.0,0.0,0.0,0.0,0.0,0.0,0.0,0.0,0.0,0.0,0.0,0.0,0.0,0.0,0.0,0.0,1.279,0.0,0.0,0.0,0.0,0.0,0.0,0.0,0.0,0.0,0.0,0.0,0.0,0.0,0.0,0.0,0.0,0.0,0.0,0.0,0.0,0.0,0.0,0.0,0.0,0.0,0.0,0.0,0.0,0.0,0.0,0.0,0.0,0.0,0.0,0.0,0.0,0.0,0.0,0.0,0.0,0.0,1.2007,1.149,1.1249,1.1663,1.145,1.1415,1.1797,1.1883,1.2376,1.3532,1.3635,0.0,0.0,0.0,0.0,0.0,0.0,0.0,0.0,0.0,0.0,0.0,0.0,0.0,0.0,0.0,0.0,0.0,0.0,0.0,0.0,0.0,0.0,0.0,0.0,0.0,0.0,0.0,0.0,0.0,0.0,0.0,0.0,0.0,0.0,0.0,0.0,0.0,0.0,0.0,0.0,0.0,0.0,0.0,0.0,0.0,0.0,0.0,0.0,0.0,0.0,0.0,0.0,0.0,0.0,0.0,0.0,0.0,0.0,0.0,0.0,1.4944,0.0,0.0,0.0,0.0,0.0,0.0,0.0,0.0,0.0,0.0,0.0,0.0,0.0,0.0,0.0,0.0,0.0,0.0,0.0,0.0,0.0,0.0,0.0,0.0,0.0,0.0,0.0,0.0,0.0,0.0,0.0,0.0,0.0,0.0,0.0,0.0,0.0,0.0,0.0,0.0,1.1846,1.127,1.0902,1.1182,1.1113,1.1301,1.1919,1.1983,1.2447,1.3495,1.3515,0.0,0.0,0.0,0.0,0.0,0.0,0.0,0.0,0.0,0.0,0.0,0.0,0.0,0.0,0.0,0.0,0.0,0.0,0.0,0.0,0.0,0.0,0.0,0.0,0.0,0.0,0.0,0.0,0.0,0.0,0.0,0.0,0.0,0.0,0.0,0.0,0.0,0.0,0.0,0.0,0.0,0.0,0.0,0.0,0.0,0.0,0.0,0.0,0.0,0.0,0.0,0.0,0.0,1.7528,1.7782,1.7742,1.8009,1.7876,1.7487,1.6938,1.6147,1.529,0.0,0.0,0.0,0.0,0.0,0.0,0.0,0.0,0.0,0.0,0.0,0.0,0.0,0.0,0.0,0.0,0.0,0.0,0.0,0.0,0.0,0.0,0.0,0.0,0.0,1.4482,1.4242,0.0,0.0,0.0,0.0,0.0,0.0,0.0,0.0,0.0,0.0,0.0,0.0,1.1725,1.1069,1.068,1.0921,1.1029,1.1494,1.2334,1.2422,1.2727,1.3464,1.3516,1.3516,0.0,0.0,0.0,0.0,0.0,0.0,0.0,0.0,0.0,0.0,0.0,0.0,0.0,0.0,0.0,0.0,0.0,0.0,0.0,0.0,0.0,0.0,0.0,0.0,0.0,0.0,0.0,0.0,0.0,0.0,0.0,0.0,1.4576,1.4914,0.0,0.0,0.0,0.0,0.0,0.0,0.0,0.0,0.0,0.0,0.0,0.0,0.0,0.0,1.7288,1.7889,1.8076,1.7849,1.8464,1.8611,1.837,1.841,1.8531,1.8664,1.8343,0.0,1.6086,1.5952,0.0,0.0,0.0,0.0,0.0,0.0,0.0,0.0,0.0,0.0,0.0,0.0,0.0,0.0,0.0,0.0,0.0,0.0,0.0,0.0,0.0,0.0,1.4456,1.4202,1.4335,1.4402,0.0,1.4202,1.4282,1.3613,0.0,0.0,0.0,0.0,0.0,0.0,0.0,0.0,1.1129,1.0827,1.06,1.064,1.1024,1.1567,1.2334,1.2776,1.3146,1.3484,1.3516,1.3516,1.3516,1.3555,0.0,0.0,0.0,0.0,0.0,0.0,0.0,0.0,0.0,0.0,0.0,0.0,0.0,0.0,0.0,0.0,0.0,0.0,0.0,0.0,0.0,0.0,0.0,0.0,0.0,0.0,0.0,0.0,0.0,1.507,1.5551,1.5075,1.5765,1.6206,0.0,0.0,0.0,0.0,0.0,0.0,0.0,0.0,0.0,1.7194,1.7528,1.7742,1.7822,1.8424,1.8744,1.8784,1.9372,1.9599,1.9479,1.9639,1.9693,1.9594,1.9519,1.8824,1.7716,1.7074,1.6526,1.6072,0.0,0.0,0.0,0.0,0.0,1.6059,1.5939,1.5965,0.0,0.0,0.0,0.0,0.0,0.0,0.0,0.0,0.0,0.0,0.0,0.0,0.0,1.4897,1.5044,1.5177,1.4883,1.4923,1.4736,0.0,1.3773,1.3788,1.3293,0.0,0.0,0.0,0.0,1.1282,1.1022,1.0774,1.0586,1.0586,1.0934,1.1523,1.2334,1.2755,1.324,1.3788,1.3841,1.3841,1.3841,1.4102,1.4316,0.0,0.0,0.0,0.0,0.0,0.0,0.0,0.0,0.0,0.0,0.0,0.0,0.0,0.0,0.0,0.0,0.0,0.0,0.0,0.0,0.0,0.0,0.0,0.0,0.0,0.0,0.0,0.0,1.5752,1.6126,1.519,1.6166,1.6727,0.0,0.0,0.0,0.0,0.0,0.0,1.7154,1.7649,1.7956,1.8036,1.8477,1.8677,1.8584,1.9105,1.9479,1.9765,2.0214,2.0454,2.0468,2.0681,2.0628,2.0347,2.0347,1.9893,1.9078,1.8183,1.7301,1.6536,1.6469,1.6246,1.5997,1.5965,1.6126,1.638,1.6299,1.6326,1.6393,1.6522,0.0,1.5984,1.5872,0.0,0.0,0.0,0.0,1.5391,1.5391,1.5551,1.5685,1.5538,1.5671,1.5765,1.5551,1.5511,1.5164,0.0,1.4108,1.4148,1.3347,0.0,0.0,0.0,0.0,1.1282,1.1022,1.0774,1.0586,1.0586,1.102,1.1616,1.2494,1.2969,1.3543,1.4216,1.427,1.4231,1.4114,1.4453,1.4585,1.4486,0.0,0.0,0.0,0.0,0.0,0.0,0.0,0.0,0.0,0.0,0.0,0.0,0.0,0.0,0.0,0.0,0.0,0.0,0.0,0.0,0.0,0.0,0.0,0.0,0.0,0.0,0.0,0.0,0.0,1.5418,1.666,0.0,0.0,0.0,0.0,1.7139,1.7889,1.8384,1.8397,1.8691,1.8985,1.9323,1.9363,1.9586,2.006,2.0428,2.0601,2.0615,2.0922,2.1069,2.1069,2.1082,2.0922,2.0655,2.0655,2.0307,1.9693,1.8811,1.7916,1.7125,1.6794,1.6673,1.6633,1.6353,1.6433,1.6647,1.6366,1.646,1.6727,1.7058,1.6951,1.6553,1.5944,1.5771,0.0,0.0,1.5404,1.5391,1.5391,1.5404,1.5484,1.5704,1.5771,1.5784,1.5758,1.5758,1.5458,0.0,1.4082,1.3921,1.332,0.0,1.269,1.2345,1.1797,1.1282,1.1022,1.0774,1.0586,1.0586,1.1298,1.2089,1.2885,1.3682,1.4318,1.4738,1.4746,1.457,1.4133,1.4133,1.4001,1.3675,1.3665,0.0,0.0,0.0,0.0,0.0,0.0,0.0,0.0,0.0,0.0,0.0,0.0,0.0,0.0,0.0,0.0,0.0,0.0,0.0,0.0,0.0,0.0,0.0,0.0,0.0,0.0,0.0,0.0,1.7074,1.8063,0.0,1.7876,1.7943,1.8063,1.8063,1.8477,1.8851,1.9052,1.9506,1.9907,2.0201,2.0388,2.0588,2.0802,2.0909,2.0949,2.0962,2.1056,2.1109,2.1109,2.1109,2.1056,2.0949,2.0762,2.0454,2.004,1.9546,1.8811,1.7983,1.7689,1.7448,1.7235,1.6991,1.7072,1.7235,1.6991,1.6951,1.6991,1.6723,1.6563,1.6353,1.5952,1.5698,1.5565,1.5658,1.5538,1.5444,1.5631,1.5671,1.5698,1.5758,1.5784,1.5784,1.5784,1.5784,1.5591,1.4847,1.4496,1.4175,1.3547,1.308,1.269,1.2345,1.1971,1.161,1.1316,1.1022,1.0868,1.0868,1.0948,1.1344,1.2166,1.2962,1.3695,1.4366,1.4888,1.5,1.457,1.4298,1.4003,1.3607,1.3345,1.3199,0.0,0.0,0.0,0.0,0.0,0.0,0.0,0.0,0.0,0.0,0.0,0.0,0.0,0.0,0.0,0.0,0.0,0.0,0.0,0.0,0.0,0.0,0.0,0.0,0.0,0.0,1.8143,1.8437,1.9265,1.9653,1.9252,1.9225,1.9225,1.9225,1.9586,1.9893,2.0154,2.0468,2.0722,2.0815,2.1002,2.1109,2.1109,2.1109,2.1109,2.1109,2.1109,2.1109,2.1109,2.1109,2.1002,2.0815,2.0722,2.0401,1.9933,1.984,1.9399,1.8758,1.845,1.8156,1.7862,1.7728,1.7729,1.7849,1.7555,1.7367,1.7139,1.675,1.6482,1.6233,1.6046,1.5778,1.5578,1.5731,1.5698,1.5591,1.5731,1.5784,1.5784,1.5784,1.5784,1.5784,1.5784,1.5784,1.5685,1.5204,1.487,1.4456,1.372,1.3227,1.2878,1.2639,1.2184,1.1837,1.173,1.1289,1.0995,1.0995,1.076,1.0933,1.1734,1.2367,1.3155,1.4124,1.4818,1.499,1.4601,1.4451,1.3914,1.2999,1.313,1.3344,1.3651,0.0,0.0,0.0,0.0,0.0,0.0,0.0,0.0,0.0,0.0,0.0,0.0,0.0,0.0,0.0,0.0,0.0,0.0,0.0,0.0,0.0,0.0,0.0,1.6714,1.8023,1.9065,1.943,2.0187,2.0494,1.992,2.0388,2.0722,2.0722,2.1306,2.1628,2.1614,2.1614,2.148,2.1122,2.1109,2.1109,2.1109,2.1109,2.1109,2.1109,2.1109,2.1109,2.1109,2.1096,2.0788,2.0207,2.0535,2.016,1.9399,1.9679,1.9626,1.939,1.9052,1.8771,1.8517,1.8504,1.849,1.8437,1.8075,1.7649,1.7206,1.7192,1.6804,1.6299,1.6335,1.6072,1.5798,1.5798,1.5784,1.5784,1.5784,1.5784,1.5784,1.5784,1.5784,1.5784,1.5784,1.5784,1.5738,1.5444,1.5196,1.4727,1.3773,1.3373,1.3213,1.32,1.2452,0.0,1.2265,1.1557,1.1022,1.1035,1.0801,1.0961,1.1778,1.2093,1.2822,1.413,1.4561,1.4597,1.4243,1.4513,1.3791,1.1888,1.3011,1.4059,1.4938,0.0,0.0,0.0,0.0,0.0,0.0,0.0,0.0,0.0,0.0,0.0,0.0,0.0,0.0,0.0,0.0,0.0,0.0,0.0,0.0,0.0,1.7114,1.7569,1.7609,1.8771,1.9746,2.0254,2.1096,2.1563,2.1403,2.1537,2.163,2.163,2.1777,2.1842,2.1628,2.1614,2.148,2.1122,2.1109,2.1109,2.1109,2.1109,2.1109,2.1109,2.1109,2.1109,2.1096,2.0895,2.0708,2.0535,2.0187,1.9907,1.9666,1.9546,1.9497,1.9417,1.9279,1.9199,1.9105,1.8891,1.8531,1.813,1.7809,1.7609,1.7395,1.6967,1.686,1.6884,1.6455,1.6219,1.6152,1.6152,1.5992,1.5784,1.5784,1.5784,1.5784,1.5784,1.5784,1.5784,1.5784,1.5784,1.5685,1.5177,1.5062,1.4794,1.4082,1.3547,1.3133,1.2945,1.2516,0.0,1.2291,1.1904,1.1739,1.1917,1.149,1.1633,1.2792,1.3306,1.3897,1.4664,1.5338,1.5395,1.4668,1.4425,1.3961,1.3137,1.3424,1.4316,0.0,0.0,0.0,0.0,0.0,0.0,0.0,0.0,0.0,0.0,0.0,0.0,0.0,0.0,0.0,0.0,0.0,0.0,0.0,0.0,0.0,0.0,1.7889,1.8531,1.8848,1.9546,2.0294,2.1122,2.167,2.2084,2.2325,2.2352,2.2352,2.2352,2.2352,2.2178,2.1815,2.1802,2.1537,2.1122,2.1109,2.1109,2.1109,2.1109,2.1109,2.1109,2.1109,2.1109,2.1096,2.0815,2.0615,0.0,2.0,1.9733,1.9599,1.9439,1.943,0.0,0.0,0.0,0.0,0.0,1.8624,1.8183,1.7889,1.7689,1.7528,1.7181,1.7101,1.7139,1.679,1.6603,1.6433,1.6348,1.6152,1.5992,1.5858,1.5784,1.5784,1.5784,1.5784,1.5784,1.5784,1.5784,1.5698,1.5231,0.0,0.0,1.4349,1.3788,1.3333,1.3146,1.2797,1.2529,1.2529,1.2167,1.1966,1.2104,1.1703,1.1868,1.3035,1.3517,0.0,0.0,0.0,1.5449,1.4778,1.4249,0.0,0.0,0.0,1.5316,1.6632,0.0,0.0,0.0,1.6539,1.6539,0.0,0.0,0.0,0.0,0.0,0.0,0.0,0.0,0.0,0.0,0.0,0.0,0.0,0.0,0.0,0.0,1.8677,1.9372,2.0153,2.0361,2.0775,2.1857,2.2044,2.2285,2.2874,2.2928,2.2928,2.2928,2.2928,2.2619,2.2071,0.0,0.0,0.0,0.0,2.1109,2.1109,2.1109,2.1109,2.1109,2.1109,2.1109,2.1096,2.0815,2.0508,2.0214,1.992,1.9639,1.943,1.943,1.943,1.943,1.943,1.943,1.939,1.9038,1.8744,0.0,0.0,0.0,0.0,1.7542,1.7434,1.7246,1.7206,1.7018,1.67,1.6406,1.6299,1.6206,1.5912,1.5784,1.5784,1.5784,1.5784,1.5784,1.5784,1.5784,1.5738,1.5458,1.5164,1.4914,1.4576,1.3986,1.3586,1.356,1.3106,1.277,1.2744,1.2275,1.1966,1.2007,0.0,0.0,1.3101,1.3377,1.4153,1.5605,1.5551,1.5305,1.4961,1.4299,1.4409,1.5343,1.5966,1.6585,1.7309,1.7765,1.8008,1.8008,1.8008,1.8008,0.0,0.0,0.0,0.0,0.0,0.0,0.0,0.0,0.0,0.0,0.0,0.0,0.0,0.0,0.0,1.8945,1.9599,2.0201,2.0855,2.1149,2.147,2.1937,2.2405,2.2739,2.2914,2.2928,2.2928,2.2928,2.2928,2.2712,2.2352,2.2111,0.0,2.1483,2.1229,2.1109,2.1109,2.1109,2.1109,2.1109,0.0,0.0,2.1096,2.0815,2.0508,2.0214,1.992,1.9639,1.943,1.943,1.943,1.943,1.943,1.943,1.939,1.9038,1.8744,1.845,1.8102,1.7836,1.7542,1.7367,1.7407,1.7462,1.7273,1.7166,0.0,1.67,1.646,1.6206,1.5912,1.5784,1.5784,1.5784,1.5784,1.5784,1.5784,1.5784,1.5738,1.5458,1.5164,1.4914,1.4576,1.3986,1.352,1.3333,1.2986,1.2703,1.2425,1.2291,1.2318,1.2596,1.2318,1.294,1.49,1.4939,1.5463,1.6938,1.6658,1.6395,1.6318,1.6173,1.5992,1.5788,1.6661,1.7021,1.6778,1.7575,1.8008,1.8008,1.8008,1.8008,0.0,0.0,0.0,0.0,0.0,0.0,0.0,0.0,0.0,0.0,0.0,1.7515,1.7956,0.0,1.9199,2.0094,2.0601,2.1042,2.1483,2.167,2.1764,2.1764,2.2285,2.2645,2.2645,2.2913,2.31,2.31,2.31,2.2966,2.2659,2.2231,2.1857,2.1628,2.1269,2.1109,2.1109,2.1109,2.1109,2.1109,2.1109,2.1109,2.1096,2.0655,2.0374,2.0214,1.9773,1.9506,1.943,1.943,1.943,1.943,1.943,1.943,1.939,1.9038,1.8838,1.8664,1.837,1.8063,1.7796,1.7649,1.7595,1.7555,1.746,1.742,1.7326,1.6834,1.6607,1.6393,1.5939,1.5784,1.5784,1.5784,1.5784,1.5784,1.5784,1.5784,1.5744,1.5645,1.5257,1.4955,1.4763,1.4255,1.3721,1.328,1.308,1.2812,1.2358,1.2305,1.2358,1.2543,1.2385,1.3155,1.5238,1.6122,1.6843,1.7369,1.7383,1.7252,1.707,1.6911,1.6738,1.6472,1.7178,1.7289,1.6794,1.7815,1.8223,1.8008,1.8008,1.8008,0.0,0.0,0.0,0.0,0.0,0.0,0.0,0.0,1.7782,1.7969,1.8263,1.8635,1.9399,1.9813,2.0307,2.1069,2.1443,2.1724,2.1951,2.1991,2.1884,2.1655,2.2017,2.2352,2.2405,2.2859,2.318,2.3233,2.3233,2.3126,2.2873,2.2352,2.1964,2.1724,2.1376,2.1189,2.1189,2.1136,2.1109,2.1109,2.1109,2.1109,2.1096,2.0561,2.0294,2.0201,1.9626,1.943,1.943,1.943,1.943,1.943,1.943,1.943,1.939,1.9092,1.8971,1.8891,1.8651,1.8343,1.7995,1.7995,1.7836,1.7582,1.7582,1.7582,1.7475,1.6941,1.6794,1.666,1.6072,1.5912,1.5899,1.5798,1.5784,1.5784,1.5784,1.5784,1.5784,1.5784,1.5364,1.5008,1.5008,1.4526,1.3908,1.3373,1.3293,1.3093,1.2545,1.2478,1.2478,1.2478,1.2478,1.3269,1.5225,1.7145,1.8105,1.7773,1.8066,1.8003,1.7485,1.7257,1.697,1.6551,1.7086,1.7162,1.6738,1.7799,1.8209,1.8008,1.8008,1.8008,2.0315,1.8821,1.7603,1.7486,1.7689,1.8143,0.0,0.0,1.9519,1.9546,1.9786,2.0013,2.012,2.0588,2.1082,2.1507,2.175,2.1951,2.1977,2.1991,2.1884,2.1655,2.1844,2.2138,2.2392,2.2485,2.2632,2.2899,2.2913,2.2899,2.2928,2.2552,2.2352,2.2325,2.179,2.1574,2.1574,2.1243,2.1109,2.1109,2.1109,2.1109,2.1096,2.0775,2.0481,2.0201,1.9626,1.943,1.943,1.943,1.943,1.943,1.943,1.943,1.9417,1.939,1.9145,1.8918,1.8891,1.8462,1.7995,1.7995,1.7836,1.7582,1.7582,1.7582,1.7515,1.7246,1.7152,1.7018,1.6429,1.6219,1.6152,1.5885,1.5784,1.5784,1.5784,1.5784,1.5784,1.5784,1.5364,1.5008,1.5008,1.4526,1.3975,1.36,1.356,1.344,1.3146,1.3106,1.3106,1.3106,1.3106,1.3899,1.5924,1.7954,1.9121,1.9082,1.9121,1.8703,1.7697,1.7639,1.6761,1.4896,1.5755,1.6046,1.5773,1.6702,1.7452,1.8008,1.8008,1.8008,1.9891,1.8617,1.7916,1.7862,1.8542,1.9407,2.0,2.0481,2.0815,2.0815,2.1056,2.1309,2.147,2.171,2.2031,0.0,2.2686,2.2699,2.2525,2.2352,2.2004,2.1376,2.1403,2.1657,2.2124,2.2472,2.2806,2.3113,2.314,2.314,2.314,2.2672,2.2418,2.2418,2.2017,2.1804,2.1804,2.151,2.1363,2.1363,2.1189,2.1109,2.1096,2.0815,2.0428,1.996,1.9546,1.943,1.943,1.943,1.943,1.943,1.943,1.943,1.943,1.943,1.9292,1.9185,1.9185,1.8798,1.8303,1.8303,1.7983,1.7582,1.7582,1.7582,1.7515,1.7286,1.7206,1.7072,1.6482,1.6321,1.6206,1.5899,1.5784,1.5784,1.5784,1.5784,1.5784,1.5784,1.5498,1.5164,1.5035,1.4616,1.4242,1.3948,1.3706,1.3493,1.324,1.3213,1.3213,1.3213,1.4233,1.5288,1.6114,1.8101,1.9297,1.9297,1.9512,1.9145,1.8089,1.767,1.677,1.5252,1.5639,1.5945,1.625,1.7255,1.8082,1.875,1.8496,1.8344,1.9299,1.8554,1.8517,1.8568,1.9514,2.0575,2.0949,2.1563,2.2017,2.2003,2.2084,2.2271,2.2392,2.2418,2.2592,2.3113,2.3273,2.3247,2.302,2.2592,2.2031,2.1323,2.1015,2.1096,2.1683,2.2205,2.2659,2.3046,2.3153,2.3193,2.3193,2.2859,2.2632,2.2539,2.2258,2.2111,2.2111,2.1817,2.1695,2.1614,2.1336,2.1189,2.1096,2.0722,2.0281,1.9786,1.9492,1.943,1.943,1.943,1.943,1.943,1.943,1.943,1.943,1.943,1.943,1.943,1.943,1.9038,1.8597,1.8517,1.8143,1.7689,1.7609,1.7582,1.7542,1.738,1.7326,1.7179,1.654,1.6393,1.6299,1.5912,1.5784,1.5784,1.5784,1.5784,1.5784,1.5784,1.5591,1.5324,1.5124,1.4843,1.4549,1.4255,1.3986,1.3733,1.3494,1.3454,1.3454,1.3454,1.5269,1.6486,1.6486,1.8431,1.9648,1.9648,1.9658,1.9142,1.8096,1.7266,1.6355,1.5296,1.5255,1.5736,1.6694,1.7493,1.8353,1.9277,1.8965,1.8715,1.8467,1.8519,1.8758,1.988,2.0628,2.1229,2.1817,2.2632,2.318,2.2886,2.2901,2.2752,2.2472,2.2418,2.2512,2.2887,2.3126,2.3327,2.3313,2.2552,2.1884,2.1641,2.0788,2.0494,0.0,2.1416,2.183,2.2405,2.2712,2.2873,2.2873,2.314,2.3166,2.2859,2.2565,2.2405,2.2405,2.2124,2.183,2.1614,2.1614,2.139,2.1096,2.0508,2.008,1.9786,1.9492,1.943,1.943,1.943,1.943,1.943,1.943,1.943,1.943,1.943,1.943,1.943,1.943,1.9172,1.8865,1.8584,1.829,1.7916,1.7675,1.7582,1.7582,1.7569,1.7569,1.7435,1.6847,1.6687,1.654,1.5917,1.5784,1.5784,1.5784,1.5784,1.5784,1.5784,1.5591,1.5391,1.5391,1.5137,1.4843,1.4549,1.4496,1.4389,1.4095,1.4055,1.4055,1.4055,1.597,1.726,1.726,1.9277,2.0566,2.0566,1.961,1.8541,1.7358,1.6314,1.5255,1.4166,1.4124,1.4986,1.6694,1.6733,1.7632,1.9297,1.9277,1.9043,1.8464,1.9199,2.0134,2.0909,2.1844,2.2739,2.3327,2.3688,2.3768,2.3273,2.2699,2.2138,2.1643,2.155,2.1777,2.2458,2.2993,2.3327,2.3327,2.3233,2.2619,2.1212,2.1216,0.0,0.0,0.0,0.0,2.2365,2.2699,2.2928,2.2928,2.3153,2.318,2.2941,2.2766,2.2712,2.2712,2.2418,2.2124,2.183,2.1443,2.1203,2.1096,2.0494,2.0174,2.0054,1.9573,1.943,1.943,1.943,1.943,1.943,1.943,1.943,1.943,1.943,1.943,1.943,1.943,1.9172,1.8905,1.8811,1.845,1.7969,1.7862,1.7742,1.7582,1.7582,1.7582,1.7488,1.7152,1.686,1.6607,1.6219,1.5979,1.5784,1.5784,1.5784,1.5784,1.5784,1.5752,1.5618,1.5431,1.5324,1.5084,1.4589,1.4362,1.4202,1.4095,1.4082,1.4082,1.4082,1.6,1.7293,1.7293,1.9313,2.0605,2.0605,1.959,1.8479,1.7334,1.6273,1.5213,1.4124,1.4082,1.4726,1.6046,1.675,1.7802,1.9102,1.9524,1.9629,1.9279,2.0267,2.1336,2.2217,2.2993,2.3741,2.4115,2.4128,2.3794,2.2873,2.2071,2.1269,2.0481,2.0241,2.0535,2.1617,2.2124,2.2605,2.3233,2.3126,2.2565,2.143,2.1523,2.1416,0.0,0.0,0.0,2.2218,2.2739,2.2979,2.2941,2.3354,2.3447,2.3046,2.3033,2.3033,2.3033,2.2726,2.2378,2.1977,2.139,2.1109,2.1096,2.0615,2.0388,2.0361,1.9773,1.9519,1.9519,1.947,1.943,1.943,1.943,1.943,1.943,1.943,1.943,1.943,1.943,1.9239,1.9065,1.8958,1.8542,1.8129,1.8022,1.7822,1.7582,1.7582,1.7582,1.7515,1.7273,1.7058,1.6767,1.6366,1.6126,1.5965,1.5845,1.5784,1.5784,1.5784,1.5784,1.5765,1.5578,1.5471,1.5271,1.4883,1.4589,1.4322,1.4108,1.4082,1.4082,1.4082,1.6,1.718,1.6899,1.9149,2.0527,2.0379,1.9245,1.8267,1.7573,1.6205,1.5049,1.4242,1.4242,1.4768,1.5834,1.6458,1.7496,1.8997,1.9406,1.9678,2.0788,2.163,2.2378,2.3514,2.3995,2.4195,2.4182,2.3915,2.3247,2.1869,2.0989,2.0201,0.0,0.0,1.8971,2.0414,2.0722,2.1376,2.3126,2.2418,2.1897,0.0,0.0,0.0,0.0,0.0,0.0,2.2031,0.0,2.3193,2.2995,2.3728,2.3941,2.3367,2.3354,2.334,2.3327,2.2993,2.2539,2.1977,2.139,2.1109,2.1096,2.0815,2.0681,2.0641,2.0067,1.9813,1.9773,1.9506,1.9386,1.943,1.943,1.943,1.943,1.943,1.943,1.943,1.943,1.943,1.9377,1.9038,1.8744,1.8437,1.8102,1.7836,1.7582,1.7582,1.7582,1.7515,1.73,1.7206,1.7058,1.6496,1.6348,1.6192,1.5912,1.5798,1.5784,1.5784,1.5784,1.5784,1.5784,1.5591,1.5391,1.5391,1.515,1.4807,1.4202,1.4122,1.4108,1.4108,1.6072,1.7047,1.6244,1.895,2.048,2.0117,1.8684,1.787,1.8037,1.6053,1.483,1.4549,1.4549,1.5043,1.6033,1.5875,1.6862,1.8953,1.9054,1.9346,2.1804,2.2846,2.3714,2.4022,2.4155,2.4142,2.3928,2.2966,2.1949,2.1132,1.9733,1.8557,0.0,0.0,0.0,2.0147,2.1256,0.0,2.3794,2.3901,0.0,2.346,0.0,2.2939,2.2633,2.2739,0.0,0.0,2.2979,2.314,2.3514,2.3955,2.4035,2.3674,2.3661,2.3554,2.3327,2.2579,2.2138,2.1977,2.139,2.1109,2.1096,2.0815,2.0681,2.0655,2.0281,2.0,1.9786,1.972,1.9559,1.943,1.943,1.943,1.943,1.943,1.943,1.943,1.943,1.943,1.9417,1.9279,1.8905,1.8477,1.8397,1.8009,1.7582,1.7582,1.7582,1.7569,1.7541,1.7367,1.7166,1.7018,1.6643,1.6295,1.6179,1.5979,1.5784,1.5784,1.5784,1.5784,1.5784,1.5591,1.5391,1.5391,1.515,1.4955,1.4807,1.4549,1.4402,1.4402,1.645,1.7738,1.7527,2.0021,2.1518,2.1422,1.9407,1.8275,1.8275,1.6169,1.4968,1.4856,1.4843,1.5021,1.5273,1.6618,1.7539,1.8161,1.954,1.9866,2.3113,2.3981,2.4583,2.4583,2.4396,2.3995,2.3166,2.2044,2.1002,2.0261,1.881,1.7632,1.7658,1.7446,0.0,0.0,0.0,0.0,2.338,2.3754,2.3928,0.0,2.4035,0.0,2.3661,2.3688,2.3768,0.0,2.3621,2.3541,2.3754,2.4168,2.4262,2.3968,2.3834,2.3567,2.3126,2.2498,2.2111,2.1977,2.1523,2.1229,2.1096,2.0935,2.0869,2.0855,0.0,2.0334,2.016,1.9907,1.9706,1.9546,1.947,1.943,1.943,1.943,1.943,1.943,1.943,1.943,1.943,1.943,1.9052,1.8651,1.8531,1.8156,1.7756,1.7622,1.7582,1.7582,1.7582,1.7514,1.7367,1.7233,1.6951,1.6643,1.6375,1.6139,1.5979,1.5811,1.5784,1.5784,1.5784,1.5698,1.5591,1.5591,1.5444,1.5337,1.5337,1.4977,1.493,1.5428,1.7103,1.8261,1.847,2.0592,2.1614,2.0912,1.9453,1.8392,1.7894,1.6245,1.5284,1.5196,1.5196,1.5196,1.5196,1.5966,1.6664,1.7301,1.8562,1.9167,2.4502,2.5024,2.5224,2.5104,2.4543,2.3661,2.2245,2.1096,2.0083,1.9276,1.7993,1.7077,1.7377,1.6597,1.6513,1.8263,0.0,2.0307,2.2727,2.3088,2.3487,2.4676,2.4556,2.4489,2.4783,2.4543,2.4462,2.4676,2.4462,2.4195,2.3901,2.4369,2.4516,2.4262,2.3941,2.3514,2.2993,2.2605,2.2271,2.1977,2.1762,2.1403,2.1109,2.1109,2.1109,2.1096,0.0,0.0,2.0628,2.008,1.984,1.9773,1.9479,1.943,1.943,1.943,1.943,1.943,1.943,1.943,1.943,1.943,1.9172,1.8865,1.8584,1.829,1.7929,1.7675,1.7582,1.7582,1.7582,1.7582,1.7515,1.7326,1.7233,1.7058,1.6549,1.6375,1.6179,1.5885,1.5784,1.5784,1.5784,1.5784,1.5784,1.5784,1.5784,1.5879,1.6008,1.5626,1.5707,1.6742,1.7953,1.8926,1.9289,2.1004,2.139,1.9855,1.9244,1.8438,1.7311,1.6327,1.5712,1.5458,1.5458,1.5431,1.5391,1.5181,1.5689,1.6843,1.7571,1.8452,2.5478,2.5945,2.5985,2.5264,2.4075,2.2832,2.1923,2.0013,0.0,1.7707,1.6756,1.6053,1.6143,1.6365,1.7061,1.8597,1.9546,2.0909,2.3273,2.3821,2.4409,0.0,2.5464,2.5398,2.5705,2.5464,0.0,0.0,0.0,2.4796,2.4502,2.4583,2.4609,2.4569,2.4048,2.3714,2.3621,2.2819,2.2271,2.1977,2.1762,2.1403,2.1109,2.1109,2.1109,2.1109,0.0,0.0,2.0655,2.0307,2.0013,1.9773,1.9479,1.943,1.943,1.943,1.943,1.943,1.943,1.943,1.943,1.943,1.9172,1.8865,1.8584,1.829,1.7929,1.7675,1.7582,1.7582,1.7582,1.7582,1.7569,1.7515,1.738,1.7166,1.7072,1.667,1.6179,1.5885,1.5784,1.5784,1.5784,1.5784,1.5784,1.5784,1.5784,1.6197,1.7232,1.7066,1.6906,1.7116,1.9117,2.0505,2.0576,2.2,2.2339,2.106,1.9974,1.8867,1.7641,1.6452,1.5758,1.5752,1.5752,1.5631,1.5391,1.7191,1.8069,1.8148,2.0171,2.0566,2.6172,2.6627,2.66,2.5558,2.4075,2.2674,2.1825,0.0,0.0,1.9105,1.7998,1.6983,1.7623,1.7548,1.7546,1.7943,1.8611,1.9867,2.2071,2.2899,2.3834,2.5317,2.5651,2.5865,0.0,2.5919,0.0,0.0,0.0,2.4957,2.4649,2.4636,2.4569,2.4422,2.3995,2.3701,2.3541,2.2953,2.2432,2.1991,2.1844,2.1537,2.1109,2.1109,2.1109,2.1109,2.1109,0.0,2.0882,2.0588,2.0294,2.0,1.9706,1.9506,1.943,1.943,1.943,1.943,1.943,1.943,1.943,1.943,1.9265,1.9078,1.8624,1.8397,1.8183,1.7716,1.7582,1.7582,1.7582,1.7582,1.7582,1.7582,1.742,1.7206,1.7206,1.6857,1.6406,1.6112,1.6059,1.6005,1.5811,1.5784,1.5784,1.5784,1.5784,1.6021,1.6622,1.7704,1.863,1.9261,2.0377,2.1383,2.197,2.2703,2.258,2.1391,2.0747,1.9906,1.8688,1.7451,1.681,1.681,1.615,1.5765,1.5618,1.6596,1.7372,1.8047,1.9428,1.9997,2.6666,2.7081,2.7054,2.5825,2.4075,2.2483,2.1737,1.9436,1.8059,2.0412,1.9405,1.8319,1.8993,1.8489,1.7829,0.0,1.7542,1.8597,2.0722,2.183,2.306,0.0,2.5611,0.0,2.6373,0.0,0.0,0.0,0.0,0.0,2.4649,2.4636,2.4529,2.4302,2.3955,2.3661,2.342,2.3046,2.2565,2.1991,2.1991,2.1683,2.1109,2.1109,2.1109,2.1109,2.1109,0.0,0.0,2.0802,2.0508,2.014,1.9907,1.9626,1.943,1.943,1.943,1.943,1.943,1.943,1.943,1.943,1.943,1.931,1.8664,1.849,1.8357,1.7756,1.7582,1.7582,1.7582,1.7635,1.7689,1.7689,1.7462,1.7273,1.7219,1.7018,1.6714,1.642,1.6313,1.6206,1.5965,1.5872,1.5784,1.5784,1.5784,1.5927,1.615,1.7902,1.9679,2.115,2.1525,2.2076,2.3013,2.3101,2.258,2.1391,2.1302,2.0747,1.9542,1.8319,1.7684,1.7684,1.6433,1.5758,1.5738,1.6063,1.6895,1.8026,1.8974,1.9815,2.6971,2.7228,2.7308,2.5879,2.3781,2.1981,2.1651,0.0,1.8339,1.9442,1.9497,1.9039,1.8056,1.7807,1.7614,1.7262,1.7246,1.8104,2.0388,2.1697,2.2979,2.4502,0.0,0.0,2.6386,0.0,0.0,0.0,0.0,0.0,2.4636,2.4636,2.4623,2.4596,2.4062,2.3754,2.3728,2.3222,2.2565,2.1991,2.1991,2.1683,2.1109,2.1109,2.1109,2.1109,0.0,0.0,0.0,2.0802,2.0508,2.014,1.9907,1.9626,1.943,1.943,1.943,1.943,1.943,1.943,1.943,1.943,1.943,1.931,1.8664,1.849,1.8357,1.7756,1.7582,1.7582,1.7582,1.7796,1.7955,1.7955,1.7769,1.7527,1.7259,1.7179,1.7072,1.6727,1.646,1.6308,1.6233,1.6005,1.5784,1.5784,1.5784,1.6197,1.7372,1.7731,1.8734,2.106,2.2252,2.2994,2.3101,2.3101,2.258,2.1391,2.1302,2.0747,1.9542,1.8319,1.7684,1.7684,1.6433,1.5698,1.5431,1.7903,1.9072,1.9018,2.1526,2.2553,2.7392,2.7506,2.7081,2.5611,2.3474,2.1897,2.2329,0.0,1.8582,2.1114,2.1078,2.0206,1.8993,1.878,1.8256,1.6627,1.6206,0.0,1.8557,1.9533,2.0922,2.3287,2.4462,0.0,0.0,0.0,0.0,0.0,0.0,0.0,2.4636,2.4636,2.4636,2.4636,2.4075,2.3768,2.3768,2.2993,2.2392,2.1977,2.1804,2.151,2.1109,2.1109,2.1109,2.1109,0.0,0.0,0.0,2.0989,2.0655,2.0167,2.0107,1.9773,1.943,1.943,1.943,1.943,1.943,1.943,1.943,1.943,1.943,1.931,1.8664,1.8611,1.8624,1.8009,1.7849,1.7903,1.8076,1.809,1.7942,1.7809,1.7675,1.7555,1.7435,1.746,1.738,1.7085,1.6924,1.679,1.6567,1.6286,1.6099,1.6099,1.5939,1.5961,1.648,1.7232,1.8056,1.9039,2.0854,2.2315,2.3057,2.3101,2.2906,2.2403,2.2403,2.2183,2.1676,1.9815,1.878,1.878,1.6842,1.5765,1.5658,1.7517,1.8349,1.83,2.011,2.0704,2.7425,2.7597,2.7144,2.5805,2.4036,2.2686,0.0,0.0,1.9588,2.2511,2.2403,2.1346,1.9815,1.9497,1.8672,1.6197,1.5658,1.6005,1.7395,1.8183,1.9519,0.0,0.0,0.0,0.0,0.0,0.0,0.0,0.0,0.0,0.0,2.4556,2.4516,2.4516,2.4035,2.3688,2.35,2.2779,2.2231,2.1857,2.1722,2.1403,2.1109,2.1109,2.1109,2.1109,0.0,0.0,0.0,2.1109,2.0815,2.0361,2.0267,1.9933,1.9492,1.9457,1.943,1.943,1.943,1.943,1.943,1.943,1.943,1.9279,1.8771,1.8704,1.8704,1.8277,1.817,1.825,1.8544,1.833,1.7955,1.7889,1.7716,1.7582,1.7582,1.7582,1.7515,1.7367,1.7259,1.7139,1.6874,1.6526,1.6321,1.6321,1.6019,1.5784,1.5784,1.6574,1.7279,1.7638,1.9222,2.0719,2.1943,2.205,2.205,2.205,2.2359,2.2403,2.205,2.0404,1.9314,1.8948,1.6889,1.5784,1.5784,1.7091,1.787,1.8272,1.9497,1.9844,2.7048,2.7516,2.7482,2.6617,2.5729,2.4606,2.2975,2.1909,2.1614,2.2862,2.3101,2.2359,1.9951,1.9497,1.8672,1.6197,1.5784,0.0,1.7422,1.8357,1.9359,0.0,0.0,0.0,0.0,0.0,0.0,0.0,0.0,0.0,0.0,2.4369,2.4209,2.4209,2.3928,2.3474,2.2941,2.2565,2.2124,2.1614,2.1614,2.1403,2.1109,2.1109,2.1109,0.0,0.0,0.0,0.0,2.1109,2.0935,2.0641,2.0347,2.0054,1.976,1.9466,1.943,1.943,1.943,1.943,1.943,1.943,1.943,1.9319,1.9011,1.8718,1.849,1.849,1.849,1.8557,1.8838,1.8435,1.8062,1.841,1.8023,1.7582,1.7582,1.7582,1.7582,1.7582,1.7393,1.7206,1.7192,1.671,1.6321,1.6321,1.6019,1.5784,1.5784,1.5832,1.6292,1.7544,1.7731,1.8226,1.9451,1.9542,1.9542,1.9542,2.0657,2.0792,1.9588,1.9497,1.8948,1.7731,1.648,1.5784,1.5784,1.7091,1.8319,1.9497,2.0702,2.1302,2.6092,2.6032,2.555,2.4874,2.3873,2.3031,2.2977,2.2088,2.1658,2.2862,2.2448,2.1614,2.0881,1.9175,1.7827,1.7417,1.6704,0.0,0.0,0.0,0.0,0.0,0.0,0.0,0.0,0.0,0.0,0.0,0.0,0.0,0.0,2.4249,2.4209,2.4209,2.3728,2.3273,2.2928,2.2378,2.1937,2.1614,2.1349,2.1203,2.1109,2.1109,0.0,0.0,0.0,0.0,0.0,2.1109,2.0935,2.0668,2.0575,2.0227,1.9786,1.9693,1.9533,1.943,1.943,1.943,1.943,1.943,1.943,1.9403,1.9252,1.9158,1.9011,1.8611,1.849,1.841,1.809,1.8023,1.7955,1.7903,1.7729,1.7582,1.7582,1.7582,1.7582,1.7582,1.7502,1.7448,1.7448,1.6954,1.6567,1.6567,1.6152,1.5784,1.5784,1.5784,1.5961,1.6339,1.6386,1.725,1.9314,1.9497,1.9497,1.9497,1.9861,1.9906,1.9542,1.8734,1.8087,1.7684,1.6433,1.5784,1.5784,1.7091,1.7917,1.8272,1.7762,1.7515,2.5498,2.537,2.4862,2.4457,2.3908,2.3391,2.3015,2.2441,2.2076,2.2359,2.1725,2.0846,1.9939,1.8255,1.7026,1.6961,1.638,0.0,0.0,0.0,0.0,0.0,0.0,0.0,0.0,0.0,0.0,0.0,0.0,0.0,0.0,2.4102,2.3995,2.3875,2.3407,2.2953,2.2539,2.2058,2.167,2.139,2.1203,2.1109,2.1109,2.1109,0.0,0.0,0.0,0.0,0.0,2.1109,2.1002,2.0815,2.0588,2.0281,1.9933,1.972,1.9519,1.943,1.943,1.943,1.943,1.943,1.943,1.943,1.943,1.9292,1.9118,1.8758,1.8571,1.8424,1.8156,1.8156,1.817,1.7969,1.7836,1.7756,1.7756,1.7662,1.7582,1.7582,1.7582,1.7582,1.7582,1.7194,1.6834,1.6727,1.6299,1.5952,1.5798,1.5784,1.5872,1.5979,1.5899,1.6475,1.8162,1.8195,1.8118,1.8118,1.8534,1.8626,1.8118,1.7824,1.7451,1.6998,1.6197,1.5784,1.5784,1.7091,1.7684,1.7684,1.6904,1.6527,0.0,2.5295,2.5038,2.5038,2.5282,2.4996,2.3015,2.2814,0.0,2.1585,2.1054,2.0192,1.8,1.7158,1.6492,1.5525,1.5435,0.0,0.0,1.7929,0.0,0.0,0.0,0.0,0.0,0.0,0.0,0.0,0.0,0.0,0.0,0.0,2.3607,2.33,2.2966,2.2539,2.1991,2.1762,2.1403,2.1109,2.1109,2.1109,2.1109,2.1109,0.0,0.0,0.0,0.0,0.0,2.1109,2.1109,2.1056,2.0481,2.0193,2.016,1.9599,1.9444,1.943,1.943,1.943,1.943,1.943,1.943,1.943,1.943,1.9145,1.8891,1.8891,1.8691,1.8517,1.8798,1.8677,1.849,1.8464,1.8263,1.8022,1.7995,1.7836,1.7635,1.7622,1.7609,1.7609,1.7582,1.7393,1.7112,1.678,1.6486,1.6206,1.5878,1.5838,1.5992,1.6273,1.6046,1.5979,1.6286,1.6019,1.5784,1.5784,1.6904,1.7044,1.5832,1.6951,1.6998,1.5832,1.5784,1.5784,1.5784,1.6998,1.7544,1.7544,1.7544,1.7544,2.3164,0.0,2.3564,2.3564,2.3647,2.3499,0.0,2.2568,2.2473,2.189,2.094,2.0431,2.1121,1.8742,1.71,1.8503,0.0,0.0,0.0,0.0,0.0,0.0,0.0,0.0,0.0,0.0,0.0,0.0,0.0,0.0,0.0,0.0,2.3287,2.2979,2.2458,2.2124,2.1991,2.1762,2.1403,2.1109,2.1109,2.1109,2.1109,2.1109,0.0,0.0,0.0,0.0,2.1109,2.1109,2.1109,2.1069,2.0708,2.0428,2.0187,1.9826,1.9559,1.943,1.943,1.943,1.943,1.943,1.943,1.943,1.943,1.9011,1.8597,1.8597,1.8384,1.8115,1.8182,1.837,1.8437,1.821,1.8277,1.833,1.8035,1.817,1.821,1.7983,1.7943,1.7862,1.7622,1.7393,1.7179,1.7112,1.6794,1.658,1.6513,1.65,1.6526,1.6593,1.6339,1.6286,1.658,1.6126,1.5784,1.5784,1.6055,1.6103,1.5832,1.6103,1.6103,1.5832,1.5784,1.5784,1.5784,1.6103,1.6244,1.6244,1.6244,1.6244,2.2285,2.2539,2.2808,2.2808,2.2945,2.2984,2.2617,2.2519,2.2213,2.1225,2.0361,1.9913,2.0274,1.8163,1.6799,0.0,1.7347,0.0,0.0,0.0,0.0,0.0,0.0,0.0,0.0,0.0,0.0,0.0,0.0,0.0,0.0,2.2979,2.2766,2.2472,2.2017,2.1857,2.1991,2.1563,2.1269,2.1109,2.1109,2.1109,2.1109,2.1109,2.1109,0.0,0.0,0.0,2.1096,2.0962,2.0989,2.1056,2.0494,2.0254,2.0127,1.976,1.9506,1.943,1.943,1.943,1.943,1.943,1.943,1.943,1.943,1.9052,1.8718,1.8851,1.8584,1.8277,1.8355,1.8571,1.8611,1.8317,1.837,1.841,1.8049,1.8115,1.8237,1.8022,1.7995,1.7942,1.7822,1.7542,1.7353,1.7219,1.7058,1.686,1.6727,1.67,1.6754,1.6901,1.6647,1.6593,1.6887,1.6486,1.6179,1.6046,1.5899,1.5784,1.5784,1.5784,1.5784,1.5784,1.5965,1.5965,1.5784,1.5965,1.5965,1.5784,1.5784,1.5784,2.1973,2.2187,2.2457,2.221,2.2515,2.2703,2.2264,2.2186,2.1835,2.0466,1.9975,1.9552,1.8589,1.736,0.0,0.0,0.0,0.0,0.0,0.0,0.0,0.0,0.0,0.0,0.0,0.0,0.0,0.0,0.0,0.0,0.0,2.2485,0.0,2.1991,2.1775,2.1735,2.1924,2.1376,2.1109,2.1109,2.1109,2.1109,2.1109,2.1109,2.1109,0.0,0.0,0.0,2.1015,2.0735,2.0748,2.0895,2.0107,1.9947,2.0107,1.9559,1.943,1.943,1.943,1.943,1.943,1.943,1.943,1.943,1.943,1.9185,1.9052,1.9292,1.8971,1.8611,1.8865,1.8918,1.8865,1.8624,1.8557,1.849,1.8182,1.8155,1.8182,1.8129,1.8089,1.8049,1.7995,1.7796,1.7502,1.73,1.7259,1.7179,1.6874,1.6847,1.6941,1.7246,1.6954,1.6901,1.7246,1.6901,1.672,1.675,1.6182,1.5824,1.5784,1.5784,1.5784,1.5784,1.6072,1.6086,1.5784,1.6265,1.6361,1.6103,1.6103,1.6103,2.1894,2.2187,2.221,2.0861,2.1065,2.1386,2.0723,2.0772,2.0998,2.1017,2.0988,2.1005,2.1247,1.9583,1.8563,0.0,0.0,0.0,0.0,0.0,0.0,0.0,0.0,0.0,0.0,0.0,0.0,0.0,0.0,0.0,0.0,0.0,2.2031,2.1991,2.1775,2.1641,2.1681,2.1283,2.1109,2.1109,2.1109,2.1109,2.1109,2.1109,2.1109,0.0,0.0,2.0735,2.0722,2.0428,2.0334,2.0334,1.9947,1.9826,1.9826,1.9492,1.943,1.943,1.943,1.943,1.943,1.943,1.943,1.943,1.943,1.9332,1.9305,1.9417,1.9118,1.8865,1.8918,1.8918,1.8918,1.8865,1.8865,1.8838,1.8741,1.8985,1.9092,1.8838,1.8584,1.8343,1.8035,1.7796,1.7569,1.7515,1.7515,1.7502,1.7448,1.7448,1.7462,1.7515,1.7313,1.7246,1.7488,1.7021,1.7282,1.8684,1.7176,1.6086,1.5798,1.5784,1.5784,1.5784,1.5872,1.5872,1.5784,1.6947,1.7463,1.7404,1.7404,1.7404,2.1349,2.166,2.1858,2.0521,2.0931,2.1293,1.9791,1.9565,1.9678,1.9607,1.9567,1.9691,2.0039,0.0,1.8813,1.992,0.0,0.0,0.0,0.0,0.0,0.0,0.0,0.0,0.0,0.0,0.0,0.0,0.0,0.0,0.0,0.0,2.151,2.151,2.1376,2.1309,2.1309,2.1176,2.1109,2.1109,2.1109,2.1109,2.1109,2.1109,2.1029,2.0869,0.0,2.0588,2.0414,2.012,2.0094,2.0187,1.9746,1.9666,1.976,1.9479,1.943,1.943,1.943,1.943,1.943,1.943,1.943,1.943,1.943,1.943,1.943,1.943,1.9265,1.9158,1.9158,1.9158,1.9118,1.8958,1.8918,1.8878,1.8731,1.8918,1.9092,1.8945,1.8811,1.8624,1.8343,1.8036,1.7769,1.7609,1.7582,1.7582,1.7582,1.7582,1.7582,1.7582,1.7514,1.7487,1.7569,1.7328,1.7408,1.7809,1.7676,1.7204,1.6313,1.6152,1.6139,1.6299,1.6299,1.6641,1.7341,1.7428,1.762,1.8,1.7289,1.6824,2.0937,2.1109,2.1294,2.0534,2.1075,2.1516,2.0212,1.96,1.934,1.9512,1.9457,1.9322,1.9096,1.9205,0.0,1.9739,0.0,0.0,0.0,0.0,0.0,0.0,0.0,0.0,0.0,0.0,0.0,0.0,0.0,0.0,0.0,0.0,2.1109,2.1109,2.1109,2.1109,2.1109,2.1109,2.1109,2.1109,2.1109,2.1109,2.1109,2.1042,2.0882,2.0668,2.0535,2.0347,2.0107,1.9813,1.9826,1.9987,1.9546,1.9506,1.9666,1.9511,1.943,1.943,1.943,1.943,1.943,1.943,1.943,1.943,1.943,1.943,1.943,1.943,1.943,1.943,1.943,1.9319,1.9225,1.9065,1.8971,1.8878,1.8731,1.8878,1.9025,1.9025,1.8971,1.8824,1.8544,1.8237,1.7889,1.7622,1.7582,1.7582,1.7582,1.7582,1.7582,1.7582,1.7582,1.7609,1.7689,1.7939,1.7773,1.7048,1.8046,1.8114,1.675,1.6486,1.6473,1.67,1.67,1.7186,1.8213,1.7722,1.7796,1.833,1.728,1.6683,2.1268,2.075,2.0389,2.0623,2.1013,2.1672,2.2881,2.1844,2.118,2.3108,2.3185,2.2438,2.0769,2.1482,2.1806,2.0096,0.0,0.0,0.0,0.0,0.0,0.0,0.0,0.0,0.0,0.0,0.0,0.0,0.0,0.0,0.0,0.0,0.0,2.1109,2.1109,2.1109,2.1109,2.1109,2.1109,2.1109,2.1109,2.1109,2.1096,2.0828,2.0695,2.0641,2.0094,1.9853,1.9813,1.9519,1.947,1.9426,1.9444,1.9386,1.9457,1.943,1.943,1.943,1.943,1.943,1.943,1.943,1.943,1.943,1.943,1.943,1.943,1.943,1.943,1.943,1.943,1.9158,1.9025,1.9279,1.9118,1.8998,1.9252,1.9377,1.9332,1.9332,1.9118,1.8824,1.8544,1.8237,1.7889,1.7622,1.7582,1.7582,1.7582,1.7582,1.7582,1.7582,1.7582,1.7702,1.7942,1.8878,1.9031,1.7983,1.8419,1.8114,1.675,1.6687,1.6687,1.67,1.67,1.675,1.685,1.7896,1.8425,1.8479,1.838,1.8316,2.1016,2.1219,2.1674,2.1802,2.1806,2.1841,2.2132,2.103,2.0271,2.1518,2.1978,2.1889,2.123,0.0,2.0772,0.0,0.0,0.0,0.0,0.0,0.0,0.0,0.0,0.0,0.0,0.0,0.0,0.0,0.0,0.0,0.0,0.0,0.0,2.1109,2.1109,2.1109,2.1109,2.0922,2.0842,2.0842,2.1029,2.1109,2.1096,2.0815,2.0575,2.0374,1.9973,1.9693,1.9519,1.9412,1.943,1.943,1.943,1.943,1.943,1.943,1.943,1.943,1.943,1.943,1.943,1.943,1.943,1.943,1.943,1.943,1.943,1.943,1.943,1.943,1.943,1.9279,1.9225,1.9345,1.9279,1.9225,1.9345,1.943,1.943,1.943,1.9279,1.9052,1.8571,1.8397,1.821,1.7903,1.7862,1.7876,1.7876,1.7876,1.7796,1.7609,1.7756,1.7862,1.7982,1.9316,1.9618,1.8372,1.8936,1.8658,1.73,1.7074,1.7061,1.7248,1.7125,1.752,1.8505,1.811,1.8252,1.8905,1.8067,1.758,2.0683,2.0654,2.101,2.2194,2.2152,2.2113,2.3157,2.1496,2.021,2.204,2.205,2.1658,2.1496,0.0,0.0,0.0,0.0,0.0,0.0,0.0,0.0,0.0,0.0,0.0,0.0,0.0,0.0,0.0,0.0,0.0,0.0,0.0,0.0,0.0,2.0828,2.0828,2.0828,2.0641,2.0535,2.0535,2.0735,2.0882,2.0962,2.0575,2.0334,2.0153,1.9826,1.9546,1.943,1.943,1.943,1.943,1.943,1.943,1.943,1.943,1.943,1.943,1.943,1.943,1.943,1.943,1.943,1.943,1.943,1.943,1.943,1.943,1.943,1.943,1.943,1.943,1.943,1.943,1.943,1.943,1.943,1.943,1.943,1.943,1.943,1.9269,1.8718,1.8557,1.8424,1.8196,1.8103,1.8022,1.8115,1.8129,1.8103,1.7889,1.8063,1.8169,1.8262,1.9276,1.9484,1.868,1.8996,1.8805,1.7782,1.7448,1.7434,1.7582,1.7434,1.7888,1.8968,1.8042,1.7984,1.8702,1.774,1.7181,2.0333,1.8806,1.7814,2.1568,2.1989,2.2603,2.6717,2.3871,2.1536,2.5741,2.436,2.2221,2.1717,2.1756,0.0,0.0,0.0,0.0,0.0,0.0,0.0,0.0,0.0,0.0,0.0,0.0,0.0,0.0,0.0,0.0,0.0,0.0,0.0,0.0,2.0167,2.0167,2.0167,2.0227,2.0227,2.0227,2.0167,2.0374,2.0655,2.0067,1.996,2.0201,1.9626,1.943,1.943,1.943,1.943,1.943,1.943,1.943,1.943,1.943,1.943,1.943,1.943,1.943,1.943,1.943,1.943,1.943,1.943,1.943,1.943,1.943,1.943,1.943,1.943,1.943,1.943,1.943,1.943,1.943,1.943,1.943,1.943,1.943,1.943,1.9265,1.8971,1.8691,1.849,1.849,1.8237,1.8102,1.8464,1.849,1.849,1.849,1.849,1.8611,1.8905,1.8664,1.8624,1.8905,1.8651,1.8357,1.8009,1.7756,1.7595,1.7595,1.7595,1.7582,1.7582,1.7582,1.7582,1.7582,1.7582,1.7582,1.9683,1.9344,1.9364,2.0078,2.0922,2.2149,2.4345,2.3591,2.3158,2.5649,2.4067,2.2632,2.3857,2.412,0.0,0.0,0.0,0.0,0.0,0.0,0.0,0.0,0.0,0.0,0.0,0.0,0.0,0.0,0.0,0.0,0.0,0.0,0.0,0.0,2.0167,2.0167,2.0167,2.0027,1.9933,1.992,1.972,1.988,2.0347,1.9973,1.984,1.9907,1.9533,1.943,1.943,1.943,1.943,1.943,1.943,1.943,1.943,1.943,1.943,1.943,1.943,1.943,1.943,1.943,1.943,1.943,1.943,1.943,1.943,1.943,1.943,1.943,1.943,1.943,1.943,1.943,1.943,1.943,1.943,1.943,1.943,1.943,1.943,1.9265,1.8971,1.8851,1.8798,1.8798,1.8718,1.8691,1.8784,1.8437,1.8263,1.8464,1.8677,1.8824,1.8918,1.9038,1.9145,1.9225,1.8958,1.8664,1.837,1.8277,1.8223,1.8223,1.8009,1.7849,1.7849,1.7689,1.7582,1.7582,1.7809,1.7796,1.9159,1.9163,1.9474,2.056,2.1676,2.2775,2.3894,2.4942,2.5754,2.594,2.5222,2.4512,2.4311,2.476,0.0,0.0,0.0,0.0,0.0,0.0,0.0,0.0,0.0,0.0,0.0,0.0,0.0,0.0,0.0,0.0,0.0,0.0,0.0,0.0,1.9893,1.9893,1.9893,1.972,1.9626,1.9626,1.9511,1.9546,1.988,1.9706,1.9693,1.9786,1.9492,1.943,1.943,1.943,1.943,1.943,1.943,1.943,1.943,1.943,1.943,1.943,1.943,1.943,1.943,1.943,1.943,1.943,1.943,1.943,1.943,1.943,1.943,1.943,1.943,1.943,1.943,1.943,1.943,1.943,1.943,1.943,1.943,1.943,1.943,1.9319,1.9132,1.8998,1.8958,1.9078,1.9105,1.9105,1.9105,1.8784,1.8637,1.8824,1.8998,1.9105,1.9105,1.9265,1.943,1.943,1.9199,1.9025,1.8851,1.8611,1.849,1.849,1.8317,1.8115,1.7995,1.7969,1.7889,1.7769,1.7902,1.7889,1.8927,1.8609,1.8574,2.2173,2.3562,2.428,2.5246,2.7344,2.8478,2.6564,0.0,2.7299,2.4141,0.0,0.0,0.0,0.0,0.0,0.0,0.0,0.0,0.0,0.0,0.0,0.0,0.0,0.0,0.0,0.0,0.0,0.0,0.0,0.0,0.0,1.9345,1.9345,1.943,1.943,1.943,0.0,1.943,1.943,1.943,1.943,1.9506,1.9746,1.9479,1.943,1.943,1.943,1.943,1.943,1.943,1.943,1.943,1.943,1.943,1.943,1.943,1.943,1.943,1.943,1.943,1.943,1.943,1.943,1.943,1.943,1.943,1.943,1.943,1.943,1.943,1.943,1.943,1.943,1.943,1.943,1.943,1.943,1.943,1.943,1.943,1.9145,1.9052,1.9332,1.9345,1.939,1.9417,1.9345,1.9403,1.9457,1.9386,1.943,1.9399,1.9386,1.943,1.943,1.943,1.943,1.943,1.8851,1.8571,1.8571,1.8544,1.8397,1.8075,1.837,1.8343,1.8035,1.8062,1.8062,1.9461,1.8783,1.8606,2.1489,2.3702,2.5973,2.8907,2.9043,2.8367,2.7677,2.802,2.8104,0.0,0.0,0.0,0.0,0.0,0.0,0.0,0.0,0.0,0.0,0.0,0.0,0.0,0.0,0.0,0.0,0.0,0.0,0.0,0.0,0.0,1.9417,1.9145,1.9132,1.9417,1.943,1.943,0.0,1.943,1.943,1.943,1.943,1.9457,1.9452,1.9457,1.943,1.943,1.943,1.943,1.943,1.943,1.943,1.943,1.943,1.943,1.943,1.943,1.943,1.943,1.943,1.943,1.943,1.943,1.943,1.943,1.943,1.943,1.943,1.943,1.943,1.943,1.943,1.943,1.943,1.943,1.943,1.943,1.943,1.943,1.943,1.943,1.9319,1.9292,1.9417,1.9172,1.9105,1.939,1.9158,1.9199,1.9653,1.9506,1.9466,1.9693,1.9492,1.943,1.943,1.943,1.943,1.943,1.931,1.9229,1.9229,1.8945,1.8798,1.8731,1.8571,1.8464,1.8397,1.8624,1.8611,1.9675,1.9629,2.0169,2.3116,2.5069,2.6895,2.8963,2.7993,2.69,2.7539,2.8674,0.0,0.0,0.0,0.0,0.0,0.0,0.0,0.0,0.0,0.0,0.0,0.0,0.0,0.0,0.0,0.0,0.0,0.0,0.0,0.0,1.9092,1.8998,1.9145,1.8998,1.8998,1.9158,1.9158,1.9225,1.943,1.9225,1.9225,1.943,1.943,1.943,1.943,1.943,1.943,1.943,1.943,1.943,1.943,1.943,1.9279,1.9172,1.9319,1.9279,1.9172,1.9319,1.943,1.943,1.943,1.943,1.943,1.943,1.943,1.943,1.943,1.943,1.943,1.943,1.943,1.943,1.943,1.943,1.943,1.943,1.943,1.943,1.943,1.943,1.943,1.943,1.943,1.943,1.943,1.9359,1.9399,1.9559,1.9559,1.9666,1.9973,1.9867,1.984,2.0,1.9746,1.9573,1.9573,1.9439,1.943,1.943,1.943,1.943,1.943,1.9212,1.9065,1.8918,1.8918,1.8838,1.8704,1.8851,1.8838,1.9921,2.0992,2.2354,2.4738,2.5995,2.6836,2.7535,2.6062,2.497,2.6531,0.0,0.0,0.0,0.0,0.0,0.0,0.0,0.0,0.0,0.0,0.0,0.0,0.0,0.0,0.0,0.0,0.0,0.0,0.0,0.0,1.9292,1.9011,1.8851,1.8851,1.8741,1.8798,1.8851,1.8851,1.8971,1.9212,1.9011,1.9052,1.9292,1.9292,1.9292,1.9292,1.9292,1.9265,1.9212,1.9212,1.9252,1.9292,1.9292,1.9172,1.9025,1.9279,1.9212,1.9038,1.9279,1.943,1.943,1.943,1.943,1.943,1.943,1.943,1.943,1.943,1.943,1.943,1.943,1.943,1.943,1.943,1.943,1.943,1.943,1.943,1.943,1.943,1.943,1.943,1.943,1.947,1.9439,1.9439,1.9693,1.988,1.988,2.008,2.0193,2.0307,2.0207,2.0193,2.0307,2.004,1.988,1.988,1.9653,1.9519,1.9519,1.9519,1.9519,1.9519,1.947,1.9239,1.8998,1.9252,1.9239,1.8998,1.8998,1.8998,2.0816,2.2751,2.4316,2.3234,2.3839,2.5178,0.0,0.0,2.3402,0.0,0.0,0.0,0.0,0.0,0.0,0.0,0.0,0.0,0.0,0.0,0.0,0.0,0.0,0.0,0.0,0.0,0.0,0.0,0.0,0.0,1.8998,1.8704,1.8544,1.8544,1.8303,1.8235,1.8544,1.8544,1.8571,1.8611,1.8824,1.8945,1.8985,1.8985,1.8985,1.8985,1.8985,1.8838,1.8611,1.8611,1.8758,1.8985,1.8985,1.9118,1.9319,1.9359,1.9345,1.9319,1.9359,1.943,1.943,1.943,1.943,1.943,1.943,1.943,1.943,1.943,1.943,1.943,1.943,1.943,1.943,1.943,1.943,1.943,1.943,1.943,1.943,1.943,1.943,1.943,1.943,1.9573,1.9746,1.9746,1.9987,2.0174,2.0174,2.0214,2.0334,2.0588,2.0388,2.0334,2.0601,2.0347,2.0174,2.0174,2.0134,2.012,2.012,2.012,2.012,2.012,1.9626,1.9403,1.9305,1.9403,1.9403,1.9305,1.9305,1.9305,2.1641,2.2949,2.4033,2.4212,2.4137,2.4509,2.6654,2.481,2.3094,0.0,0.0,0.0,0.0,0.0,0.0,0.0,0.0,0.0,0.0,0.0,0.0,0.0,0.0,0.0,0.0,0.0,0.0,0.0,0.0,1.8824,1.8691,1.9153,1.9405,1.9405,1.9263,1.9263,1.9391,1.8605,1.8237,1.8223,1.8531,1.8677,1.8677,1.8677,1.8771,1.8918,1.8744,1.8611,1.849,1.849,1.8571,1.8691,1.8865,1.8905,1.8918,1.931,1.9265,1.9145,1.9305,1.943,1.943,1.943,1.943,1.943,1.943,1.943,1.943,1.943,1.943,1.943,1.943,1.943,1.943,1.943,1.943,1.943,1.943,1.943,1.943,1.943,1.943,1.947,1.9586,1.972,1.9853,2.0013,2.0294,2.0481,2.0481,2.0628,2.0775,2.0909,2.0802,2.0775,2.0909,2.0655,2.0481,2.0481,2.0321,2.0167,2.0167,2.0167,2.0167,2.0167,1.9987,1.9853,1.9853,1.9693,1.9613,1.9599,1.9439,1.943,2.1758,2.2402,2.3013,2.4085,2.3807,2.3722,0.0,0.0,0.0,0.0,0.0,0.0,0.0,0.0,0.0,0.0,0.0,0.0,0.0,0.0,0.0,0.0,0.0,0.0,0.0,0.0,0.0,0.0,0.0,1.8988,1.8906,1.9682,2.0249,2.0511,2.0382,2.0337,2.0337,1.895,1.8316,1.8438,1.8387,1.8384,1.8384,1.8384,1.849,1.8635,1.8477,1.8384,1.8384,1.8384,1.8464,1.8611,1.8758,1.8731,1.8651,1.9092,1.9118,1.8971,1.9265,1.943,1.943,1.943,1.943,1.943,1.943,1.943,1.943,1.943,1.943,1.943,1.943,1.943,1.943,1.943,1.943,1.943,1.943,1.943,1.943,1.943,1.943,1.9466,1.9746,1.9867,2.0013,2.0294,2.0601,2.0788,2.0788,2.0975,2.1109,2.1109,2.1109,2.1109,2.1109,2.0909,2.0788,2.0788,2.0575,2.0454,2.0454,2.0454,2.0454,2.0454,2.0454,2.0326,2.0167,2.0013,1.9907,1.9907,1.9693,1.9546,2.0683,2.1329,2.1758,2.0804,2.1461,2.21,0.0,0.0,0.0,0.0,0.0,0.0,0.0,0.0,0.0,0.0,0.0,0.0,0.0,0.0,0.0,0.0,0.0,0.0,0.0,0.0,0.0,0.0,0.0,2.0264,2.0006,2.0083,2.0548,2.1591,2.1196,2.0966,2.0966,1.9648,1.9154,1.9502,1.8491,1.8009,1.8009,1.8009,1.8022,1.8035,1.8022,1.8009,1.8009,1.8009,1.8342,1.8878,1.8611,1.8677,1.8905,1.8931,1.8931,1.8971,1.9265,1.943,1.943,1.943,1.943,1.943,1.943,1.943,1.943,1.943,1.943,1.943,1.943,1.943,1.943,1.943,1.943,1.943,1.943,1.943,1.943,1.943,1.943,1.9466,1.9746,2.0027,2.0307,2.0615,2.0895,2.1082,2.1082,2.1096,2.1109,2.1109,2.1109,2.1109,2.1109,2.1096,2.1082,2.1082,2.1069,2.1069,2.1069,2.1069,2.1069,2.1069,2.1069,2.0788,2.0167,2.0214,2.0153,2.0153,2.0127,2.004,2.0918,2.1016,2.1131,2.1271,2.0973,2.0908,2.1752,0.0,0.0,0.0,0.0,0.0,0.0,0.0,0.0,0.0,0.0,0.0,0.0,0.0,0.0,0.0,0.0,0.0,0.0,0.0,0.0,0.0,0.0,0.0,2.1123,2.1412,2.1856,2.2502,2.2136,2.1494,2.0622,1.9529,1.9057,1.9227,1.8227,1.7756,1.7756,1.7756,1.7756,1.7756,1.7756,1.7756,1.7756,1.7756,1.7876,1.8076,1.817,1.8222,1.8355,1.8784,1.8918,1.8971,1.9265,1.943,1.943,1.943,1.943,1.943,1.943,1.943,1.943,1.943,1.943,1.943,1.943,1.943,1.943,1.943,1.9506,1.9639,1.9639,1.9639,1.9639,1.9639,1.98,2.0013,2.0307,2.0454,2.0615,2.0909,2.1042,2.1109,2.1109,2.1109,2.1109,2.1109,2.1109,2.1109,2.1109,2.1109,2.1109,2.1109,2.1109,2.1109,2.1109,2.1109,2.1109,2.1109,2.1109,2.1002,2.0802,2.0601,2.0521,2.0508,2.0321,2.0174,2.0937,2.0801,2.0781,0.0,2.0851,2.0297,2.1244,0.0,0.0,0.0,0.0,0.0,0.0,0.0,0.0,0.0,0.0,0.0,0.0,0.0,0.0,0.0,0.0,0.0,0.0,0.0,0.0,0.0,0.0,0.0,2.1924,2.2206,2.2659,2.323,2.3019,2.2452,2.1543,2.0622,1.9978,1.9637,1.8706,1.8042,1.7582,1.7582,1.7582,1.7582,1.7582,1.7702,1.7876,1.7782,1.7849,1.8036,1.7982,1.7995,1.8049,1.8597,1.8784,1.8838,1.9225,1.943,1.943,1.943,1.943,1.943,1.943,1.943,1.943,1.943,1.943,1.943,1.943,1.943,1.943,1.943,1.9586,1.98,1.98,1.988,1.9947,1.9947,2.0094,2.0334,2.0628,2.0681,2.0775,2.1069,2.1109,2.1109,2.1109,2.1109,2.1109,2.1109,2.1109,2.1109,2.1109,2.1109,2.1109,2.1109,2.1109,2.1109,2.1109,2.1109,2.1109,2.1109,2.1109,2.1109,2.1109,2.0909,2.0815,2.0815,2.0615,2.0468,0.0,0.0,0.0,2.1073,0.0,0.0,1.9589,0.0,0.0,0.0,0.0,0.0,0.0,0.0,0.0,0.0,0.0,0.0,0.0,0.0,0.0,0.0,0.0,0.0,0.0,0.0,0.0,0.0,0.0,2.2445,2.2463,2.2445,2.2843,2.3744,2.3769,2.3769,2.3769,2.2871,2.1926,2.0983,2.001,1.8916,1.7582,1.7582,1.7582,1.7582,1.7582,1.7929,1.845,1.8156,1.8315,1.8824,1.8195,1.7982,1.8009,1.837,1.849,1.8571,1.9158,1.943,1.943,1.943,1.943,1.943,1.943,1.943,1.943,1.943,1.943,1.943,1.943,1.943,1.943,1.943,1.9599,1.9813,1.9826,2.0054,2.0193,2.0254,2.0193,2.0347,2.0641,2.0695,2.0788,2.1069,2.1109,2.1109,2.1109,2.1109,2.1109,2.1109,2.1109,2.1109,2.1109,2.1109,2.1109,2.1109,2.1109,2.1109,2.1109,2.1109,2.1109,2.1109,2.1109,2.1109,2.1109,2.1109,2.1109,2.1109,2.1109,2.0962,2.0703,0.0,0.0,0.0,0.0,0.0,2.0311,2.008,0.0,0.0,0.0,0.0,0.0,0.0,0.0,0.0,0.0,0.0,0.0,0.0,0.0,0.0,0.0,0.0,0.0,0.0,0.0,0.0,2.34,2.3534,2.382,2.3572,2.339,2.3296,2.3276,2.3276,2.3276,2.2695,2.1787,2.0589,1.9902,1.8916,1.7582,1.7582,1.7582,1.7582,1.7582,1.7809,1.8089,1.7836,1.7809,1.7943,1.7769,1.7716,1.7769,1.8303,1.849,1.8571,1.9158,1.943,1.943,1.943,1.943,1.943,1.943,1.943,1.943,1.943,1.943,1.943,1.943,1.943,1.9426,1.9626,1.9907,2.0174,2.0388,2.0668,2.0802,2.0588,2.0722,2.0895,2.0975,2.0989,2.1015,2.1096,2.1109,2.1109,2.1109,2.1109,2.1109,2.1109,2.1109,2.1109,2.1109,2.1109,2.1109,2.1109,2.1109,2.1109,2.1109,2.1109,2.1109,2.1109,2.1109,2.1109,2.1109,2.1109,2.1109,2.1109,2.1109,2.1069,2.1231,2.1309,2.1445,2.1191,0.0,0.0,2.0332,1.9659,1.92,0.0,0.0,0.0,0.0,0.0,0.0,0.0,0.0,0.0,0.0,0.0,0.0,0.0,0.0,0.0,0.0,0.0,0.0,2.3535,2.3516,2.3633,2.3867,2.3652,2.3398,2.3101,2.3101,2.3101,2.3101,2.3021,2.2304,2.0989,2.0438,1.9394,1.7979,1.7723,1.7515,1.746,1.7528,1.7689,1.7836,1.7662,1.7662,1.7769,1.7635,1.7582,1.7649,1.8263,1.849,1.8571,1.9158,1.943,1.943,1.943,1.943,1.943,1.943,1.943,1.943,1.943,1.943,1.9457,1.9519,1.9546,1.9626,1.9907,2.0201,2.0468,2.0641,2.0909,2.1056,2.0895,2.0989,2.1109,2.1109,2.1109,2.1109,2.1109,2.1109,2.1109,2.1109,2.1109,2.1109,2.1109,2.1109,2.1109,2.1109,2.1109,2.1109,2.1109,2.1109,2.1109,2.1109,2.1109,2.1109,2.1109,2.1109,2.1109,2.1109,2.1109,2.1109,2.1109,2.1109,2.1109,2.1894,2.1914,2.1953,0.0,0.0,0.0,2.0156,1.9397,1.8792,0.0,0.0,0.0,0.0,0.0,0.0,0.0,0.0,0.0,0.0,0.0,0.0,0.0,0.0,0.0,0.0,2.3101,2.3101,2.3101,2.3101,2.3101,2.3101,2.3101,2.3101,2.3101,2.3101,2.3101,2.3101,2.3574,2.3138,2.1795,2.1397,2.0343,1.878,1.8091,1.7696,1.7465,1.7566,1.7582,1.7582,1.7582,1.7742,1.7916,1.7689,1.7582,1.7649,1.8263,1.849,1.8571,1.9158,1.943,1.943,1.943,1.943,1.943,1.943,1.943,1.943,1.943,1.943,1.9439,1.972,1.98,1.988,2.0201,2.0481,2.0681,2.0722,2.0922,2.1109,2.1109,2.1109,2.1109,2.1109,2.1109,2.1109,2.1109,2.1109,2.1109,2.1109,2.1109,2.1109,2.1109,2.1109,2.1109,2.1109,2.1109,2.1109,2.1109,2.1109,2.1109,2.1109,2.1109,2.1109,2.1109,2.1109,2.1109,2.1109,2.1149,2.1149,2.1109,2.1109,2.1109,0.0,0.0,0.0,0.0,0.0,0.0,2.1034,2.0566,2.0,0.0,0.0,0.0,0.0,0.0,0.0,0.0,0.0,0.0,0.0,0.0,0.0,0.0,0.0,0.0,0.0,2.3101,2.3101,2.3101,2.3101,2.3101,2.3101,2.3101,2.3101,2.3101,2.3101,2.3101,2.3101,2.3574,2.3138,2.1813,2.2327,2.1867,2.0473,1.9602,1.9184,1.9074,1.8067,1.7582,1.7582,1.7582,1.7622,1.7662,1.7609,1.7582,1.7649,1.8263,1.849,1.8571,1.9158,1.943,1.943,1.943,1.943,1.943,1.943,1.943,1.943,1.943,1.943,1.9439,1.972,1.98,1.9933,2.0468,2.0641,2.0735,2.0975,2.1069,2.1109,2.1109,2.1109,2.1109,2.1109,2.1109,2.1109,2.1109,2.1109,2.1109,2.1109,2.1109,2.1109,2.1109,2.1109,2.1109,2.1109,2.1109,2.1109,2.1109,2.1109,2.1109,2.1109,2.1109,2.1109,2.1109,2.1109,2.1109,2.1109,2.1349,2.1336,2.1109,2.1109,2.1109,0.0,0.0,0.0,2.2305,0.0,0.0,0.0,2.0723,2.0351,0.0,0.0,0.0,0.0,0.0,0.0,0.0,0.0,0.0,0.0,0.0,0.0,0.0,0.0,0.0,0.0,2.2789,2.2867,2.3081,2.3101,2.3101,2.3101,2.3101,2.3101,2.3101,2.3101,2.3101,2.3101,2.3574,2.3358,2.2475,2.2808,2.2439,2.1466,2.0929,2.0189,1.9352,1.8844,1.8199,1.7582,1.7582,1.7582,1.7582,1.7582,1.7582,1.7635,1.8103,1.837,1.8557,1.8998,1.9239,1.943,1.943,1.943,1.943,1.943,1.943,1.943,1.943,1.943,1.9466,1.9907,2.0013,2.016,2.0748,2.0895,2.0935,2.1082,2.1109,2.1109,2.1109,2.1109,2.1109,2.1109,2.1109,2.1109,2.1109,2.1109,2.1109,2.1109,2.1109,2.1109,2.1109,2.1109,2.1109,2.1109,2.1243,2.1336,2.1336,2.1336,2.1336,2.1336,2.1189,2.1176,2.1323,2.147,2.155,2.155,2.1697,2.1617,2.1323,2.1176,2.1189,0.0,0.0,0.0,0.0,0.0,2.2441,0.0,0.0,0.0,0.0,0.0,0.0,0.0,0.0,0.0,0.0,0.0,0.0,0.0,0.0,0.0,0.0,0.0,0.0,0.0,2.2383,2.2559,2.2945,2.2984,2.3003,2.3081,2.3101,2.3101,2.3101,2.3101,2.3101,2.3101,2.3574,2.3613,2.3237,2.3336,2.3096,2.2575,2.2218,2.1192,1.9694,1.9611,1.8864,1.7582,1.7582,1.7582,1.7582,1.7582,1.7582,1.7622,1.7996,1.829,1.8544,1.8891,1.9172,1.943,1.943,1.943,1.943,1.943,1.943,1.943,1.943,1.947,1.969,2.0455,2.0752,2.093,2.1478,2.1601,2.1475,2.1172,2.1109,2.1109,2.1109,2.1109,2.1109,2.1109,2.1109,2.1109,2.1109,2.1109,2.1109,2.1109,2.1109,2.1109,2.1109,2.1109,2.1136,2.1189,2.1416,2.1641,2.1695,2.1655,2.1614,2.1614,2.1323,2.1336,2.1695,2.1871,2.1991,2.1991,2.1991,2.1871,2.1695,2.139,2.1403,0.0,0.0,0.0,0.0,2.3359,0.0,0.0,0.0,0.0,0.0,0.0,0.0,0.0,0.0,0.0,0.0,0.0,0.0,0.0,0.0,0.0,0.0,0.0,0.0,0.0,0.0,2.2129,2.2559,2.2578,2.2711,2.3081,2.3101,2.3101,2.3101,2.3101,2.3101,2.3101,2.3574,2.3769,2.373,2.4489,2.4811,2.4705,2.3859,2.27,2.134,2.0112,1.8864,1.7582,1.7582,1.7582,1.7582,1.7582,1.7582,1.7649,1.8223,1.8464,1.8571,1.9132,1.939,1.943,1.943,1.943,1.943,1.943,1.943,1.943,1.943,1.9546,2.0169,2.1978,2.2571,2.2867,2.3237,2.3325,2.2889,2.1411,2.1109,2.1109,2.1109,2.1109,2.1109,2.1109,2.1109,2.1109,2.1109,2.1109,2.1109,2.1109,2.1109,2.1109,2.1109,2.1109,2.1216,2.1547,2.1601,2.1722,2.1924,2.1762,2.1614,2.1614,2.1588,2.1643,2.1937,2.1964,2.1991,2.1991,2.1991,2.1964,2.1937,2.1897,2.1911,0.0,0.0,0.0,0.0,0.0,0.0,2.2715,0.0,2.1855,0.0,0.0,0.0,0.0,0.0,0.0,0.0,0.0,0.0,0.0,0.0,0.0,0.0,0.0,0.0,0.0,0.0,0.0,0.0,0.0,2.2598,2.273,2.2964,2.3101,2.3101,2.3101,2.3218,2.3516,2.3945,2.416,2.416,2.5039,2.5312,2.5078,2.4927,2.3683,2.1643,2.11,1.9576,1.7582,1.7582,1.8042,1.8655,1.7884,1.7582,1.7635,1.8076,1.8343,1.8544,1.8971,1.9225,1.943,1.943,1.943,1.943,1.943,1.943,1.943,1.943,2.0247,2.1408,2.2453,2.359,2.4655,2.4928,2.4301,2.3387,2.2716,2.2529,2.2529,2.2529,2.2529,2.2529,2.2529,2.1727,2.1109,2.1109,2.1109,2.1109,2.1109,2.1109,2.1109,2.1109,2.1109,2.1229,2.1588,2.171,2.1924,2.2218,2.2124,2.1977,2.1817,2.1964,2.2111,2.2231,2.2231,2.2325,2.2498,2.2325,2.2325,2.2485,2.2138,2.2071,2.3101,0.0,0.0,0.0,0.0,0.0,0.0,0.0,0.0,0.0,0.0,0.0,0.0,0.0,0.0,0.0,0.0,0.0,0.0,0.0,0.0,0.0,0.0,0.0,0.0,0.0,0.0,0.0,0.0,0.0,2.25,2.2867,2.3101,2.3101,2.3101,2.3257,2.3613,2.4141,2.4414,2.4434,2.5265,2.5566,2.5254,2.5586,2.4245,2.1693,2.1693,2.0128,1.7635,1.7989,1.8499,1.902,1.8408,1.7991,1.7742,1.805,1.8357,1.8651,1.8945,1.9185,1.9386,1.9466,1.9492,1.9492,1.9492,1.9492,1.9492,1.9492,2.0548,2.1818,2.2632,2.3909,2.5129,2.5327,2.4486,2.345,2.3014,2.2889,2.2889,2.2889,2.2889,2.2889,2.2889,2.1915,2.1109,2.1109,2.1176,2.1203,2.1122,2.1176,2.1203,2.1122,2.1109,2.1269,2.1643,2.1857,2.2111,2.2405,2.2418,2.2325,2.2111,2.2311,2.2458,2.2539,2.2539,2.2645,2.2928,2.2645,2.2645,2.2914,2.2418,2.2338,0.0,0.0,0.0,2.3198,0.0,0.0,0.0,0.0,2.25,0.0,0.0,0.0,0.0,0.0,0.0,2.0039,0.0,0.0,0.0,0.0,0.0,0.0,0.0,0.0,0.0,0.0,0.0,0.0,0.0,0.0,2.248,2.2867,2.3101,2.3101,2.3101,2.3101,2.312,2.3939,2.4414,2.4434,2.5265,2.5674,2.5674,2.5674,2.4245,2.1693,2.1693,2.0128,1.7687,1.902,1.8812,1.7793,1.9072,1.8907,1.8009,1.837,1.8664,1.8958,1.9252,1.9417,1.9412,1.9693,1.9786,1.9786,1.9786,1.9786,1.9786,1.9786,1.9987,2.0692,2.2612,2.3366,2.3683,2.3698,2.3636,2.3139,2.1538,2.1172,2.1172,2.1172,2.1172,2.1172,2.1172,2.1172,2.1109,2.1109,2.1349,2.1494,2.1149,2.1363,2.1494,2.1136,2.1109,2.1336,2.1924,2.1977,2.2111,2.2405,2.2418,2.2418,2.2405,2.2418,2.2552,2.2914,2.2846,2.2914,2.2928,2.2914,2.2914,2.2928,2.2914,2.2914,0.0,0.0,2.3691,2.3198,0.0,0.0,0.0,0.0,0.0,0.0,0.0,0.0,0.0,0.0,0.0,2.08,0.0,0.0,0.0,0.0,0.0,0.0,0.0,0.0,0.0,0.0,0.0,0.0,0.0,0.0,0.0,2.25,2.2808,2.3081,2.3101,2.3237,2.3574,2.3848,2.4141,2.4414,2.5019,2.5293,2.5293,2.5605,2.4707,2.2968,2.2114,2.1186,2.0231,1.8864,1.9057,2.0195,1.9002,1.9006,1.9559,1.8768,1.8677,1.8971,1.9265,1.943,1.9386,1.9479,1.9519,1.9519,1.9519,1.9519,1.9519,1.9519,2.067,2.2035,2.2662,2.3991,2.5208,2.5208,2.4348,2.345,2.2904,2.2779,2.2779,2.2779,2.2779,2.2779,2.2779,2.2019,2.1403,2.1403,2.1561,2.1655,2.167,2.1777,2.1804,2.1697,2.1697,2.1844,2.2231,2.2458,2.2605,2.2712,2.2712,2.2712,2.2712,2.2712,2.2752,2.2928,2.2928,2.2928,2.2928,2.2928,2.2928,2.2928,2.2928,2.2928,2.3101,2.3296,0.0,2.3398,2.3457,0.0,2.3398,0.0,0.0,0.0,0.0,0.0,0.0,0.0,0.0,0.0,0.0,0.0,0.0,2.0605,0.0,0.0,0.0,0.0,0.0,0.0,0.0,0.0,0.0,0.0,0.0,0.0,2.2652,2.3081,2.3101,2.3237,2.3555,2.3711,2.4004,2.4414,2.4863,2.5156,2.5312,2.5605,2.4707,2.2918,2.2064,2.1135,2.0128,1.8864,1.9057,2.0158,1.9117,1.9175,1.9716,1.8931,1.8838,1.9105,1.9305,1.943,1.9444,1.9492,1.9519,1.9519,1.9519,1.9519,1.9636,2.0192,2.1481,2.2855,2.3438,2.482,2.5863,2.5253,2.4348,2.345,2.2827,2.2716,2.2716,2.2716,2.2716,2.2716,2.2716,2.2102,2.1614,2.1614,2.1724,2.1897,2.1977,2.2071,2.2098,2.1991,2.1991,2.2111,2.2392,2.2699,2.2928,2.2928,2.2928,2.2928,2.2928,2.2928,2.2913,2.3033,2.2926,2.2913,2.3033,2.2913,2.2928,2.2928,2.2928,2.2928]}]]